Missouri River (Missouri), Glasgow (06906500)

StateMissouriLatestUnknown (109000 cfs)
RiverMissouri RiverRatingObservedEstimated
Updated2021-04-10 21:30 (44 minutes ago)Flood - The river is flooding. Obstacles can be treacherous or deadly. The river should be avoided at this stage for casual trips and definitely for the inexperienced. Trips should be attempted only with protective gear and equipment.Flood(none)(none)
Discharge109000 cfs (median: 61500 cfs)High - The river is high and potentially dangerous, especially for the young and / or inexperienced. Normal stream obstacles are sometimes difficult to navigate. Extended distances can be attempted, but canoe travel may not be advisable.High(none)(none)
Height19.98 feetGood - Conditions are ideal for a canoe or kayak. Boats typically will drag on fewer than one-quarter of riffles, if at all, and portages are unnecessary or rare. Normal float lengths can be attempted without a problem.Good(none)(none)
TrendRising (rising over 24 hours)Low - River is low but can still be floated. Some riffles are okay but most come with significant dragging and might need a portage. Float lengths should be reduced to accommodate low flow, dragging, and portages.Low(none)(none)
USGSExternal icon USGS Site (External icon Google Maps)Poor - River is too low to float comfortably. Most or all riffles will drag or must be portaged and some obstacles (such as slick shelf rock) cause undue problems. Avoid the river at this stage for casual paddling trips.Poor(none)(none)

Trending Data

Plot Image

Trips for Missouri River (Missouri), Glasgow (06906500)

DateStartEndDistanceConditionDischargeHeightFishingDetails

A total of 0 rows are displayed.

Condition Descriptions

Fishing Conditions

Fish Species

Notes

Classic Trip List

The classic River Trips application is still available for use. It is updated with the new system using a data retrofit. It is no longer maintained. The original River Trips application is no longer updated (as of 1 Dec 2016) but can be checked for errors or for the condition of the data before it was converted to the new system.

Gauge Data Table

ObservationHeightDischargeMaximum
Discharge
Minimum
Discharge
Mean
Discharge
P05P10P20P25P50
(Median)
P75P80P90P95
2021-04-10 21:30 19.98 109000 150000 (2019) 34500 (2003) 72900 34700 39600 41700 43900 61500 99300 109000 145000 150000
2021-04-10 20:30 19.75 107000 150000 (2019) 34500 (2003) 72900 34700 39600 41700 43900 61500 99300 109000 145000 150000
2021-04-10 19:30 19.51 105000 150000 (2019) 34500 (2003) 72900 34700 39600 41700 43900 61500 99300 109000 145000 150000
2021-04-10 18:30 19.23 102000 150000 (2019) 34500 (2003) 72900 34700 39600 41700 43900 61500 99300 109000 145000 150000
2021-04-10 17:30 18.98 100000 150000 (2019) 34500 (2003) 72900 34700 39600 41700 43900 61500 99300 109000 145000 150000
2021-04-10 16:30 18.78 98400 150000 (2019) 34500 (2003) 72900 34700 39600 41700 43900 61500 99300 109000 145000 150000
2021-04-10 15:30 18.56 96400 150000 (2019) 34500 (2003) 72900 34700 39600 41700 43900 61500 99300 109000 145000 150000
2021-04-10 14:30 18.37 94800 150000 (2019) 34500 (2003) 72900 34700 39600 41700 43900 61500 99300 109000 145000 150000
2021-04-10 13:30 18.20 93300 150000 (2019) 34500 (2003) 72900 34700 39600 41700 43900 61500 99300 109000 145000 150000
2021-04-10 12:30 18.06 92200 150000 (2019) 34500 (2003) 72900 34700 39600 41700 43900 61500 99300 109000 145000 150000
2021-04-10 11:30 17.95 91200 150000 (2019) 34500 (2003) 72900 34700 39600 41700 43900 61500 99300 109000 145000 150000
2021-04-10 10:30 17.89 90700 150000 (2019) 34500 (2003) 72900 34700 39600 41700 43900 61500 99300 109000 145000 150000
2021-04-10 09:30 17.86 90500 150000 (2019) 34500 (2003) 72900 34700 39600 41700 43900 61500 99300 109000 145000 150000
2021-04-10 08:30 17.77 89700 150000 (2019) 34500 (2003) 72900 34700 39600 41700 43900 61500 99300 109000 145000 150000
2021-04-10 07:30 17.77 89700 150000 (2019) 34500 (2003) 72900 34700 39600 41700 43900 61500 99300 109000 145000 150000
2021-04-10 06:30 17.76 89600 150000 (2019) 34500 (2003) 72900 34700 39600 41700 43900 61500 99300 109000 145000 150000
2021-04-10 05:30 17.71 89200 150000 (2019) 34500 (2003) 72900 34700 39600 41700 43900 61500 99300 109000 145000 150000
2021-04-10 04:30 17.66 88700 150000 (2019) 34500 (2003) 72900 34700 39600 41700 43900 61500 99300 109000 145000 150000
2021-04-10 03:30 17.65 88600 150000 (2019) 34500 (2003) 72900 34700 39600 41700 43900 61500 99300 109000 145000 150000
2021-04-10 02:30 17.68 88900 150000 (2019) 34500 (2003) 72900 34700 39600 41700 43900 61500 99300 109000 145000 150000
2021-04-10 01:30 17.67 88800 150000 (2019) 34500 (2003) 72900 34700 39600 41700 43900 61500 99300 109000 145000 150000
2021-04-10 00:30 17.65 88600 150000 (2019) 34500 (2003) 72900 34700 39600 41700 43900 61500 99300 109000 145000 150000
2021-04-09 23:30 17.61 88300 169000 (2017) 34000 (2003) 72400 34200 37600 41000 44400 60100 85400 98800 151000 168000
2021-04-09 22:30 17.67 88800 169000 (2017) 34000 (2003) 72400 34200 37600 41000 44400 60100 85400 98800 151000 168000
2021-04-09 21:30 17.65 88600 169000 (2017) 34000 (2003) 72400 34200 37600 41000 44400 60100 85400 98800 151000 168000
2021-04-09 20:30 17.63 88500 169000 (2017) 34000 (2003) 72400 34200 37600 41000 44400 60100 85400 98800 151000 168000
2021-04-09 19:30 17.66 88700 169000 (2017) 34000 (2003) 72400 34200 37600 41000 44400 60100 85400 98800 151000 168000
2021-04-09 18:30 17.63 88500 169000 (2017) 34000 (2003) 72400 34200 37600 41000 44400 60100 85400 98800 151000 168000
2021-04-09 17:30 17.64 88500 169000 (2017) 34000 (2003) 72400 34200 37600 41000 44400 60100 85400 98800 151000 168000
2021-04-09 16:30 17.65 88600 169000 (2017) 34000 (2003) 72400 34200 37600 41000 44400 60100 85400 98800 151000 168000
2021-04-09 15:30 17.64 88500 169000 (2017) 34000 (2003) 72400 34200 37600 41000 44400 60100 85400 98800 151000 168000
2021-04-09 14:30 17.63 88500 169000 (2017) 34000 (2003) 72400 34200 37600 41000 44400 60100 85400 98800 151000 168000
2021-04-09 13:30 17.63 88500 169000 (2017) 34000 (2003) 72400 34200 37600 41000 44400 60100 85400 98800 151000 168000
2021-04-09 12:30 17.63 88500 169000 (2017) 34000 (2003) 72400 34200 37600 41000 44400 60100 85400 98800 151000 168000
2021-04-09 11:30 17.66 88700 169000 (2017) 34000 (2003) 72400 34200 37600 41000 44400 60100 85400 98800 151000 168000
2021-04-09 10:30 17.66 88700 169000 (2017) 34000 (2003) 72400 34200 37600 41000 44400 60100 85400 98800 151000 168000
2021-04-09 09:30 17.59 88100 169000 (2017) 34000 (2003) 72400 34200 37600 41000 44400 60100 85400 98800 151000 168000
2021-04-09 08:30 17.60 88200 169000 (2017) 34000 (2003) 72400 34200 37600 41000 44400 60100 85400 98800 151000 168000
2021-04-09 07:30 17.60 88200 169000 (2017) 34000 (2003) 72400 34200 37600 41000 44400 60100 85400 98800 151000 168000
2021-04-09 06:30 17.58 88000 169000 (2017) 34000 (2003) 72400 34200 37600 41000 44400 60100 85400 98800 151000 168000
2021-04-09 05:30 17.53 87600 169000 (2017) 34000 (2003) 72400 34200 37600 41000 44400 60100 85400 98800 151000 168000
2021-04-09 04:30 17.51 87400 169000 (2017) 34000 (2003) 72400 34200 37600 41000 44400 60100 85400 98800 151000 168000
2021-04-09 03:30 17.45 86900 169000 (2017) 34000 (2003) 72400 34200 37600 41000 44400 60100 85400 98800 151000 168000
2021-04-09 02:30 17.43 86700 169000 (2017) 34000 (2003) 72400 34200 37600 41000 44400 60100 85400 98800 151000 168000
2021-04-09 01:30 17.38 86300 169000 (2017) 34000 (2003) 72400 34200 37600 41000 44400 60100 85400 98800 151000 168000
2021-04-09 00:30 17.37 86200 169000 (2017) 34000 (2003) 72400 34200 37600 41000 44400 60100 85400 98800 151000 168000
2021-04-08 23:30 17.37 86200 186000 (2017) 33700 (2003) 73300 33900 37600 41900 42700 58000 82900 101000 157000 185000
2021-04-08 22:30 17.33 85800 186000 (2017) 33700 (2003) 73300 33900 37600 41900 42700 58000 82900 101000 157000 185000
2021-04-08 21:30 17.34 85900 186000 (2017) 33700 (2003) 73300 33900 37600 41900 42700 58000 82900 101000 157000 185000
2021-04-08 20:30 17.28 85400 186000 (2017) 33700 (2003) 73300 33900 37600 41900 42700 58000 82900 101000 157000 185000
2021-04-08 19:30 17.27 85300 186000 (2017) 33700 (2003) 73300 33900 37600 41900 42700 58000 82900 101000 157000 185000
2021-04-08 18:30 17.22 84900 186000 (2017) 33700 (2003) 73300 33900 37600 41900 42700 58000 82900 101000 157000 185000
2021-04-08 17:30 17.22 84900 186000 (2017) 33700 (2003) 73300 33900 37600 41900 42700 58000 82900 101000 157000 185000
2021-04-08 16:30 17.19 84600 186000 (2017) 33700 (2003) 73300 33900 37600 41900 42700 58000 82900 101000 157000 185000
2021-04-08 15:30 17.13 84100 186000 (2017) 33700 (2003) 73300 33900 37600 41900 42700 58000 82900 101000 157000 185000
2021-04-08 14:30 17.09 83800 186000 (2017) 33700 (2003) 73300 33900 37600 41900 42700 58000 82900 101000 157000 185000
2021-04-08 13:30 17.03 83300 186000 (2017) 33700 (2003) 73300 33900 37600 41900 42700 58000 82900 101000 157000 185000
2021-04-08 12:30 16.98 82900 186000 (2017) 33700 (2003) 73300 33900 37600 41900 42700 58000 82900 101000 157000 185000
2021-04-08 11:30 16.93 82500 186000 (2017) 33700 (2003) 73300 33900 37600 41900 42700 58000 82900 101000 157000 185000
2021-04-08 10:30 16.86 81900 186000 (2017) 33700 (2003) 73300 33900 37600 41900 42700 58000 82900 101000 157000 185000
2021-04-08 09:30 16.80 81400 186000 (2017) 33700 (2003) 73300 33900 37600 41900 42700 58000 82900 101000 157000 185000
2021-04-08 08:30 16.75 81000 186000 (2017) 33700 (2003) 73300 33900 37600 41900 42700 58000 82900 101000 157000 185000
2021-04-08 07:30 16.66 80200 186000 (2017) 33700 (2003) 73300 33900 37600 41900 42700 58000 82900 101000 157000 185000
2021-04-08 06:30 16.61 79800 186000 (2017) 33700 (2003) 73300 33900 37600 41900 42700 58000 82900 101000 157000 185000
2021-04-08 05:30 16.54 79300 186000 (2017) 33700 (2003) 73300 33900 37600 41900 42700 58000 82900 101000 157000 185000
2021-04-08 04:30 16.49 78900 186000 (2017) 33700 (2003) 73300 33900 37600 41900 42700 58000 82900 101000 157000 185000
2021-04-08 03:30 16.41 78200 186000 (2017) 33700 (2003) 73300 33900 37600 41900 42700 58000 82900 101000 157000 185000
2021-04-08 02:30 16.39 78000 186000 (2017) 33700 (2003) 73300 33900 37600 41900 42700 58000 82900 101000 157000 185000
2021-04-08 01:30 16.36 77800 186000 (2017) 33700 (2003) 73300 33900 37600 41900 42700 58000 82900 101000 157000 185000
2021-04-08 00:30 16.32 77500 186000 (2017) 33700 (2003) 73300 33900 37600 41900 42700 58000 82900 101000 157000 185000
2021-04-07 23:30 16.28 77200 197000 (2017) 33500 (2003) 74200 33700 38000 41300 44100 58600 84500 104000 158000 195000
2021-04-07 22:30 16.24 76900 197000 (2017) 33500 (2003) 74200 33700 38000 41300 44100 58600 84500 104000 158000 195000
2021-04-07 21:30 16.22 76700 197000 (2017) 33500 (2003) 74200 33700 38000 41300 44100 58600 84500 104000 158000 195000
2021-04-07 19:30 16.10 75800 197000 (2017) 33500 (2003) 74200 33700 38000 41300 44100 58600 84500 104000 158000 195000
2021-04-07 18:30 16.05 75400 197000 (2017) 33500 (2003) 74200 33700 38000 41300 44100 58600 84500 104000 158000 195000
2021-04-07 17:30 16.04 75300 197000 (2017) 33500 (2003) 74200 33700 38000 41300 44100 58600 84500 104000 158000 195000
2021-04-07 16:30 15.99 74900 197000 (2017) 33500 (2003) 74200 33700 38000 41300 44100 58600 84500 104000 158000 195000
2021-04-07 15:30 15.91 74300 197000 (2017) 33500 (2003) 74200 33700 38000 41300 44100 58600 84500 104000 158000 195000
2021-04-07 14:30 15.90 73900 197000 (2017) 33500 (2003) 74200 33700 38000 41300 44100 58600 84500 104000 158000 195000
2021-04-07 13:30 15.90 73900 197000 (2017) 33500 (2003) 74200 33700 38000 41300 44100 58600 84500 104000 158000 195000
2021-04-07 12:30 15.93 74100 197000 (2017) 33500 (2003) 74200 33700 38000 41300 44100 58600 84500 104000 158000 195000
2021-04-07 11:30 15.93 74100 197000 (2017) 33500 (2003) 74200 33700 38000 41300 44100 58600 84500 104000 158000 195000
2021-04-07 10:30 15.93 74100 197000 (2017) 33500 (2003) 74200 33700 38000 41300 44100 58600 84500 104000 158000 195000
2021-04-07 09:30 15.95 74300 197000 (2017) 33500 (2003) 74200 33700 38000 41300 44100 58600 84500 104000 158000 195000
2021-04-07 08:30 16.01 74800 197000 (2017) 33500 (2003) 74200 33700 38000 41300 44100 58600 84500 104000 158000 195000
2021-04-07 07:30 16.02 74800 197000 (2017) 33500 (2003) 74200 33700 38000 41300 44100 58600 84500 104000 158000 195000
2021-04-07 06:30 16.04 75000 197000 (2017) 33500 (2003) 74200 33700 38000 41300 44100 58600 84500 104000 158000 195000
2021-04-07 05:30 15.99 74600 197000 (2017) 33500 (2003) 74200 33700 38000 41300 44100 58600 84500 104000 158000 195000
2021-04-07 04:30 15.95 74300 197000 (2017) 33500 (2003) 74200 33700 38000 41300 44100 58600 84500 104000 158000 195000
2021-04-07 03:30 15.95 74300 197000 (2017) 33500 (2003) 74200 33700 38000 41300 44100 58600 84500 104000 158000 195000
2021-04-07 02:30 16.00 74700 197000 (2017) 33500 (2003) 74200 33700 38000 41300 44100 58600 84500 104000 158000 195000
2021-04-07 01:30 16.00 74700 197000 (2017) 33500 (2003) 74200 33700 38000 41300 44100 58600 84500 104000 158000 195000
2021-04-07 00:30 16.03 74900 197000 (2017) 33500 (2003) 74200 33700 38000 41300 44100 58600 84500 104000 158000 195000
2021-04-06 23:30 16.04 75000 187000 (2017) 33100 (2003) 74600 33300 37700 41900 46500 60500 85800 108000 165000 186000
2021-04-06 22:30 16.02 74800 187000 (2017) 33100 (2003) 74600 33300 37700 41900 46500 60500 85800 108000 165000 186000
2021-04-06 21:30 16.06 75100 187000 (2017) 33100 (2003) 74600 33300 37700 41900 46500 60500 85800 108000 165000 186000
2021-04-06 20:30 16.05 75100 187000 (2017) 33100 (2003) 74600 33300 37700 41900 46500 60500 85800 108000 165000 186000
2021-04-06 19:30 16.08 75300 187000 (2017) 33100 (2003) 74600 33300 37700 41900 46500 60500 85800 108000 165000 186000
2021-04-06 18:30 16.08 75300 187000 (2017) 33100 (2003) 74600 33300 37700 41900 46500 60500 85800 108000 165000 186000
2021-04-06 17:30 16.08 75300 187000 (2017) 33100 (2003) 74600 33300 37700 41900 46500 60500 85800 108000 165000 186000
2021-04-06 16:30 16.08 75300 187000 (2017) 33100 (2003) 74600 33300 37700 41900 46500 60500 85800 108000 165000 186000
2021-04-06 15:30 16.11 75500 187000 (2017) 33100 (2003) 74600 33300 37700 41900 46500 60500 85800 108000 165000 186000
2021-04-06 14:30 16.12 75600 187000 (2017) 33100 (2003) 74600 33300 37700 41900 46500 60500 85800 108000 165000 186000
2021-04-06 13:30 16.13 75700 187000 (2017) 33100 (2003) 74600 33300 37700 41900 46500 60500 85800 108000 165000 186000
2021-04-06 12:30 16.14 75800 187000 (2017) 33100 (2003) 74600 33300 37700 41900 46500 60500 85800 108000 165000 186000
2021-04-06 11:30 16.14 75800 187000 (2017) 33100 (2003) 74600 33300 37700 41900 46500 60500 85800 108000 165000 186000
2021-04-06 10:30 16.15 75800 187000 (2017) 33100 (2003) 74600 33300 37700 41900 46500 60500 85800 108000 165000 186000
2021-04-06 09:30 16.16 75900 187000 (2017) 33100 (2003) 74600 33300 37700 41900 46500 60500 85800 108000 165000 186000
2021-04-06 08:30 16.19 76200 187000 (2017) 33100 (2003) 74600 33300 37700 41900 46500 60500 85800 108000 165000 186000
2021-04-06 07:30 16.21 76300 187000 (2017) 33100 (2003) 74600 33300 37700 41900 46500 60500 85800 108000 165000 186000
2021-04-06 06:30 16.20 80800 187000 (2017) 33100 (2003) 74600 33300 37700 41900 46500 60500 85800 108000 165000 186000
2021-04-06 05:30 16.24 81100 187000 (2017) 33100 (2003) 74600 33300 37700 41900 46500 60500 85800 108000 165000 186000
2021-04-06 04:30 16.26 81300 187000 (2017) 33100 (2003) 74600 33300 37700 41900 46500 60500 85800 108000 165000 186000
2021-04-06 03:30 16.26 81300 187000 (2017) 33100 (2003) 74600 33300 37700 41900 46500 60500 85800 108000 165000 186000
2021-04-06 02:30 16.25 81200 187000 (2017) 33100 (2003) 74600 33300 37700 41900 46500 60500 85800 108000 165000 186000
2021-04-06 01:30 16.24 81100 187000 (2017) 33100 (2003) 74600 33300 37700 41900 46500 60500 85800 108000 165000 186000
2021-04-06 00:30 16.26 81300 187000 (2017) 33100 (2003) 74600 33300 37700 41900 46500 60500 85800 108000 165000 186000
2021-04-05 23:30 16.27 81400 184000 (2019) 33300 (2003) 73600 33500 37200 41900 48000 60000 89700 106000 136000 182000
2021-04-05 22:30 16.29 81500 184000 (2019) 33300 (2003) 73600 33500 37200 41900 48000 60000 89700 106000 136000 182000
2021-04-05 21:30 16.30 81600 184000 (2019) 33300 (2003) 73600 33500 37200 41900 48000 60000 89700 106000 136000 182000
2021-04-05 20:30 16.29 81500 184000 (2019) 33300 (2003) 73600 33500 37200 41900 48000 60000 89700 106000 136000 182000
2021-04-05 19:30 16.24 81100 184000 (2019) 33300 (2003) 73600 33500 37200 41900 48000 60000 89700 106000 136000 182000
2021-04-05 18:30 16.25 81200 184000 (2019) 33300 (2003) 73600 33500 37200 41900 48000 60000 89700 106000 136000 182000
2021-04-05 17:30 16.28 81500 184000 (2019) 33300 (2003) 73600 33500 37200 41900 48000 60000 89700 106000 136000 182000
2021-04-05 16:30 16.25 81200 184000 (2019) 33300 (2003) 73600 33500 37200 41900 48000 60000 89700 106000 136000 182000
2021-04-05 15:30 16.26 81300 184000 (2019) 33300 (2003) 73600 33500 37200 41900 48000 60000 89700 106000 136000 182000
2021-04-05 14:30 16.23 81000 184000 (2019) 33300 (2003) 73600 33500 37200 41900 48000 60000 89700 106000 136000 182000
2021-04-05 13:30 16.22 81000 184000 (2019) 33300 (2003) 73600 33500 37200 41900 48000 60000 89700 106000 136000 182000
2021-04-05 12:30 16.23 81000 184000 (2019) 33300 (2003) 73600 33500 37200 41900 48000 60000 89700 106000 136000 182000
2021-04-05 11:30 16.26 81300 184000 (2019) 33300 (2003) 73600 33500 37200 41900 48000 60000 89700 106000 136000 182000
2021-04-05 10:30 16.27 81400 184000 (2019) 33300 (2003) 73600 33500 37200 41900 48000 60000 89700 106000 136000 182000
2021-04-05 09:30 16.26 81300 184000 (2019) 33300 (2003) 73600 33500 37200 41900 48000 60000 89700 106000 136000 182000
2021-04-05 08:30 16.30 81600 184000 (2019) 33300 (2003) 73600 33500 37200 41900 48000 60000 89700 106000 136000 182000
2021-04-05 07:30 16.33 81900 184000 (2019) 33300 (2003) 73600 33500 37200 41900 48000 60000 89700 106000 136000 182000
2021-04-05 06:30 16.33 81900 184000 (2019) 33300 (2003) 73600 33500 37200 41900 48000 60000 89700 106000 136000 182000
2021-04-05 05:30 16.33 81900 184000 (2019) 33300 (2003) 73600 33500 37200 41900 48000 60000 89700 106000 136000 182000
2021-04-05 04:30 16.37 82200 184000 (2019) 33300 (2003) 73600 33500 37200 41900 48000 60000 89700 106000 136000 182000
2021-04-05 03:30 16.38 82300 184000 (2019) 33300 (2003) 73600 33500 37200 41900 48000 60000 89700 106000 136000 182000
2021-04-05 02:30 16.38 82300 184000 (2019) 33300 (2003) 73600 33500 37200 41900 48000 60000 89700 106000 136000 182000
2021-04-05 01:30 16.40 82500 184000 (2019) 33300 (2003) 73600 33500 37200 41900 48000 60000 89700 106000 136000 182000
2021-04-05 00:30 16.42 82600 184000 (2019) 33300 (2003) 73600 33500 37200 41900 48000 60000 89700 106000 136000 182000
2021-04-04 23:30 16.43 82700 211000 (2019) 34200 (2003) 72900 34300 37100 41700 47700 60500 91100 102000 119000 206000
2021-04-04 22:30 16.42 82600 211000 (2019) 34200 (2003) 72900 34300 37100 41700 47700 60500 91100 102000 119000 206000
2021-04-04 21:30 16.44 82800 211000 (2019) 34200 (2003) 72900 34300 37100 41700 47700 60500 91100 102000 119000 206000
2021-04-04 20:30 16.45 82900 211000 (2019) 34200 (2003) 72900 34300 37100 41700 47700 60500 91100 102000 119000 206000
2021-04-04 19:30 16.44 82800 211000 (2019) 34200 (2003) 72900 34300 37100 41700 47700 60500 91100 102000 119000 206000
2021-04-04 18:30 16.41 82500 211000 (2019) 34200 (2003) 72900 34300 37100 41700 47700 60500 91100 102000 119000 206000
2021-04-04 17:30 16.42 82600 211000 (2019) 34200 (2003) 72900 34300 37100 41700 47700 60500 91100 102000 119000 206000
2021-04-04 16:30 16.44 82800 211000 (2019) 34200 (2003) 72900 34300 37100 41700 47700 60500 91100 102000 119000 206000
2021-04-04 15:30 16.46 83000 211000 (2019) 34200 (2003) 72900 34300 37100 41700 47700 60500 91100 102000 119000 206000
2021-04-04 14:30 16.43 82700 211000 (2019) 34200 (2003) 72900 34300 37100 41700 47700 60500 91100 102000 119000 206000
2021-04-04 13:30 16.43 82700 211000 (2019) 34200 (2003) 72900 34300 37100 41700 47700 60500 91100 102000 119000 206000
2021-04-04 12:30 16.45 82900 211000 (2019) 34200 (2003) 72900 34300 37100 41700 47700 60500 91100 102000 119000 206000
2021-04-04 11:30 16.47 83000 211000 (2019) 34200 (2003) 72900 34300 37100 41700 47700 60500 91100 102000 119000 206000
2021-04-04 10:30 16.52 83500 211000 (2019) 34200 (2003) 72900 34300 37100 41700 47700 60500 91100 102000 119000 206000
2021-04-04 09:30 16.54 83600 211000 (2019) 34200 (2003) 72900 34300 37100 41700 47700 60500 91100 102000 119000 206000
2021-04-04 08:30 16.58 84000 211000 (2019) 34200 (2003) 72900 34300 37100 41700 47700 60500 91100 102000 119000 206000
2021-04-04 07:30 16.61 84200 211000 (2019) 34200 (2003) 72900 34300 37100 41700 47700 60500 91100 102000 119000 206000
2021-04-04 06:30 16.63 84400 211000 (2019) 34200 (2003) 72900 34300 37100 41700 47700 60500 91100 102000 119000 206000
2021-04-04 05:30 16.64 84500 211000 (2019) 34200 (2003) 72900 34300 37100 41700 47700 60500 91100 102000 119000 206000
2021-04-04 04:30 16.61 84200 211000 (2019) 34200 (2003) 72900 34300 37100 41700 47700 60500 91100 102000 119000 206000
2021-04-04 03:30 16.62 84300 211000 (2019) 34200 (2003) 72900 34300 37100 41700 47700 60500 91100 102000 119000 206000
2021-04-04 02:30 16.67 84700 211000 (2019) 34200 (2003) 72900 34300 37100 41700 47700 60500 91100 102000 119000 206000
2021-04-04 01:30 16.69 84900 211000 (2019) 34200 (2003) 72900 34300 37100 41700 47700 60500 91100 102000 119000 206000
2021-04-04 00:30 16.71 85100 211000 (2019) 34200 (2003) 72900 34300 37100 41700 47700 60500 91100 102000 119000 206000
2021-04-03 23:30 16.72 85200 253000 (2019) 34200 (2003) 74400 34300 37200 40000 40900 60400 93000 96200 116000 246000
2021-04-03 22:30 16.74 85300 253000 (2019) 34200 (2003) 74400 34300 37200 40000 40900 60400 93000 96200 116000 246000
2021-04-03 21:30 16.74 85300 253000 (2019) 34200 (2003) 74400 34300 37200 40000 40900 60400 93000 96200 116000 246000
2021-04-03 20:30 16.74 85300 253000 (2019) 34200 (2003) 74400 34300 37200 40000 40900 60400 93000 96200 116000 246000
2021-04-03 19:30 16.76 85500 253000 (2019) 34200 (2003) 74400 34300 37200 40000 40900 60400 93000 96200 116000 246000
2021-04-03 18:30 16.74 85300 253000 (2019) 34200 (2003) 74400 34300 37200 40000 40900 60400 93000 96200 116000 246000
2021-04-03 17:30 16.76 85500 253000 (2019) 34200 (2003) 74400 34300 37200 40000 40900 60400 93000 96200 116000 246000
2021-04-03 16:30 16.76 85500 253000 (2019) 34200 (2003) 74400 34300 37200 40000 40900 60400 93000 96200 116000 246000
2021-04-03 15:30 16.76 85500 253000 (2019) 34200 (2003) 74400 34300 37200 40000 40900 60400 93000 96200 116000 246000
2021-04-03 14:30 16.77 85600 253000 (2019) 34200 (2003) 74400 34300 37200 40000 40900 60400 93000 96200 116000 246000
2021-04-03 13:30 16.81 85900 253000 (2019) 34200 (2003) 74400 34300 37200 40000 40900 60400 93000 96200 116000 246000
2021-04-03 12:30 16.82 86000 253000 (2019) 34200 (2003) 74400 34300 37200 40000 40900 60400 93000 96200 116000 246000
2021-04-03 11:30 16.83 86100 253000 (2019) 34200 (2003) 74400 34300 37200 40000 40900 60400 93000 96200 116000 246000
2021-04-03 10:30 16.83 86100 253000 (2019) 34200 (2003) 74400 34300 37200 40000 40900 60400 93000 96200 116000 246000
2021-04-03 09:30 16.84 86200 253000 (2019) 34200 (2003) 74400 34300 37200 40000 40900 60400 93000 96200 116000 246000
2021-04-03 08:30 16.82 86000 253000 (2019) 34200 (2003) 74400 34300 37200 40000 40900 60400 93000 96200 116000 246000
2021-04-03 07:30 16.86 86400 253000 (2019) 34200 (2003) 74400 34300 37200 40000 40900 60400 93000 96200 116000 246000
2021-04-03 06:30 16.89 86600 253000 (2019) 34200 (2003) 74400 34300 37200 40000 40900 60400 93000 96200 116000 246000
2021-04-03 05:30 16.88 86500 253000 (2019) 34200 (2003) 74400 34300 37200 40000 40900 60400 93000 96200 116000 246000
2021-04-03 04:30 16.88 86500 253000 (2019) 34200 (2003) 74400 34300 37200 40000 40900 60400 93000 96200 116000 246000
2021-04-03 03:30 16.89 86600 253000 (2019) 34200 (2003) 74400 34300 37200 40000 40900 60400 93000 96200 116000 246000
2021-04-03 02:30 16.87 86400 253000 (2019) 34200 (2003) 74400 34300 37200 40000 40900 60400 93000 96200 116000 246000
2021-04-03 01:30 16.88 86500 253000 (2019) 34200 (2003) 74400 34300 37200 40000 40900 60400 93000 96200 116000 246000
2021-04-03 00:30 16.88 86500 253000 (2019) 34200 (2003) 74400 34300 37200 40000 40900 60400 93000 96200 116000 246000
2021-04-02 23:30 16.91 86800 278000 (2019) 33100 (2003) 76800 33300 37600 39300 40100 62900 92300 104000 114000 270000
2021-04-02 22:30 16.91 86800 278000 (2019) 33100 (2003) 76800 33300 37600 39300 40100 62900 92300 104000 114000 270000
2021-04-02 21:30 16.93 87000 278000 (2019) 33100 (2003) 76800 33300 37600 39300 40100 62900 92300 104000 114000 270000
2021-04-02 20:30 16.92 86900 278000 (2019) 33100 (2003) 76800 33300 37600 39300 40100 62900 92300 104000 114000 270000
2021-04-02 19:30 16.93 87000 278000 (2019) 33100 (2003) 76800 33300 37600 39300 40100 62900 92300 104000 114000 270000
2021-04-02 18:30 16.93 87000 278000 (2019) 33100 (2003) 76800 33300 37600 39300 40100 62900 92300 104000 114000 270000
2021-04-02 17:30 16.93 87000 278000 (2019) 33100 (2003) 76800 33300 37600 39300 40100 62900 92300 104000 114000 270000
2021-04-02 16:30 16.96 87200 278000 (2019) 33100 (2003) 76800 33300 37600 39300 40100 62900 92300 104000 114000 270000
2021-04-02 15:30 16.97 87300 278000 (2019) 33100 (2003) 76800 33300 37600 39300 40100 62900 92300 104000 114000 270000
2021-04-02 14:30 16.98 87400 278000 (2019) 33100 (2003) 76800 33300 37600 39300 40100 62900 92300 104000 114000 270000
2021-04-02 13:30 16.99 87500 278000 (2019) 33100 (2003) 76800 33300 37600 39300 40100 62900 92300 104000 114000 270000
2021-04-02 12:30 17.00 87600 278000 (2019) 33100 (2003) 76800 33300 37600 39300 40100 62900 92300 104000 114000 270000
2021-04-02 11:30 17.00 87600 278000 (2019) 33100 (2003) 76800 33300 37600 39300 40100 62900 92300 104000 114000 270000
2021-04-02 10:30 17.01 87700 278000 (2019) 33100 (2003) 76800 33300 37600 39300 40100 62900 92300 104000 114000 270000
2021-04-02 09:30 17.02 87800 278000 (2019) 33100 (2003) 76800 33300 37600 39300 40100 62900 92300 104000 114000 270000
2021-04-02 08:30 17.04 87900 278000 (2019) 33100 (2003) 76800 33300 37600 39300 40100 62900 92300 104000 114000 270000
2021-04-02 07:30 17.05 88000 278000 (2019) 33100 (2003) 76800 33300 37600 39300 40100 62900 92300 104000 114000 270000
2021-04-02 06:30 17.04 87900 278000 (2019) 33100 (2003) 76800 33300 37600 39300 40100 62900 92300 104000 114000 270000
2021-04-02 05:30 17.10 88500 278000 (2019) 33100 (2003) 76800 33300 37600 39300 40100 62900 92300 104000 114000 270000
2021-04-02 04:30 17.08 88300 278000 (2019) 33100 (2003) 76800 33300 37600 39300 40100 62900 92300 104000 114000 270000
2021-04-02 03:30 17.11 88500 278000 (2019) 33100 (2003) 76800 33300 37600 39300 40100 62900 92300 104000 114000 270000
2021-04-02 02:30 17.13 88700 278000 (2019) 33100 (2003) 76800 33300 37600 39300 40100 62900 92300 104000 114000 270000
2021-04-02 01:30 17.16 89000 278000 (2019) 33100 (2003) 76800 33300 37600 39300 40100 62900 92300 104000 114000 270000
2021-04-02 00:30 17.17 89100 278000 (2019) 33100 (2003) 76800 33300 37600 39300 40100 62900 92300 104000 114000 270000
2021-04-01 23:30 17.19 89300 286000 (2019) 32700 (2003) 79200 33000 38500 39100 39700 69800 93400 104000 128000 278000
2021-04-01 22:30 17.21 89400 286000 (2019) 32700 (2003) 79200 33000 38500 39100 39700 69800 93400 104000 128000 278000
2021-04-01 21:30 17.22 89500 286000 (2019) 32700 (2003) 79200 33000 38500 39100 39700 69800 93400 104000 128000 278000
2021-04-01 20:30 17.19 89300 286000 (2019) 32700 (2003) 79200 33000 38500 39100 39700 69800 93400 104000 128000 278000
2021-04-01 19:30 17.23 89600 286000 (2019) 32700 (2003) 79200 33000 38500 39100 39700 69800 93400 104000 128000 278000
2021-04-01 18:30 17.24 89700 286000 (2019) 32700 (2003) 79200 33000 38500 39100 39700 69800 93400 104000 128000 278000
2021-04-01 17:30 17.25 89800 286000 (2019) 32700 (2003) 79200 33000 38500 39100 39700 69800 93400 104000 128000 278000
2021-04-01 16:30 17.26 89900 286000 (2019) 32700 (2003) 79200 33000 38500 39100 39700 69800 93400 104000 128000 278000
2021-04-01 15:30 17.28 90100 286000 (2019) 32700 (2003) 79200 33000 38500 39100 39700 69800 93400 104000 128000 278000
2021-04-01 14:30 17.30 90200 286000 (2019) 32700 (2003) 79200 33000 38500 39100 39700 69800 93400 104000 128000 278000
2021-04-01 13:30 17.32 90400 286000 (2019) 32700 (2003) 79200 33000 38500 39100 39700 69800 93400 104000 128000 278000
2021-04-01 12:30 17.36 90700 286000 (2019) 32700 (2003) 79200 33000 38500 39100 39700 69800 93400 104000 128000 278000
2021-04-01 11:30 17.40 91100 286000 (2019) 32700 (2003) 79200 33000 38500 39100 39700 69800 93400 104000 128000 278000
2021-04-01 10:30 17.41 91200 286000 (2019) 32700 (2003) 79200 33000 38500 39100 39700 69800 93400 104000 128000 278000
2021-04-01 09:30 17.45 91500 286000 (2019) 32700 (2003) 79200 33000 38500 39100 39700 69800 93400 104000 128000 278000
2021-04-01 08:30 17.49 91800 286000 (2019) 32700 (2003) 79200 33000 38500 39100 39700 69800 93400 104000 128000 278000
2021-04-01 07:30 17.50 91900 286000 (2019) 32700 (2003) 79200 33000 38500 39100 39700 69800 93400 104000 128000 278000
2021-04-01 06:30 17.53 92200 286000 (2019) 32700 (2003) 79200 33000 38500 39100 39700 69800 93400 104000 128000 278000
2021-04-01 05:30 17.56 92400 286000 (2019) 32700 (2003) 79200 33000 38500 39100 39700 69800 93400 104000 128000 278000
2021-04-01 04:30 17.58 92600 286000 (2019) 32700 (2003) 79200 33000 38500 39100 39700 69800 93400 104000 128000 278000
2021-04-01 03:30 17.62 92900 286000 (2019) 32700 (2003) 79200 33000 38500 39100 39700 69800 93400 104000 128000 278000
2021-04-01 02:30 17.64 93100 286000 (2019) 32700 (2003) 79200 33000 38500 39100 39700 69800 93400 104000 128000 278000
2021-04-01 01:30 17.67 93300 286000 (2019) 32700 (2003) 79200 33000 38500 39100 39700 69800 93400 104000 128000 278000
2021-04-01 00:30 17.66 93300 286000 (2019) 32700 (2003) 79200 33000 38500 39100 39700 69800 93400 104000 128000 278000
2021-03-31 23:30 17.71 93700 286000 (2019) 33400 (2003) 79500 33600 37000 39400 40000 68200 94500 105000 125000 278000
2021-03-31 22:30 17.78 94300 286000 (2019) 33400 (2003) 79500 33600 37000 39400 40000 68200 94500 105000 125000 278000
2021-03-31 21:30 17.82 94600 286000 (2019) 33400 (2003) 79500 33600 37000 39400 40000 68200 94500 105000 125000 278000
2021-03-31 20:30 17.86 95000 286000 (2019) 33400 (2003) 79500 33600 37000 39400 40000 68200 94500 105000 125000 278000
2021-03-31 19:30 17.85 94900 286000 (2019) 33400 (2003) 79500 33600 37000 39400 40000 68200 94500 105000 125000 278000
2021-03-31 18:30 17.87 95000 286000 (2019) 33400 (2003) 79500 33600 37000 39400 40000 68200 94500 105000 125000 278000
2021-03-31 17:30 17.94 95700 286000 (2019) 33400 (2003) 79500 33600 37000 39400 40000 68200 94500 105000 125000 278000
2021-03-31 16:30 17.97 95900 286000 (2019) 33400 (2003) 79500 33600 37000 39400 40000 68200 94500 105000 125000 278000
2021-03-31 15:30 18.04 96500 286000 (2019) 33400 (2003) 79500 33600 37000 39400 40000 68200 94500 105000 125000 278000
2021-03-31 14:30 18.11 97100 286000 (2019) 33400 (2003) 79500 33600 37000 39400 40000 68200 94500 105000 125000 278000
2021-03-31 13:30 18.14 97400 286000 (2019) 33400 (2003) 79500 33600 37000 39400 40000 68200 94500 105000 125000 278000
2021-03-31 12:30 18.20 97900 286000 (2019) 33400 (2003) 79500 33600 37000 39400 40000 68200 94500 105000 125000 278000
2021-03-31 11:30 18.26 98400 286000 (2019) 33400 (2003) 79500 33600 37000 39400 40000 68200 94500 105000 125000 278000
2021-03-31 10:30 18.32 99000 286000 (2019) 33400 (2003) 79500 33600 37000 39400 40000 68200 94500 105000 125000 278000
2021-03-31 09:30 18.35 99200 286000 (2019) 33400 (2003) 79500 33600 37000 39400 40000 68200 94500 105000 125000 278000
2021-03-31 08:30 18.47 100000 286000 (2019) 33400 (2003) 79500 33600 37000 39400 40000 68200 94500 105000 125000 278000
2021-03-31 07:30 18.54 101000 286000 (2019) 33400 (2003) 79500 33600 37000 39400 40000 68200 94500 105000 125000 278000
2021-03-31 06:30 18.59 101000 286000 (2019) 33400 (2003) 79500 33600 37000 39400 40000 68200 94500 105000 125000 278000
2021-03-31 05:30 18.65 102000 286000 (2019) 33400 (2003) 79500 33600 37000 39400 40000 68200 94500 105000 125000 278000
2021-03-31 04:30 18.71 102000 286000 (2019) 33400 (2003) 79500 33600 37000 39400 40000 68200 94500 105000 125000 278000
2021-03-31 03:30 18.78 103000 286000 (2019) 33400 (2003) 79500 33600 37000 39400 40000 68200 94500 105000 125000 278000
2021-03-31 02:30 18.86 104000 286000 (2019) 33400 (2003) 79500 33600 37000 39400 40000 68200 94500 105000 125000 278000
2021-03-31 01:30 18.94 105000 286000 (2019) 33400 (2003) 79500 33600 37000 39400 40000 68200 94500 105000 125000 278000
2021-03-31 00:30 18.97 105000 286000 (2019) 33400 (2003) 79500 33600 37000 39400 40000 68200 94500 105000 125000 278000
2021-03-30 23:30 19.04 106000 262000 (2019) 33700 (2003) 77200 33800 35700 39100 39600 66800 87900 100000 138000 256000
2021-03-30 22:30 19.10 106000 262000 (2019) 33700 (2003) 77200 33800 35700 39100 39600 66800 87900 100000 138000 256000
2021-03-30 21:30 19.20 107000 262000 (2019) 33700 (2003) 77200 33800 35700 39100 39600 66800 87900 100000 138000 256000
2021-03-30 20:30 19.28 108000 262000 (2019) 33700 (2003) 77200 33800 35700 39100 39600 66800 87900 100000 138000 256000
2021-03-30 19:30 19.33 108000 262000 (2019) 33700 (2003) 77200 33800 35700 39100 39600 66800 87900 100000 138000 256000
2021-03-30 18:30 19.37 109000 262000 (2019) 33700 (2003) 77200 33800 35700 39100 39600 66800 87900 100000 138000 256000
2021-03-30 17:30 19.46 109000 262000 (2019) 33700 (2003) 77200 33800 35700 39100 39600 66800 87900 100000 138000 256000
2021-03-30 16:30 19.54 110000 262000 (2019) 33700 (2003) 77200 33800 35700 39100 39600 66800 87900 100000 138000 256000
2021-03-30 15:30 19.62 111000 262000 (2019) 33700 (2003) 77200 33800 35700 39100 39600 66800 87900 100000 138000 256000
2021-03-30 14:30 19.70 112000 262000 (2019) 33700 (2003) 77200 33800 35700 39100 39600 66800 87900 100000 138000 256000
2021-03-30 13:30 19.82 113000 262000 (2019) 33700 (2003) 77200 33800 35700 39100 39600 66800 87900 100000 138000 256000
2021-03-30 12:30 19.87 113000 262000 (2019) 33700 (2003) 77200 33800 35700 39100 39600 66800 87900 100000 138000 256000
2021-03-30 11:30 19.91 114000 262000 (2019) 33700 (2003) 77200 33800 35700 39100 39600 66800 87900 100000 138000 256000
2021-03-30 10:30 19.98 115000 262000 (2019) 33700 (2003) 77200 33800 35700 39100 39600 66800 87900 100000 138000 256000
2021-03-30 09:30 20.01 115000 262000 (2019) 33700 (2003) 77200 33800 35700 39100 39600 66800 87900 100000 138000 256000
2021-03-30 08:30 20.11 116000 262000 (2019) 33700 (2003) 77200 33800 35700 39100 39600 66800 87900 100000 138000 256000
2021-03-30 07:30 20.15 116000 262000 (2019) 33700 (2003) 77200 33800 35700 39100 39600 66800 87900 100000 138000 256000
2021-03-30 06:30 20.21 117000 262000 (2019) 33700 (2003) 77200 33800 35700 39100 39600 66800 87900 100000 138000 256000
2021-03-30 05:30 20.23 117000 262000 (2019) 33700 (2003) 77200 33800 35700 39100 39600 66800 87900 100000 138000 256000
2021-03-30 04:30 20.27 117000 262000 (2019) 33700 (2003) 77200 33800 35700 39100 39600 66800 87900 100000 138000 256000
2021-03-30 03:30 20.33 118000 262000 (2019) 33700 (2003) 77200 33800 35700 39100 39600 66800 87900 100000 138000 256000
2021-03-30 02:30 20.40 119000 262000 (2019) 33700 (2003) 77200 33800 35700 39100 39600 66800 87900 100000 138000 256000
2021-03-30 01:30 20.39 119000 262000 (2019) 33700 (2003) 77200 33800 35700 39100 39600 66800 87900 100000 138000 256000
2021-03-30 00:30 20.42 119000 262000 (2019) 33700 (2003) 77200 33800 35700 39100 39600 66800 87900 100000 138000 256000
2021-03-29 23:30 20.49 120000 254000 (2019) 32900 (2003) 76500 33000 34800 37800 39400 62900 86200 107000 149000 249000
2021-03-29 22:30 20.47 120000 254000 (2019) 32900 (2003) 76500 33000 34800 37800 39400 62900 86200 107000 149000 249000
2021-03-29 21:30 20.48 120000 254000 (2019) 32900 (2003) 76500 33000 34800 37800 39400 62900 86200 107000 149000 249000
2021-03-29 20:30 20.48 120000 254000 (2019) 32900 (2003) 76500 33000 34800 37800 39400 62900 86200 107000 149000 249000
2021-03-29 19:30 20.47 120000 254000 (2019) 32900 (2003) 76500 33000 34800 37800 39400 62900 86200 107000 149000 249000
2021-03-29 18:30 20.50 120000 254000 (2019) 32900 (2003) 76500 33000 34800 37800 39400 62900 86200 107000 149000 249000
2021-03-29 17:30 20.50 120000 254000 (2019) 32900 (2003) 76500 33000 34800 37800 39400 62900 86200 107000 149000 249000
2021-03-29 16:30 20.49 120000 254000 (2019) 32900 (2003) 76500 33000 34800 37800 39400 62900 86200 107000 149000 249000
2021-03-29 15:30 20.43 119000 254000 (2019) 32900 (2003) 76500 33000 34800 37800 39400 62900 86200 107000 149000 249000
2021-03-29 14:30 20.39 119000 254000 (2019) 32900 (2003) 76500 33000 34800 37800 39400 62900 86200 107000 149000 249000
2021-03-29 13:30 20.34 118000 254000 (2019) 32900 (2003) 76500 33000 34800 37800 39400 62900 86200 107000 149000 249000
2021-03-29 12:30 20.34 118000 254000 (2019) 32900 (2003) 76500 33000 34800 37800 39400 62900 86200 107000 149000 249000
2021-03-29 11:30 20.31 118000 254000 (2019) 32900 (2003) 76500 33000 34800 37800 39400 62900 86200 107000 149000 249000
2021-03-29 10:30 20.30 118000 254000 (2019) 32900 (2003) 76500 33000 34800 37800 39400 62900 86200 107000 149000 249000
2021-03-29 09:30 20.23 117000 254000 (2019) 32900 (2003) 76500 33000 34800 37800 39400 62900 86200 107000 149000 249000
2021-03-29 08:30 20.19 117000 254000 (2019) 32900 (2003) 76500 33000 34800 37800 39400 62900 86200 107000 149000 249000
2021-03-29 07:30 20.18 117000 254000 (2019) 32900 (2003) 76500 33000 34800 37800 39400 62900 86200 107000 149000 249000
2021-03-29 06:30 20.17 116000 254000 (2019) 32900 (2003) 76500 33000 34800 37800 39400 62900 86200 107000 149000 249000
2021-03-29 05:30 20.10 116000 254000 (2019) 32900 (2003) 76500 33000 34800 37800 39400 62900 86200 107000 149000 249000
2021-03-29 04:30 20.09 116000 254000 (2019) 32900 (2003) 76500 33000 34800 37800 39400 62900 86200 107000 149000 249000
2021-03-29 03:30 20.04 115000 254000 (2019) 32900 (2003) 76500 33000 34800 37800 39400 62900 86200 107000 149000 249000
2021-03-29 02:30 19.97 114000 254000 (2019) 32900 (2003) 76500 33000 34800 37800 39400 62900 86200 107000 149000 249000
2021-03-29 01:30 19.87 113000 254000 (2019) 32900 (2003) 76500 33000 34800 37800 39400 62900 86200 107000 149000 249000
2021-03-29 00:30 19.85 113000 254000 (2019) 32900 (2003) 76500 33000 34800 37800 39400 62900 86200 107000 149000 249000
2021-03-28 23:30 19.82 113000 269000 (2019) 32000 (2006) 76700 32000 32800 37200 38600 56900 91200 105000 166000 264000
2021-03-28 22:30 19.78 113000 269000 (2019) 32000 (2006) 76700 32000 32800 37200 38600 56900 91200 105000 166000 264000
2021-03-28 21:30 19.68 112000 269000 (2019) 32000 (2006) 76700 32000 32800 37200 38600 56900 91200 105000 166000 264000
2021-03-28 20:30 19.62 111000 269000 (2019) 32000 (2006) 76700 32000 32800 37200 38600 56900 91200 105000 166000 264000
2021-03-28 19:30 19.59 111000 269000 (2019) 32000 (2006) 76700 32000 32800 37200 38600 56900 91200 105000 166000 264000
2021-03-28 18:30 19.52 110000 269000 (2019) 32000 (2006) 76700 32000 32800 37200 38600 56900 91200 105000 166000 264000
2021-03-28 17:30 19.46 109000 269000 (2019) 32000 (2006) 76700 32000 32800 37200 38600 56900 91200 105000 166000 264000
2021-03-28 16:30 19.44 109000 269000 (2019) 32000 (2006) 76700 32000 32800 37200 38600 56900 91200 105000 166000 264000
2021-03-28 15:30 19.44 109000 269000 (2019) 32000 (2006) 76700 32000 32800 37200 38600 56900 91200 105000 166000 264000
2021-03-28 14:30 19.41 109000 269000 (2019) 32000 (2006) 76700 32000 32800 37200 38600 56900 91200 105000 166000 264000
2021-03-28 13:30 19.40 109000 269000 (2019) 32000 (2006) 76700 32000 32800 37200 38600 56900 91200 105000 166000 264000
2021-03-28 12:30 19.40 109000 269000 (2019) 32000 (2006) 76700 32000 32800 37200 38600 56900 91200 105000 166000 264000
2021-03-28 11:30 19.39 109000 269000 (2019) 32000 (2006) 76700 32000 32800 37200 38600 56900 91200 105000 166000 264000
2021-03-28 10:30 19.42 109000 269000 (2019) 32000 (2006) 76700 32000 32800 37200 38600 56900 91200 105000 166000 264000
2021-03-28 09:30 19.43 109000 269000 (2019) 32000 (2006) 76700 32000 32800 37200 38600 56900 91200 105000 166000 264000
2021-03-28 08:30 19.37 109000 269000 (2019) 32000 (2006) 76700 32000 32800 37200 38600 56900 91200 105000 166000 264000
2021-03-28 07:30 19.43 109000 269000 (2019) 32000 (2006) 76700 32000 32800 37200 38600 56900 91200 105000 166000 264000
2021-03-28 06:30 19.38 109000 269000 (2019) 32000 (2006) 76700 32000 32800 37200 38600 56900 91200 105000 166000 264000
2021-03-28 05:30 19.40 109000 269000 (2019) 32000 (2006) 76700 32000 32800 37200 38600 56900 91200 105000 166000 264000
2021-03-28 04:30 19.39 109000 269000 (2019) 32000 (2006) 76700 32000 32800 37200 38600 56900 91200 105000 166000 264000
2021-03-28 03:30 19.40 109000 269000 (2019) 32000 (2006) 76700 32000 32800 37200 38600 56900 91200 105000 166000 264000
2021-03-28 02:30 19.36 109000 269000 (2019) 32000 (2006) 76700 32000 32800 37200 38600 56900 91200 105000 166000 264000
2021-03-28 01:30 19.43 109000 269000 (2019) 32000 (2006) 76700 32000 32800 37200 38600 56900 91200 105000 166000 264000
2021-03-28 00:30 19.41 109000 269000 (2019) 32000 (2006) 76700 32000 32800 37200 38600 56900 91200 105000 166000 264000
2021-03-27 23:30 19.36 109000 277000 (2019) 29200 (2006) 76400 29300 30800 36200 36300 55700 99000 106000 177000 272000
2021-03-27 22:30 19.37 109000 277000 (2019) 29200 (2006) 76400 29300 30800 36200 36300 55700 99000 106000 177000 272000
2021-03-27 21:30 19.27 108000 277000 (2019) 29200 (2006) 76400 29300 30800 36200 36300 55700 99000 106000 177000 272000
2021-03-27 20:30 19.27 108000 277000 (2019) 29200 (2006) 76400 29300 30800 36200 36300 55700 99000 106000 177000 272000
2021-03-27 19:30 19.24 107000 277000 (2019) 29200 (2006) 76400 29300 30800 36200 36300 55700 99000 106000 177000 272000
2021-03-27 18:30 19.18 107000 277000 (2019) 29200 (2006) 76400 29300 30800 36200 36300 55700 99000 106000 177000 272000
2021-03-27 17:30 19.17 107000 277000 (2019) 29200 (2006) 76400 29300 30800 36200 36300 55700 99000 106000 177000 272000
2021-03-27 16:30 19.12 106000 277000 (2019) 29200 (2006) 76400 29300 30800 36200 36300 55700 99000 106000 177000 272000
2021-03-27 15:30 19.09 106000 277000 (2019) 29200 (2006) 76400 29300 30800 36200 36300 55700 99000 106000 177000 272000
2021-03-27 14:30 19.02 105000 277000 (2019) 29200 (2006) 76400 29300 30800 36200 36300 55700 99000 106000 177000 272000
2021-03-27 13:30 19.00 105000 277000 (2019) 29200 (2006) 76400 29300 30800 36200 36300 55700 99000 106000 177000 272000
2021-03-27 12:30 18.96 105000 277000 (2019) 29200 (2006) 76400 29300 30800 36200 36300 55700 99000 106000 177000 272000
2021-03-27 11:30 18.93 104000 277000 (2019) 29200 (2006) 76400 29300 30800 36200 36300 55700 99000 106000 177000 272000
2021-03-27 10:30 18.86 104000 277000 (2019) 29200 (2006) 76400 29300 30800 36200 36300 55700 99000 106000 177000 272000
2021-03-27 09:30 18.80 103000 277000 (2019) 29200 (2006) 76400 29300 30800 36200 36300 55700 99000 106000 177000 272000
2021-03-27 08:30 18.77 103000 277000 (2019) 29200 (2006) 76400 29300 30800 36200 36300 55700 99000 106000 177000 272000
2021-03-27 07:30 18.70 102000 277000 (2019) 29200 (2006) 76400 29300 30800 36200 36300 55700 99000 106000 177000 272000
2021-03-27 06:30 18.67 102000 277000 (2019) 29200 (2006) 76400 29300 30800 36200 36300 55700 99000 106000 177000 272000
2021-03-27 05:30 18.61 102000 277000 (2019) 29200 (2006) 76400 29300 30800 36200 36300 55700 99000 106000 177000 272000
2021-03-27 04:30 18.57 101000 277000 (2019) 29200 (2006) 76400 29300 30800 36200 36300 55700 99000 106000 177000 272000
2021-03-27 03:30 18.43 100000 277000 (2019) 29200 (2006) 76400 29300 30800 36200 36300 55700 99000 106000 177000 272000
2021-03-27 02:30 18.35 99200 277000 (2019) 29200 (2006) 76400 29300 30800 36200 36300 55700 99000 106000 177000 272000
2021-03-27 01:30 18.27 98500 277000 (2019) 29200 (2006) 76400 29300 30800 36200 36300 55700 99000 106000 177000 272000
2021-03-27 00:30 18.20 97900 277000 (2019) 29200 (2006) 76400 29300 30800 36200 36300 55700 99000 106000 177000 272000
2021-03-26 23:30 18.13 97300 278000 (2019) 27500 (2006) 74800 27600 29500 33800 35100 56500 88800 105000 166000 273000
2021-03-26 22:30 18.07 96800 278000 (2019) 27500 (2006) 74800 27600 29500 33800 35100 56500 88800 105000 166000 273000
2021-03-26 21:30 18.01 96300 278000 (2019) 27500 (2006) 74800 27600 29500 33800 35100 56500 88800 105000 166000 273000
2021-03-26 20:30 17.93 95600 278000 (2019) 27500 (2006) 74800 27600 29500 33800 35100 56500 88800 105000 166000 273000
2021-03-26 19:30 17.84 94800 278000 (2019) 27500 (2006) 74800 27600 29500 33800 35100 56500 88800 105000 166000 273000
2021-03-26 18:30 17.75 94000 278000 (2019) 27500 (2006) 74800 27600 29500 33800 35100 56500 88800 105000 166000 273000
2021-03-26 17:30 17.63 93000 278000 (2019) 27500 (2006) 74800 27600 29500 33800 35100 56500 88800 105000 166000 273000
2021-03-26 16:30 17.56 92400 278000 (2019) 27500 (2006) 74800 27600 29500 33800 35100 56500 88800 105000 166000 273000
2021-03-26 15:30 17.55 92300 278000 (2019) 27500 (2006) 74800 27600 29500 33800 35100 56500 88800 105000 166000 273000
2021-03-26 14:30 17.48 91700 278000 (2019) 27500 (2006) 74800 27600 29500 33800 35100 56500 88800 105000 166000 273000
2021-03-26 13:30 17.49 91800 278000 (2019) 27500 (2006) 74800 27600 29500 33800 35100 56500 88800 105000 166000 273000
2021-03-26 12:30 17.42 91200 278000 (2019) 27500 (2006) 74800 27600 29500 33800 35100 56500 88800 105000 166000 273000
2021-03-26 11:30 17.39 91000 278000 (2019) 27500 (2006) 74800 27600 29500 33800 35100 56500 88800 105000 166000 273000
2021-03-26 10:30 17.34 90600 278000 (2019) 27500 (2006) 74800 27600 29500 33800 35100 56500 88800 105000 166000 273000
2021-03-26 09:30 17.31 90300 278000 (2019) 27500 (2006) 74800 27600 29500 33800 35100 56500 88800 105000 166000 273000
2021-03-26 08:30 17.26 89900 278000 (2019) 27500 (2006) 74800 27600 29500 33800 35100 56500 88800 105000 166000 273000
2021-03-26 07:30 17.24 89700 278000 (2019) 27500 (2006) 74800 27600 29500 33800 35100 56500 88800 105000 166000 273000
2021-03-26 06:30 17.20 89300 278000 (2019) 27500 (2006) 74800 27600 29500 33800 35100 56500 88800 105000 166000 273000
2021-03-26 05:30 17.17 89100 278000 (2019) 27500 (2006) 74800 27600 29500 33800 35100 56500 88800 105000 166000 273000
2021-03-26 04:30 17.13 88700 278000 (2019) 27500 (2006) 74800 27600 29500 33800 35100 56500 88800 105000 166000 273000
2021-03-26 03:30 17.11 88500 278000 (2019) 27500 (2006) 74800 27600 29500 33800 35100 56500 88800 105000 166000 273000
2021-03-26 02:30 17.07 88200 278000 (2019) 27500 (2006) 74800 27600 29500 33800 35100 56500 88800 105000 166000 273000
2021-03-26 01:30 17.02 87800 278000 (2019) 27500 (2006) 74800 27600 29500 33800 35100 56500 88800 105000 166000 273000
2021-03-26 00:30 16.97 87300 278000 (2019) 27500 (2006) 74800 27600 29500 33800 35100 56500 88800 105000 166000 273000
2021-03-25 23:30 16.94 87100 270000 (2019) 26600 (2006) 72700 26700 28500 31900 32700 54400 84600 111000 150000 264000
2021-03-25 22:30 16.90 86700 270000 (2019) 26600 (2006) 72700 26700 28500 31900 32700 54400 84600 111000 150000 264000
2021-03-25 21:30 16.86 86400 270000 (2019) 26600 (2006) 72700 26700 28500 31900 32700 54400 84600 111000 150000 264000
2021-03-25 20:30 16.81 85900 270000 (2019) 26600 (2006) 72700 26700 28500 31900 32700 54400 84600 111000 150000 264000
2021-03-25 19:30 16.77 85600 270000 (2019) 26600 (2006) 72700 26700 28500 31900 32700 54400 84600 111000 150000 264000
2021-03-25 18:30 16.72 85200 270000 (2019) 26600 (2006) 72700 26700 28500 31900 32700 54400 84600 111000 150000 264000
2021-03-25 17:30 16.70 85000 270000 (2019) 26600 (2006) 72700 26700 28500 31900 32700 54400 84600 111000 150000 264000
2021-03-25 16:30 16.68 84800 270000 (2019) 26600 (2006) 72700 26700 28500 31900 32700 54400 84600 111000 150000 264000
2021-03-25 15:30 16.65 84600 270000 (2019) 26600 (2006) 72700 26700 28500 31900 32700 54400 84600 111000 150000 264000
2021-03-25 14:30 16.61 84200 270000 (2019) 26600 (2006) 72700 26700 28500 31900 32700 54400 84600 111000 150000 264000
2021-03-25 13:30 16.55 83700 270000 (2019) 26600 (2006) 72700 26700 28500 31900 32700 54400 84600 111000 150000 264000
2021-03-25 12:30 16.53 83500 270000 (2019) 26600 (2006) 72700 26700 28500 31900 32700 54400 84600 111000 150000 264000
2021-03-25 11:30 16.51 83400 270000 (2019) 26600 (2006) 72700 26700 28500 31900 32700 54400 84600 111000 150000 264000
2021-03-25 10:30 16.46 83000 270000 (2019) 26600 (2006) 72700 26700 28500 31900 32700 54400 84600 111000 150000 264000
2021-03-25 09:30 16.44 82800 270000 (2019) 26600 (2006) 72700 26700 28500 31900 32700 54400 84600 111000 150000 264000
2021-03-25 08:30 16.38 82300 270000 (2019) 26600 (2006) 72700 26700 28500 31900 32700 54400 84600 111000 150000 264000
2021-03-25 07:30 16.38 82300 270000 (2019) 26600 (2006) 72700 26700 28500 31900 32700 54400 84600 111000 150000 264000
2021-03-25 06:30 16.34 82000 270000 (2019) 26600 (2006) 72700 26700 28500 31900 32700 54400 84600 111000 150000 264000
2021-03-25 05:30 16.30 81600 270000 (2019) 26600 (2006) 72700 26700 28500 31900 32700 54400 84600 111000 150000 264000
2021-03-25 04:30 16.26 81300 270000 (2019) 26600 (2006) 72700 26700 28500 31900 32700 54400 84600 111000 150000 264000
2021-03-25 03:30 16.21 80900 270000 (2019) 26600 (2006) 72700 26700 28500 31900 32700 54400 84600 111000 150000 264000
2021-03-25 02:30 16.15 80400 270000 (2019) 26600 (2006) 72700 26700 28500 31900 32700 54400 84600 111000 150000 264000
2021-03-25 01:30 16.11 80100 270000 (2019) 26600 (2006) 72700 26700 28500 31900 32700 54400 84600 111000 150000 264000
2021-03-25 00:30 16.06 79700 270000 (2019) 26600 (2006) 72700 26700 28500 31900 32700 54400 84600 111000 150000 264000
2021-03-24 23:30 16.01 79300 258000 (2019) 26000 (2006) 70600 26100 27600 30100 32000 47800 88600 117000 151000 253000
2021-03-24 22:30 15.96 78900 258000 (2019) 26000 (2006) 70600 26100 27600 30100 32000 47800 88600 117000 151000 253000
2021-03-24 21:30 15.83 77800 258000 (2019) 26000 (2006) 70600 26100 27600 30100 32000 47800 88600 117000 151000 253000
2021-03-24 20:30 15.84 77900 258000 (2019) 26000 (2006) 70600 26100 27600 30100 32000 47800 88600 117000 151000 253000
2021-03-24 19:30 15.80 77600 258000 (2019) 26000 (2006) 70600 26100 27600 30100 32000 47800 88600 117000 151000 253000
2021-03-24 18:30 15.78 77400 258000 (2019) 26000 (2006) 70600 26100 27600 30100 32000 47800 88600 117000 151000 253000
2021-03-24 17:30 15.76 77300 258000 (2019) 26000 (2006) 70600 26100 27600 30100 32000 47800 88600 117000 151000 253000
2021-03-24 16:30 15.71 76900 258000 (2019) 26000 (2006) 70600 26100 27600 30100 32000 47800 88600 117000 151000 253000
2021-03-24 15:30 15.74 77100 258000 (2019) 26000 (2006) 70600 26100 27600 30100 32000 47800 88600 117000 151000 253000
2021-03-24 14:30 15.67 76500 258000 (2019) 26000 (2006) 70600 26100 27600 30100 32000 47800 88600 117000 151000 253000
2021-03-24 13:30 15.66 76500 258000 (2019) 26000 (2006) 70600 26100 27600 30100 32000 47800 88600 117000 151000 253000
2021-03-24 12:30 15.66 76500 258000 (2019) 26000 (2006) 70600 26100 27600 30100 32000 47800 88600 117000 151000 253000
2021-03-24 11:30 15.66 76500 258000 (2019) 26000 (2006) 70600 26100 27600 30100 32000 47800 88600 117000 151000 253000
2021-03-24 10:30 15.63 76200 258000 (2019) 26000 (2006) 70600 26100 27600 30100 32000 47800 88600 117000 151000 253000
2021-03-24 09:30 15.63 76200 258000 (2019) 26000 (2006) 70600 26100 27600 30100 32000 47800 88600 117000 151000 253000
2021-03-24 08:30 15.61 76100 258000 (2019) 26000 (2006) 70600 26100 27600 30100 32000 47800 88600 117000 151000 253000
2021-03-24 07:30 15.58 75800 258000 (2019) 26000 (2006) 70600 26100 27600 30100 32000 47800 88600 117000 151000 253000
2021-03-24 06:30 15.56 75700 258000 (2019) 26000 (2006) 70600 26100 27600 30100 32000 47800 88600 117000 151000 253000
2021-03-24 05:30 15.53 75500 258000 (2019) 26000 (2006) 70600 26100 27600 30100 32000 47800 88600 117000 151000 253000
2021-03-24 04:30 15.50 75200 258000 (2019) 26000 (2006) 70600 26100 27600 30100 32000 47800 88600 117000 151000 253000
2021-03-24 03:30 15.46 74900 258000 (2019) 26000 (2006) 70600 26100 27600 30100 32000 47800 88600 117000 151000 253000
2021-03-24 02:30 15.44 74800 258000 (2019) 26000 (2006) 70600 26100 27600 30100 32000 47800 88600 117000 151000 253000
2021-03-24 01:30 15.41 74500 258000 (2019) 26000 (2006) 70600 26100 27600 30100 32000 47800 88600 117000 151000 253000
2021-03-24 00:30 15.39 74400 258000 (2019) 26000 (2006) 70600 26100 27600 30100 32000 47800 88600 117000 151000 253000
2021-03-23 23:30 15.37 74200 247000 (2019) 25400 (2006) 69900 25400 25800 30300 32600 48200 91000 108000 150000 242000
2021-03-23 22:30 15.33 73900 247000 (2019) 25400 (2006) 69900 25400 25800 30300 32600 48200 91000 108000 150000 242000
2021-03-23 21:30 15.32 73800 247000 (2019) 25400 (2006) 69900 25400 25800 30300 32600 48200 91000 108000 150000 242000
2021-03-23 20:30 15.32 73800 247000 (2019) 25400 (2006) 69900 25400 25800 30300 32600 48200 91000 108000 150000 242000
2021-03-23 19:30 15.31 73800 247000 (2019) 25400 (2006) 69900 25400 25800 30300 32600 48200 91000 108000 150000 242000
2021-03-23 18:30 15.32 73800 247000 (2019) 25400 (2006) 69900 25400 25800 30300 32600 48200 91000 108000 150000 242000
2021-03-23 17:30 15.33 73900 247000 (2019) 25400 (2006) 69900 25400 25800 30300 32600 48200 91000 108000 150000 242000
2021-03-23 16:30 15.26 73400 247000 (2019) 25400 (2006) 69900 25400 25800 30300 32600 48200 91000 108000 150000 242000
2021-03-23 15:30 15.27 73500 247000 (2019) 25400 (2006) 69900 25400 25800 30300 32600 48200 91000 108000 150000 242000
2021-03-23 14:30 15.22 73100 247000 (2019) 25400 (2006) 69900 25400 25800 30300 32600 48200 91000 108000 150000 242000
2021-03-23 13:30 15.21 73000 247000 (2019) 25400 (2006) 69900 25400 25800 30300 32600 48200 91000 108000 150000 242000
2021-03-23 12:30 15.22 73100 247000 (2019) 25400 (2006) 69900 25400 25800 30300 32600 48200 91000 108000 150000 242000
2021-03-23 11:30 15.23 73200 247000 (2019) 25400 (2006) 69900 25400 25800 30300 32600 48200 91000 108000 150000 242000
2021-03-23 10:30 15.28 73500 247000 (2019) 25400 (2006) 69900 25400 25800 30300 32600 48200 91000 108000 150000 242000
2021-03-23 09:30 15.32 73800 247000 (2019) 25400 (2006) 69900 25400 25800 30300 32600 48200 91000 108000 150000 242000
2021-03-23 08:30 15.33 73900 247000 (2019) 25400 (2006) 69900 25400 25800 30300 32600 48200 91000 108000 150000 242000
2021-03-23 07:30 15.34 74000 247000 (2019) 25400 (2006) 69900 25400 25800 30300 32600 48200 91000 108000 150000 242000
2021-03-23 06:30 15.39 74400 247000 (2019) 25400 (2006) 69900 25400 25800 30300 32600 48200 91000 108000 150000 242000
2021-03-23 05:30 15.42 74600 247000 (2019) 25400 (2006) 69900 25400 25800 30300 32600 48200 91000 108000 150000 242000
2021-03-23 04:30 15.45 74800 247000 (2019) 25400 (2006) 69900 25400 25800 30300 32600 48200 91000 108000 150000 242000
2021-03-23 03:30 15.49 75100 247000 (2019) 25400 (2006) 69900 25400 25800 30300 32600 48200 91000 108000 150000 242000
2021-03-23 02:30 15.49 75100 247000 (2019) 25400 (2006) 69900 25400 25800 30300 32600 48200 91000 108000 150000 242000
2021-03-23 01:30 15.54 75500 247000 (2019) 25400 (2006) 69900 25400 25800 30300 32600 48200 91000 108000 150000 242000
2021-03-23 00:30 15.61 76100 247000 (2019) 25400 (2006) 69900 25400 25800 30300 32600 48200 91000 108000 150000 242000
2021-03-22 23:30 15.62 76200 240000 (2019) 24400 (2005) 69800 24400 25400 31700 33200 50400 88900 104000 147000 235000
2021-03-22 22:30 15.70 76800 240000 (2019) 24400 (2005) 69800 24400 25400 31700 33200 50400 88900 104000 147000 235000
2021-03-22 21:30 15.75 77200 240000 (2019) 24400 (2005) 69800 24400 25400 31700 33200 50400 88900 104000 147000 235000
2021-03-22 20:30 15.78 77400 240000 (2019) 24400 (2005) 69800 24400 25400 31700 33200 50400 88900 104000 147000 235000
2021-03-22 19:30 15.81 77700 240000 (2019) 24400 (2005) 69800 24400 25400 31700 33200 50400 88900 104000 147000 235000
2021-03-22 18:30 15.85 78000 240000 (2019) 24400 (2005) 69800 24400 25400 31700 33200 50400 88900 104000 147000 235000
2021-03-22 17:30 15.85 78000 240000 (2019) 24400 (2005) 69800 24400 25400 31700 33200 50400 88900 104000 147000 235000
2021-03-22 16:30 15.89 78300 240000 (2019) 24400 (2005) 69800 24400 25400 31700 33200 50400 88900 104000 147000 235000
2021-03-22 15:30 15.91 78400 240000 (2019) 24400 (2005) 69800 24400 25400 31700 33200 50400 88900 104000 147000 235000
2021-03-22 14:30 15.98 79000 240000 (2019) 24400 (2005) 69800 24400 25400 31700 33200 50400 88900 104000 147000 235000
2021-03-22 13:30 16.03 79400 240000 (2019) 24400 (2005) 69800 24400 25400 31700 33200 50400 88900 104000 147000 235000
2021-03-22 12:30 16.09 79900 240000 (2019) 24400 (2005) 69800 24400 25400 31700 33200 50400 88900 104000 147000 235000
2021-03-22 11:30 16.15 80400 240000 (2019) 24400 (2005) 69800 24400 25400 31700 33200 50400 88900 104000 147000 235000
2021-03-22 10:30 16.21 80900 240000 (2019) 24400 (2005) 69800 24400 25400 31700 33200 50400 88900 104000 147000 235000
2021-03-22 09:30 16.27 81400 240000 (2019) 24400 (2005) 69800 24400 25400 31700 33200 50400 88900 104000 147000 235000
2021-03-22 08:30 16.39 82400 240000 (2019) 24400 (2005) 69800 24400 25400 31700 33200 50400 88900 104000 147000 235000
2021-03-22 07:30 16.45 82900 240000 (2019) 24400 (2005) 69800 24400 25400 31700 33200 50400 88900 104000 147000 235000
2021-03-22 06:30 16.50 83300 240000 (2019) 24400 (2005) 69800 24400 25400 31700 33200 50400 88900 104000 147000 235000
2021-03-22 05:30 16.56 83800 240000 (2019) 24400 (2005) 69800 24400 25400 31700 33200 50400 88900 104000 147000 235000
2021-03-22 04:30 16.63 84400 240000 (2019) 24400 (2005) 69800 24400 25400 31700 33200 50400 88900 104000 147000 235000
2021-03-22 03:30 16.63 84400 240000 (2019) 24400 (2005) 69800 24400 25400 31700 33200 50400 88900 104000 147000 235000
2021-03-22 02:30 16.68 84800 240000 (2019) 24400 (2005) 69800 24400 25400 31700 33200 50400 88900 104000 147000 235000
2021-03-22 01:30 16.78 85700 240000 (2019) 24400 (2005) 69800 24400 25400 31700 33200 50400 88900 104000 147000 235000
2021-03-22 00:30 16.84 86200 240000 (2019) 24400 (2005) 69800 24400 25400 31700 33200 50400 88900 104000 147000 235000
2021-03-21 23:30 16.91 86800 235000 (2019) 24400 (2005) 70300 24400 25600 34100 35400 52800 81700 107000 155000 231000
2021-03-21 22:30 16.97 87300 235000 (2019) 24400 (2005) 70300 24400 25600 34100 35400 52800 81700 107000 155000 231000
2021-03-21 21:30 17.03 87800 235000 (2019) 24400 (2005) 70300 24400 25600 34100 35400 52800 81700 107000 155000 231000
2021-03-21 20:30 17.13 88700 235000 (2019) 24400 (2005) 70300 24400 25600 34100 35400 52800 81700 107000 155000 231000
2021-03-21 19:30 17.15 88900 235000 (2019) 24400 (2005) 70300 24400 25600 34100 35400 52800 81700 107000 155000 231000
2021-03-21 18:30 17.20 89300 235000 (2019) 24400 (2005) 70300 24400 25600 34100 35400 52800 81700 107000 155000 231000
2021-03-21 17:30 17.25 89800 235000 (2019) 24400 (2005) 70300 24400 25600 34100 35400 52800 81700 107000 155000 231000
2021-03-21 16:30 17.30 90200 235000 (2019) 24400 (2005) 70300 24400 25600 34100 35400 52800 81700 107000 155000 231000
2021-03-21 15:30 17.36 90700 235000 (2019) 24400 (2005) 70300 24400 25600 34100 35400 52800 81700 107000 155000 231000
2021-03-21 14:30 17.40 91100 235000 (2019) 24400 (2005) 70300 24400 25600 34100 35400 52800 81700 107000 155000 231000
2021-03-21 13:30 17.51 92000 235000 (2019) 24400 (2005) 70300 24400 25600 34100 35400 52800 81700 107000 155000 231000
2021-03-21 12:30 17.58 92600 235000 (2019) 24400 (2005) 70300 24400 25600 34100 35400 52800 81700 107000 155000 231000
2021-03-21 11:30 17.64 93100 235000 (2019) 24400 (2005) 70300 24400 25600 34100 35400 52800 81700 107000 155000 231000
2021-03-21 10:30 17.76 94100 235000 (2019) 24400 (2005) 70300 24400 25600 34100 35400 52800 81700 107000 155000 231000
2021-03-21 09:30 17.86 95000 235000 (2019) 24400 (2005) 70300 24400 25600 34100 35400 52800 81700 107000 155000 231000
2021-03-21 08:30 17.98 96000 235000 (2019) 24400 (2005) 70300 24400 25600 34100 35400 52800 81700 107000 155000 231000
2021-03-21 07:30 18.06 96700 235000 (2019) 24400 (2005) 70300 24400 25600 34100 35400 52800 81700 107000 155000 231000
2021-03-21 06:30 18.18 97700 235000 (2019) 24400 (2005) 70300 24400 25600 34100 35400 52800 81700 107000 155000 231000
2021-03-21 05:30 18.28 98600 235000 (2019) 24400 (2005) 70300 24400 25600 34100 35400 52800 81700 107000 155000 231000
2021-03-21 04:30 18.39 99600 235000 (2019) 24400 (2005) 70300 24400 25600 34100 35400 52800 81700 107000 155000 231000
2021-03-21 03:30 18.47 100000 235000 (2019) 24400 (2005) 70300 24400 25600 34100 35400 52800 81700 107000 155000 231000
2021-03-21 02:30 18.62 102000 235000 (2019) 24400 (2005) 70300 24400 25600 34100 35400 52800 81700 107000 155000 231000
2021-03-21 01:30 18.77 103000 235000 (2019) 24400 (2005) 70300 24400 25600 34100 35400 52800 81700 107000 155000 231000
2021-03-21 00:30 18.84 104000 235000 (2019) 24400 (2005) 70300 24400 25600 34100 35400 52800 81700 107000 155000 231000
2021-03-20 23:30 19.00 105000 234000 (2019) 24900 (2005) 71200 24900 25600 35700 37600 50400 100000 123000 157000 230000
2021-03-20 22:30 19.14 106000 234000 (2019) 24900 (2005) 71200 24900 25600 35700 37600 50400 100000 123000 157000 230000
2021-03-20 21:30 19.25 107000 234000 (2019) 24900 (2005) 71200 24900 25600 35700 37600 50400 100000 123000 157000 230000
2021-03-20 20:30 19.35 108000 234000 (2019) 24900 (2005) 71200 24900 25600 35700 37600 50400 100000 123000 157000 230000
2021-03-20 19:30 19.47 110000 234000 (2019) 24900 (2005) 71200 24900 25600 35700 37600 50400 100000 123000 157000 230000
2021-03-20 18:30 19.55 110000 234000 (2019) 24900 (2005) 71200 24900 25600 35700 37600 50400 100000 123000 157000 230000
2021-03-20 17:30 19.67 112000 234000 (2019) 24900 (2005) 71200 24900 25600 35700 37600 50400 100000 123000 157000 230000
2021-03-20 16:30 19.81 113000 234000 (2019) 24900 (2005) 71200 24900 25600 35700 37600 50400 100000 123000 157000 230000
2021-03-20 15:30 19.94 114000 234000 (2019) 24900 (2005) 71200 24900 25600 35700 37600 50400 100000 123000 157000 230000
2021-03-20 14:30 20.09 116000 234000 (2019) 24900 (2005) 71200 24900 25600 35700 37600 50400 100000 123000 157000 230000
2021-03-20 13:30 20.22 117000 234000 (2019) 24900 (2005) 71200 24900 25600 35700 37600 50400 100000 123000 157000 230000
2021-03-20 12:30 20.35 118000 234000 (2019) 24900 (2005) 71200 24900 25600 35700 37600 50400 100000 123000 157000 230000
2021-03-20 11:30 20.51 120000 234000 (2019) 24900 (2005) 71200 24900 25600 35700 37600 50400 100000 123000 157000 230000
2021-03-20 10:30 20.58 121000 234000 (2019) 24900 (2005) 71200 24900 25600 35700 37600 50400 100000 123000 157000 230000
2021-03-20 09:30 20.76 123000 234000 (2019) 24900 (2005) 71200 24900 25600 35700 37600 50400 100000 123000 157000 230000
2021-03-20 08:30 20.87 124000 234000 (2019) 24900 (2005) 71200 24900 25600 35700 37600 50400 100000 123000 157000 230000
2021-03-20 07:30 21.02 125000 234000 (2019) 24900 (2005) 71200 24900 25600 35700 37600 50400 100000 123000 157000 230000
2021-03-20 06:30 21.15 127000 234000 (2019) 24900 (2005) 71200 24900 25600 35700 37600 50400 100000 123000 157000 230000
2021-03-20 05:30 21.27 128000 234000 (2019) 24900 (2005) 71200 24900 25600 35700 37600 50400 100000 123000 157000 230000
2021-03-20 04:30 21.38 129000 234000 (2019) 24900 (2005) 71200 24900 25600 35700 37600 50400 100000 123000 157000 230000
2021-03-20 03:30 21.52 131000 234000 (2019) 24900 (2005) 71200 24900 25600 35700 37600 50400 100000 123000 157000 230000
2021-03-20 02:30 21.64 132000 234000 (2019) 24900 (2005) 71200 24900 25600 35700 37600 50400 100000 123000 157000 230000
2021-03-20 01:30 21.78 134000 234000 (2019) 24900 (2005) 71200 24900 25600 35700 37600 50400 100000 123000 157000 230000
2021-03-20 00:30 21.90 135000 234000 (2019) 24900 (2005) 71200 24900 25600 35700 37600 50400 100000 123000 157000 230000
2021-03-19 23:30 22.02 136000 238000 (2019) 25400 (2005) 72200 25400 25800 36100 37300 46400 115000 133000 148000 234000
2021-03-19 22:30 22.14 138000 238000 (2019) 25400 (2005) 72200 25400 25800 36100 37300 46400 115000 133000 148000 234000
2021-03-19 21:30 22.22 139000 238000 (2019) 25400 (2005) 72200 25400 25800 36100 37300 46400 115000 133000 148000 234000
2021-03-19 20:30 22.34 140000 238000 (2019) 25400 (2005) 72200 25400 25800 36100 37300 46400 115000 133000 148000 234000
2021-03-19 19:30 22.46 141000 238000 (2019) 25400 (2005) 72200 25400 25800 36100 37300 46400 115000 133000 148000 234000
2021-03-19 18:30 22.54 142000 238000 (2019) 25400 (2005) 72200 25400 25800 36100 37300 46400 115000 133000 148000 234000
2021-03-19 17:30 22.66 144000 238000 (2019) 25400 (2005) 72200 25400 25800 36100 37300 46400 115000 133000 148000 234000
2021-03-19 16:30 22.74 145000 238000 (2019) 25400 (2005) 72200 25400 25800 36100 37300 46400 115000 133000 148000 234000
2021-03-19 15:30 22.82 141000 238000 (2019) 25400 (2005) 72200 25400 25800 36100 37300 46400 115000 133000 148000 234000
2021-03-19 14:30 22.95 143000 238000 (2019) 25400 (2005) 72200 25400 25800 36100 37300 46400 115000 133000 148000 234000
2021-03-19 13:30 23.10 145000 238000 (2019) 25400 (2005) 72200 25400 25800 36100 37300 46400 115000 133000 148000 234000
2021-03-19 12:30 23.22 146000 238000 (2019) 25400 (2005) 72200 25400 25800 36100 37300 46400 115000 133000 148000 234000
2021-03-19 11:30 23.36 148000 238000 (2019) 25400 (2005) 72200 25400 25800 36100 37300 46400 115000 133000 148000 234000
2021-03-19 10:30 23.52 150000 238000 (2019) 25400 (2005) 72200 25400 25800 36100 37300 46400 115000 133000 148000 234000
2021-03-19 09:30 23.67 151000 238000 (2019) 25400 (2005) 72200 25400 25800 36100 37300 46400 115000 133000 148000 234000
2021-03-19 08:30 23.80 153000 238000 (2019) 25400 (2005) 72200 25400 25800 36100 37300 46400 115000 133000 148000 234000
2021-03-19 07:30 23.88 154000 238000 (2019) 25400 (2005) 72200 25400 25800 36100 37300 46400 115000 133000 148000 234000
2021-03-19 06:30 24.01 156000 238000 (2019) 25400 (2005) 72200 25400 25800 36100 37300 46400 115000 133000 148000 234000
2021-03-19 05:30 24.11 157000 238000 (2019) 25400 (2005) 72200 25400 25800 36100 37300 46400 115000 133000 148000 234000
2021-03-19 04:30 24.23 158000 238000 (2019) 25400 (2005) 72200 25400 25800 36100 37300 46400 115000 133000 148000 234000
2021-03-19 03:30 24.27 159000 238000 (2019) 25400 (2005) 72200 25400 25800 36100 37300 46400 115000 133000 148000 234000
2021-03-19 02:30 24.38 160000 238000 (2019) 25400 (2005) 72200 25400 25800 36100 37300 46400 115000 133000 148000 234000
2021-03-19 01:30 24.44 161000 238000 (2019) 25400 (2005) 72200 25400 25800 36100 37300 46400 115000 133000 148000 234000
2021-03-19 00:30 24.42 161000 238000 (2019) 25400 (2005) 72200 25400 25800 36100 37300 46400 115000 133000 148000 234000
2021-03-18 23:30 24.46 161000 244000 (2019) 23600 (2003) 72400 23700 25900 31300 38500 47100 96300 109000 170000 240000
2021-03-18 22:30 24.52 162000 244000 (2019) 23600 (2003) 72400 23700 25900 31300 38500 47100 96300 109000 170000 240000
2021-03-18 21:30 24.65 164000 244000 (2019) 23600 (2003) 72400 23700 25900 31300 38500 47100 96300 109000 170000 240000
2021-03-18 20:30 24.71 165000 244000 (2019) 23600 (2003) 72400 23700 25900 31300 38500 47100 96300 109000 170000 240000
2021-03-18 19:30 24.68 164000 244000 (2019) 23600 (2003) 72400 23700 25900 31300 38500 47100 96300 109000 170000 240000
2021-03-18 18:30 24.76 165000 244000 (2019) 23600 (2003) 72400 23700 25900 31300 38500 47100 96300 109000 170000 240000
2021-03-18 17:30 24.72 165000 244000 (2019) 23600 (2003) 72400 23700 25900 31300 38500 47100 96300 109000 170000 240000
2021-03-18 16:30 24.75 165000 244000 (2019) 23600 (2003) 72400 23700 25900 31300 38500 47100 96300 109000 170000 240000
2021-03-18 15:30 24.80 166000 244000 (2019) 23600 (2003) 72400 23700 25900 31300 38500 47100 96300 109000 170000 240000
2021-03-18 14:30 24.81 166000 244000 (2019) 23600 (2003) 72400 23700 25900 31300 38500 47100 96300 109000 170000 240000
2021-03-18 13:30 24.77 166000 244000 (2019) 23600 (2003) 72400 23700 25900 31300 38500 47100 96300 109000 170000 240000
2021-03-18 12:30 24.93 168000 244000 (2019) 23600 (2003) 72400 23700 25900 31300 38500 47100 96300 109000 170000 240000
2021-03-18 11:30 24.91 167000 244000 (2019) 23600 (2003) 72400 23700 25900 31300 38500 47100 96300 109000 170000 240000
2021-03-18 10:30 25.00 169000 244000 (2019) 23600 (2003) 72400 23700 25900 31300 38500 47100 96300 109000 170000 240000
2021-03-18 09:30 24.93 168000 244000 (2019) 23600 (2003) 72400 23700 25900 31300 38500 47100 96300 109000 170000 240000
2021-03-18 08:30 24.79 166000 244000 (2019) 23600 (2003) 72400 23700 25900 31300 38500 47100 96300 109000 170000 240000
2021-03-18 07:30 24.59 163000 244000 (2019) 23600 (2003) 72400 23700 25900 31300 38500 47100 96300 109000 170000 240000
2021-03-18 06:30 24.45 161000 244000 (2019) 23600 (2003) 72400 23700 25900 31300 38500 47100 96300 109000 170000 240000
2021-03-18 05:30 24.26 159000 244000 (2019) 23600 (2003) 72400 23700 25900 31300 38500 47100 96300 109000 170000 240000
2021-03-18 04:30 24.03 156000 244000 (2019) 23600 (2003) 72400 23700 25900 31300 38500 47100 96300 109000 170000 240000
2021-03-18 03:30 23.86 154000 244000 (2019) 23600 (2003) 72400 23700 25900 31300 38500 47100 96300 109000 170000 240000
2021-03-18 02:30 23.67 151000 244000 (2019) 23600 (2003) 72400 23700 25900 31300 38500 47100 96300 109000 170000 240000
2021-03-18 01:30 23.50 149000 244000 (2019) 23600 (2003) 72400 23700 25900 31300 38500 47100 96300 109000 170000 240000
2021-03-18 00:30 23.32 147000 244000 (2019) 23600 (2003) 72400 23700 25900 31300 38500 47100 96300 109000 170000 240000
2021-03-17 23:30 23.19 146000 245000 (2019) 22800 (2003) 72800 23000 26300 30100 39000 50700 78200 105000 177000 242000
2021-03-17 22:30 23.09 144000 245000 (2019) 22800 (2003) 72800 23000 26300 30100 39000 50700 78200 105000 177000 242000
2021-03-17 21:30 23.07 144000 245000 (2019) 22800 (2003) 72800 23000 26300 30100 39000 50700 78200 105000 177000 242000
2021-03-17 20:30 23.00 143000 245000 (2019) 22800 (2003) 72800 23000 26300 30100 39000 50700 78200 105000 177000 242000
2021-03-17 19:30 22.84 141000 245000 (2019) 22800 (2003) 72800 23000 26300 30100 39000 50700 78200 105000 177000 242000
2021-03-17 18:30 22.75 140000 245000 (2019) 22800 (2003) 72800 23000 26300 30100 39000 50700 78200 105000 177000 242000
2021-03-17 17:30 22.60 139000 245000 (2019) 22800 (2003) 72800 23000 26300 30100 39000 50700 78200 105000 177000 242000
2021-03-17 16:30 22.52 138000 245000 (2019) 22800 (2003) 72800 23000 26300 30100 39000 50700 78200 105000 177000 242000
2021-03-17 15:30 22.33 136000 245000 (2019) 22800 (2003) 72800 23000 26300 30100 39000 50700 78200 105000 177000 242000
2021-03-17 14:30 22.24 135000 245000 (2019) 22800 (2003) 72800 23000 26300 30100 39000 50700 78200 105000 177000 242000
2021-03-17 13:30 22.08 133000 245000 (2019) 22800 (2003) 72800 23000 26300 30100 39000 50700 78200 105000 177000 242000
2021-03-17 12:30 21.86 130000 245000 (2019) 22800 (2003) 72800 23000 26300 30100 39000 50700 78200 105000 177000 242000
2021-03-17 11:30 21.67 128000 245000 (2019) 22800 (2003) 72800 23000 26300 30100 39000 50700 78200 105000 177000 242000
2021-03-17 10:30 21.52 127000 245000 (2019) 22800 (2003) 72800 23000 26300 30100 39000 50700 78200 105000 177000 242000
2021-03-17 09:30 21.34 125000 245000 (2019) 22800 (2003) 72800 23000 26300 30100 39000 50700 78200 105000 177000 242000
2021-03-17 08:30 21.25 124000 245000 (2019) 22800 (2003) 72800 23000 26300 30100 39000 50700 78200 105000 177000 242000
2021-03-17 07:30 21.05 122000 245000 (2019) 22800 (2003) 72800 23000 26300 30100 39000 50700 78200 105000 177000 242000
2021-03-17 06:30 20.91 120000 245000 (2019) 22800 (2003) 72800 23000 26300 30100 39000 50700 78200 105000 177000 242000
2021-03-17 05:30 20.67 118000 245000 (2019) 22800 (2003) 72800 23000 26300 30100 39000 50700 78200 105000 177000 242000
2021-03-17 04:30 20.38 115000 245000 (2019) 22800 (2003) 72800 23000 26300 30100 39000 50700 78200 105000 177000 242000
2021-03-17 03:30 20.15 113000 245000 (2019) 22800 (2003) 72800 23000 26300 30100 39000 50700 78200 105000 177000 242000
2021-03-17 02:30 19.93 110000 245000 (2019) 22800 (2003) 72800 23000 26300 30100 39000 50700 78200 105000 177000 242000
2021-03-17 01:30 19.56 107000 245000 (2019) 22800 (2003) 72800 23000 26300 30100 39000 50700 78200 105000 177000 242000
2021-03-17 00:30 19.32 105000 245000 (2019) 22800 (2003) 72800 23000 26300 30100 39000 50700 78200 105000 177000 242000
2021-03-16 23:30 19.01 102000 237000 (2019) 23900 (2003) 73000 24000 26500 32600 39900 52400 71100 106000 190000 235000
2021-03-16 22:30 18.65 98600 237000 (2019) 23900 (2003) 73000 24000 26500 32600 39900 52400 71100 106000 190000 235000
2021-03-16 21:30 18.30 95600 237000 (2019) 23900 (2003) 73000 24000 26500 32600 39900 52400 71100 106000 190000 235000
2021-03-16 20:30 18.08 93700 237000 (2019) 23900 (2003) 73000 24000 26500 32600 39900 52400 71100 106000 190000 235000
2021-03-16 19:30 17.91 92200 237000 (2019) 23900 (2003) 73000 24000 26500 32600 39900 52400 71100 106000 190000 235000
2021-03-16 18:30 17.67 90200 237000 (2019) 23900 (2003) 73000 24000 26500 32600 39900 52400 71100 106000 190000 235000
2021-03-16 17:30 17.49 88600 237000 (2019) 23900 (2003) 73000 24000 26500 32600 39900 52400 71100 106000 190000 235000
2021-03-16 16:30 17.34 87300 237000 (2019) 23900 (2003) 73000 24000 26500 32600 39900 52400 71100 106000 190000 235000
2021-03-16 15:30 17.17 85800 237000 (2019) 23900 (2003) 73000 24000 26500 32600 39900 52400 71100 106000 190000 235000
2021-03-16 14:30 17.09 85200 237000 (2019) 23900 (2003) 73000 24000 26500 32600 39900 52400 71100 106000 190000 235000
2021-03-16 13:30 16.99 84300 237000 (2019) 23900 (2003) 73000 24000 26500 32600 39900 52400 71100 106000 190000 235000
2021-03-16 12:30 16.85 83100 237000 (2019) 23900 (2003) 73000 24000 26500 32600 39900 52400 71100 106000 190000 235000
2021-03-16 11:30 16.69 81800 237000 (2019) 23900 (2003) 73000 24000 26500 32600 39900 52400 71100 106000 190000 235000
2021-03-16 10:30 16.51 80300 237000 (2019) 23900 (2003) 73000 24000 26500 32600 39900 52400 71100 106000 190000 235000
2021-03-16 09:30 16.31 78700 237000 (2019) 23900 (2003) 73000 24000 26500 32600 39900 52400 71100 106000 190000 235000
2021-03-16 08:30 16.10 77000 237000 (2019) 23900 (2003) 73000 24000 26500 32600 39900 52400 71100 106000 190000 235000
2021-03-16 07:30 15.83 74900 237000 (2019) 23900 (2003) 73000 24000 26500 32600 39900 52400 71100 106000 190000 235000
2021-03-16 06:30 15.54 72700 237000 (2019) 23900 (2003) 73000 24000 26500 32600 39900 52400 71100 106000 190000 235000
2021-03-16 05:30 15.23 70400 237000 (2019) 23900 (2003) 73000 24000 26500 32600 39900 52400 71100 106000 190000 235000
2021-03-16 04:30 14.90 68000 237000 (2019) 23900 (2003) 73000 24000 26500 32600 39900 52400 71100 106000 190000 235000
2021-03-16 03:30 14.55 65500 237000 (2019) 23900 (2003) 73000 24000 26500 32600 39900 52400 71100 106000 190000 235000
2021-03-16 02:30 14.19 63100 237000 (2019) 23900 (2003) 73000 24000 26500 32600 39900 52400 71100 106000 190000 235000
2021-03-16 01:30 13.85 60800 237000 (2019) 23900 (2003) 73000 24000 26500 32600 39900 52400 71100 106000 190000 235000
2021-03-16 00:30 13.53 58800 237000 (2019) 23900 (2003) 73000 24000 26500 32600 39900 52400 71100 106000 190000 235000
2021-03-15 23:30 13.25 57000 218000 (2019) 24300 (2003) 71800 24400 26500 37600 39000 55300 80500 104000 205000 218000
2021-03-15 22:30 13.00 55500 218000 (2019) 24300 (2003) 71800 24400 26500 37600 39000 55300 80500 104000 205000 218000
2021-03-15 21:30 12.80 54300 218000 (2019) 24300 (2003) 71800 24400 26500 37600 39000 55300 80500 104000 205000 218000
2021-03-15 20:30 12.64 53300 218000 (2019) 24300 (2003) 71800 24400 26500 37600 39000 55300 80500 104000 205000 218000
2021-03-15 19:30 12.51 52600 218000 (2019) 24300 (2003) 71800 24400 26500 37600 39000 55300 80500 104000 205000 218000
2021-03-15 18:30 12.37 51700 218000 (2019) 24300 (2003) 71800 24400 26500 37600 39000 55300 80500 104000 205000 218000
2021-03-15 17:30 12.26 51100 218000 (2019) 24300 (2003) 71800 24400 26500 37600 39000 55300 80500 104000 205000 218000
2021-03-15 16:30 12.17 50600 218000 (2019) 24300 (2003) 71800 24400 26500 37600 39000 55300 80500 104000 205000 218000
2021-03-15 15:30 12.09 50200 218000 (2019) 24300 (2003) 71800 24400 26500 37600 39000 55300 80500 104000 205000 218000
2021-03-15 14:30 11.98 49500 218000 (2019) 24300 (2003) 71800 24400 26500 37600 39000 55300 80500 104000 205000 218000
2021-03-15 13:30 11.91 49200 218000 (2019) 24300 (2003) 71800 24400 26500 37600 39000 55300 80500 104000 205000 218000
2021-03-15 12:30 11.85 48800 218000 (2019) 24300 (2003) 71800 24400 26500 37600 39000 55300 80500 104000 205000 218000
2021-03-15 11:30 11.76 48300 218000 (2019) 24300 (2003) 71800 24400 26500 37600 39000 55300 80500 104000 205000 218000
2021-03-15 10:30 11.71 48100 218000 (2019) 24300 (2003) 71800 24400 26500 37600 39000 55300 80500 104000 205000 218000
2021-03-15 09:30 11.65 47700 218000 (2019) 24300 (2003) 71800 24400 26500 37600 39000 55300 80500 104000 205000 218000
2021-03-15 08:30 11.60 47500 218000 (2019) 24300 (2003) 71800 24400 26500 37600 39000 55300 80500 104000 205000 218000
2021-03-15 07:30 11.52 47000 218000 (2019) 24300 (2003) 71800 24400 26500 37600 39000 55300 80500 104000 205000 218000
2021-03-15 06:30 11.45 46700 218000 (2019) 24300 (2003) 71800 24400 26500 37600 39000 55300 80500 104000 205000 218000
2021-03-15 05:30 11.37 46200 218000 (2019) 24300 (2003) 71800 24400 26500 37600 39000 55300 80500 104000 205000 218000
2021-03-15 04:30 11.33 46000 218000 (2019) 24300 (2003) 71800 24400 26500 37600 39000 55300 80500 104000 205000 218000
2021-03-15 03:30 11.27 45700 218000 (2019) 24300 (2003) 71800 24400 26500 37600 39000 55300 80500 104000 205000 218000
2021-03-15 02:30 11.19 45300 218000 (2019) 24300 (2003) 71800 24400 26500 37600 39000 55300 80500 104000 205000 218000
2021-03-15 01:30 11.14 45100 218000 (2019) 24300 (2003) 71800 24400 26500 37600 39000 55300 80500 104000 205000 218000
2021-03-15 00:30 11.09 44800 218000 (2019) 24300 (2003) 71800 24400 26500 37600 39000 55300 80500 104000 205000 218000
2021-03-14 23:30 11.00 44300 227000 (2010) 22800 (2003) 70500 23000 26800 35500 37200 56600 83700 100000 170000 224000
2021-03-14 22:30 11.02 44400 227000 (2010) 22800 (2003) 70500 23000 26800 35500 37200 56600 83700 100000 170000 224000
2021-03-14 21:30 11.04 44500 227000 (2010) 22800 (2003) 70500 23000 26800 35500 37200 56600 83700 100000 170000 224000
2021-03-14 20:30 10.98 44200 227000 (2010) 22800 (2003) 70500 23000 26800 35500 37200 56600 83700 100000 170000 224000
2021-03-14 19:30 10.98 44200 227000 (2010) 22800 (2003) 70500 23000 26800 35500 37200 56600 83700 100000 170000 224000
2021-03-14 18:30 11.00 44300 227000 (2010) 22800 (2003) 70500 23000 26800 35500 37200 56600 83700 100000 170000 224000
2021-03-14 17:30 11.00 44300 227000 (2010) 22800 (2003) 70500 23000 26800 35500 37200 56600 83700 100000 170000 224000
2021-03-14 16:30 10.99 44300 227000 (2010) 22800 (2003) 70500 23000 26800 35500 37200 56600 83700 100000 170000 224000
2021-03-14 15:30 10.99 44300 227000 (2010) 22800 (2003) 70500 23000 26800 35500 37200 56600 83700 100000 170000 224000
2021-03-14 14:30 11.01 44400 227000 (2010) 22800 (2003) 70500 23000 26800 35500 37200 56600 83700 100000 170000 224000
2021-03-14 13:30 11.01 44400 227000 (2010) 22800 (2003) 70500 23000 26800 35500 37200 56600 83700 100000 170000 224000
2021-03-14 12:30 11.05 44600 227000 (2010) 22800 (2003) 70500 23000 26800 35500 37200 56600 83700 100000 170000 224000
2021-03-14 11:30 11.03 44500 227000 (2010) 22800 (2003) 70500 23000 26800 35500 37200 56600 83700 100000 170000 224000
2021-03-14 10:30 11.05 44600 227000 (2010) 22800 (2003) 70500 23000 26800 35500 37200 56600 83700 100000 170000 224000
2021-03-14 09:30 11.07 44700 227000 (2010) 22800 (2003) 70500 23000 26800 35500 37200 56600 83700 100000 170000 224000
2021-03-14 08:30 11.07 44700 227000 (2010) 22800 (2003) 70500 23000 26800 35500 37200 56600 83700 100000 170000 224000
2021-03-14 07:30 11.09 44800 227000 (2010) 22800 (2003) 70500 23000 26800 35500 37200 56600 83700 100000 170000 224000
2021-03-14 06:30 11.10 44800 227000 (2010) 22800 (2003) 70500 23000 26800 35500 37200 56600 83700 100000 170000 224000
2021-03-14 05:30 11.09 44800 227000 (2010) 22800 (2003) 70500 23000 26800 35500 37200 56600 83700 100000 170000 224000
2021-03-14 04:30 11.11 44900 227000 (2010) 22800 (2003) 70500 23000 26800 35500 37200 56600 83700 100000 170000 224000
2021-03-14 03:30 11.13 45000 227000 (2010) 22800 (2003) 70500 23000 26800 35500 37200 56600 83700 100000 170000 224000
2021-03-14 01:30 11.12 44900 227000 (2010) 22800 (2003) 70500 23000 26800 35500 37200 56600 83700 100000 170000 224000
2021-03-14 00:30 11.13 45000 227000 (2010) 22800 (2003) 70500 23000 26800 35500 37200 56600 83700 100000 170000 224000
2021-03-13 23:30 11.15 45100 213000 (2010) 22200 (2003) 67800 22400 27000 31200 35300 56000 70300 107000 143000 210000
2021-03-13 22:30 11.15 45100 213000 (2010) 22200 (2003) 67800 22400 27000 31200 35300 56000 70300 107000 143000 210000
2021-03-13 21:30 11.15 45100 213000 (2010) 22200 (2003) 67800 22400 27000 31200 35300 56000 70300 107000 143000 210000
2021-03-13 20:30 11.14 45100 213000 (2010) 22200 (2003) 67800 22400 27000 31200 35300 56000 70300 107000 143000 210000
2021-03-13 19:30 11.15 45100 213000 (2010) 22200 (2003) 67800 22400 27000 31200 35300 56000 70300 107000 143000 210000
2021-03-13 18:30 11.17 45200 213000 (2010) 22200 (2003) 67800 22400 27000 31200 35300 56000 70300 107000 143000 210000
2021-03-13 17:30 11.15 45100 213000 (2010) 22200 (2003) 67800 22400 27000 31200 35300 56000 70300 107000 143000 210000
2021-03-13 16:30 11.14 45100 213000 (2010) 22200 (2003) 67800 22400 27000 31200 35300 56000 70300 107000 143000 210000
2021-03-13 15:30 11.10 44800 213000 (2010) 22200 (2003) 67800 22400 27000 31200 35300 56000 70300 107000 143000 210000
2021-03-13 14:30 11.11 44900 213000 (2010) 22200 (2003) 67800 22400 27000 31200 35300 56000 70300 107000 143000 210000
2021-03-13 13:30 11.09 44800 213000 (2010) 22200 (2003) 67800 22400 27000 31200 35300 56000 70300 107000 143000 210000
2021-03-13 12:30 11.09 44800 213000 (2010) 22200 (2003) 67800 22400 27000 31200 35300 56000 70300 107000 143000 210000
2021-03-13 11:30 11.10 44800 213000 (2010) 22200 (2003) 67800 22400 27000 31200 35300 56000 70300 107000 143000 210000
2021-03-13 10:30 11.14 45100 213000 (2010) 22200 (2003) 67800 22400 27000 31200 35300 56000 70300 107000 143000 210000
2021-03-13 09:30 11.13 45000 213000 (2010) 22200 (2003) 67800 22400 27000 31200 35300 56000 70300 107000 143000 210000
2021-03-13 08:30 11.13 45000 213000 (2010) 22200 (2003) 67800 22400 27000 31200 35300 56000 70300 107000 143000 210000
2021-03-13 07:30 11.16 45200 213000 (2010) 22200 (2003) 67800 22400 27000 31200 35300 56000 70300 107000 143000 210000
2021-03-13 06:30 11.16 45200 213000 (2010) 22200 (2003) 67800 22400 27000 31200 35300 56000 70300 107000 143000 210000
2021-03-13 05:30 11.17 45200 213000 (2010) 22200 (2003) 67800 22400 27000 31200 35300 56000 70300 107000 143000 210000
2021-03-13 04:30 11.17 45200 213000 (2010) 22200 (2003) 67800 22400 27000 31200 35300 56000 70300 107000 143000 210000
2021-03-13 03:30 11.18 45300 213000 (2010) 22200 (2003) 67800 22400 27000 31200 35300 56000 70300 107000 143000 210000
2021-03-13 02:30 11.18 45300 213000 (2010) 22200 (2003) 67800 22400 27000 31200 35300 56000 70300 107000 143000 210000
2021-03-13 01:30 11.18 45300 213000 (2010) 22200 (2003) 67800 22400 27000 31200 35300 56000 70300 107000 143000 210000
2021-03-13 00:30 11.19 45300 213000 (2010) 22200 (2003) 67800 22400 27000 31200 35300 56000 70300 107000 143000 210000
2021-03-12 23:30 11.19 45300 193000 (2010) 22400 (2003) 69200 22600 27400 31100 33300 54600 87000 126000 147000 191000
2021-03-12 22:30 11.18 45300 193000 (2010) 22400 (2003) 69200 22600 27400 31100 33300 54600 87000 126000 147000 191000
2021-03-12 21:30 11.18 45300 193000 (2010) 22400 (2003) 69200 22600 27400 31100 33300 54600 87000 126000 147000 191000
2021-03-12 20:30 11.17 45200 193000 (2010) 22400 (2003) 69200 22600 27400 31100 33300 54600 87000 126000 147000 191000
2021-03-12 19:30 11.18 45300 193000 (2010) 22400 (2003) 69200 22600 27400 31100 33300 54600 87000 126000 147000 191000
2021-03-12 18:30 11.19 45300 193000 (2010) 22400 (2003) 69200 22600 27400 31100 33300 54600 87000 126000 147000 191000
2021-03-12 17:30 11.18 45300 193000 (2010) 22400 (2003) 69200 22600 27400 31100 33300 54600 87000 126000 147000 191000
2021-03-12 16:30 11.16 45200 193000 (2010) 22400 (2003) 69200 22600 27400 31100 33300 54600 87000 126000 147000 191000
2021-03-12 15:30 11.17 45200 193000 (2010) 22400 (2003) 69200 22600 27400 31100 33300 54600 87000 126000 147000 191000
2021-03-12 14:30 11.14 45100 193000 (2010) 22400 (2003) 69200 22600 27400 31100 33300 54600 87000 126000 147000 191000
2021-03-12 13:30 11.15 45100 193000 (2010) 22400 (2003) 69200 22600 27400 31100 33300 54600 87000 126000 147000 191000
2021-03-12 12:30 11.17 45200 193000 (2010) 22400 (2003) 69200 22600 27400 31100 33300 54600 87000 126000 147000 191000
2021-03-12 11:30 11.16 45200 193000 (2010) 22400 (2003) 69200 22600 27400 31100 33300 54600 87000 126000 147000 191000
2021-03-12 10:30 11.16 45200 193000 (2010) 22400 (2003) 69200 22600 27400 31100 33300 54600 87000 126000 147000 191000
2021-03-12 09:30 11.17 45200 193000 (2010) 22400 (2003) 69200 22600 27400 31100 33300 54600 87000 126000 147000 191000
2021-03-12 08:30 11.19 45300 193000 (2010) 22400 (2003) 69200 22600 27400 31100 33300 54600 87000 126000 147000 191000
2021-03-12 07:30 11.20 45400 193000 (2010) 22400 (2003) 69200 22600 27400 31100 33300 54600 87000 126000 147000 191000
2021-03-12 06:30 11.22 45500 193000 (2010) 22400 (2003) 69200 22600 27400 31100 33300 54600 87000 126000 147000 191000
2021-03-12 05:30 11.23 45500 193000 (2010) 22400 (2003) 69200 22600 27400 31100 33300 54600 87000 126000 147000 191000
2021-03-12 04:30 11.26 45700 193000 (2010) 22400 (2003) 69200 22600 27400 31100 33300 54600 87000 126000 147000 191000
2021-03-12 03:30 11.26 45700 193000 (2010) 22400 (2003) 69200 22600 27400 31100 33300 54600 87000 126000 147000 191000
2021-03-12 02:30 11.28 45800 193000 (2010) 22400 (2003) 69200 22600 27400 31100 33300 54600 87000 126000 147000 191000
2021-03-12 01:30 11.28 45800 193000 (2010) 22400 (2003) 69200 22600 27400 31100 33300 54600 87000 126000 147000 191000
2021-03-12 00:30 11.29 45800 193000 (2010) 22400 (2003) 69200 22600 27400 31100 33300 54600 87000 126000 147000 191000
2021-03-11 23:30 11.29 45800 158000 (2010) 23100 (2003) 69700 23300 28000 29500 32600 56500 92300 130000 151000 158000
2021-03-11 22:30 11.29 45800 158000 (2010) 23100 (2003) 69700 23300 28000 29500 32600 56500 92300 130000 151000 158000
2021-03-11 21:30 11.30 45900 158000 (2010) 23100 (2003) 69700 23300 28000 29500 32600 56500 92300 130000 151000 158000
2021-03-11 20:30 11.30 45900 158000 (2010) 23100 (2003) 69700 23300 28000 29500 32600 56500 92300 130000 151000 158000
2021-03-11 19:30 11.30 45900 158000 (2010) 23100 (2003) 69700 23300 28000 29500 32600 56500 92300 130000 151000 158000
2021-03-11 18:30 11.31 45900 158000 (2010) 23100 (2003) 69700 23300 28000 29500 32600 56500 92300 130000 151000 158000
2021-03-11 17:30 11.33 46000 158000 (2010) 23100 (2003) 69700 23300 28000 29500 32600 56500 92300 130000 151000 158000
2021-03-11 16:30 11.33 46000 158000 (2010) 23100 (2003) 69700 23300 28000 29500 32600 56500 92300 130000 151000 158000
2021-03-11 15:30 11.34 46100 158000 (2010) 23100 (2003) 69700 23300 28000 29500 32600 56500 92300 130000 151000 158000
2021-03-11 14:30 11.33 46000 158000 (2010) 23100 (2003) 69700 23300 28000 29500 32600 56500 92300 130000 151000 158000
2021-03-11 13:30 11.38 46300 158000 (2010) 23100 (2003) 69700 23300 28000 29500 32600 56500 92300 130000 151000 158000
2021-03-11 12:30 11.39 46400 158000 (2010) 23100 (2003) 69700 23300 28000 29500 32600 56500 92300 130000 151000 158000
2021-03-11 11:30 11.41 46500 158000 (2010) 23100 (2003) 69700 23300 28000 29500 32600 56500 92300 130000 151000 158000
2021-03-11 10:30 11.43 46600 158000 (2010) 23100 (2003) 69700 23300 28000 29500 32600 56500 92300 130000 151000 158000
2021-03-11 09:30 11.44 46600 158000 (2010) 23100 (2003) 69700 23300 28000 29500 32600 56500 92300 130000 151000 158000
2021-03-11 08:30 11.46 46700 158000 (2010) 23100 (2003) 69700 23300 28000 29500 32600 56500 92300 130000 151000 158000
2021-03-11 07:30 11.47 46800 158000 (2010) 23100 (2003) 69700 23300 28000 29500 32600 56500 92300 130000 151000 158000
2021-03-11 06:30 11.47 46800 158000 (2010) 23100 (2003) 69700 23300 28000 29500 32600 56500 92300 130000 151000 158000
2021-03-11 05:30 11.47 46800 158000 (2010) 23100 (2003) 69700 23300 28000 29500 32600 56500 92300 130000 151000 158000
2021-03-11 04:30 11.48 46800 158000 (2010) 23100 (2003) 69700 23300 28000 29500 32600 56500 92300 130000 151000 158000
2021-03-11 03:30 11.50 46900 158000 (2010) 23100 (2003) 69700 23300 28000 29500 32600 56500 92300 130000 151000 158000
2021-03-11 02:30 11.53 47100 158000 (2010) 23100 (2003) 69700 23300 28000 29500 32600 56500 92300 130000 151000 158000
2021-03-11 01:30 11.55 47200 158000 (2010) 23100 (2003) 69700 23300 28000 29500 32600 56500 92300 130000 151000 158000
2021-03-11 00:30 11.58 47400 158000 (2010) 23100 (2003) 69700 23300 28000 29500 32600 56500 92300 130000 151000 158000
2021-03-10 23:30 11.57 47300 126000 (2020) 23400 (2003) 61900 23500 26600 28700 31200 58800 85100 90000 122000 126000
2021-03-10 22:30 11.54 47100 126000 (2020) 23400 (2003) 61900 23500 26600 28700 31200 58800 85100 90000 122000 126000
2021-03-10 21:30 11.48 46800 126000 (2020) 23400 (2003) 61900 23500 26600 28700 31200 58800 85100 90000 122000 126000
2021-03-10 20:30 11.50 46900 126000 (2020) 23400 (2003) 61900 23500 26600 28700 31200 58800 85100 90000 122000 126000
2021-03-10 19:30 11.54 47100 126000 (2020) 23400 (2003) 61900 23500 26600 28700 31200 58800 85100 90000 122000 126000
2021-03-10 18:30 11.56 47300 126000 (2020) 23400 (2003) 61900 23500 26600 28700 31200 58800 85100 90000 122000 126000
2021-03-10 17:30 11.63 47600 126000 (2020) 23400 (2003) 61900 23500 26600 28700 31200 58800 85100 90000 122000 126000
2021-03-10 16:30 11.57 47300 126000 (2020) 23400 (2003) 61900 23500 26600 28700 31200 58800 85100 90000 122000 126000
2021-03-10 15:30 11.59 47400 126000 (2020) 23400 (2003) 61900 23500 26600 28700 31200 58800 85100 90000 122000 126000
2021-03-10 14:30 11.54 47100 126000 (2020) 23400 (2003) 61900 23500 26600 28700 31200 58800 85100 90000 122000 126000
2021-03-10 13:30 11.56 47300 126000 (2020) 23400 (2003) 61900 23500 26600 28700 31200 58800 85100 90000 122000 126000
2021-03-10 12:30 11.60 47500 126000 (2020) 23400 (2003) 61900 23500 26600 28700 31200 58800 85100 90000 122000 126000
2021-03-10 11:30 11.55 47200 126000 (2020) 23400 (2003) 61900 23500 26600 28700 31200 58800 85100 90000 122000 126000
2021-03-10 10:30 11.62 47600 126000 (2020) 23400 (2003) 61900 23500 26600 28700 31200 58800 85100 90000 122000 126000
2021-03-10 09:30 11.56 47300 126000 (2020) 23400 (2003) 61900 23500 26600 28700 31200 58800 85100 90000 122000 126000
2021-03-10 08:30 11.57 47300 126000 (2020) 23400 (2003) 61900 23500 26600 28700 31200 58800 85100 90000 122000 126000
2021-03-10 07:30 11.59 47400 126000 (2020) 23400 (2003) 61900 23500 26600 28700 31200 58800 85100 90000 122000 126000
2021-03-10 06:30 11.59 47400 126000 (2020) 23400 (2003) 61900 23500 26600 28700 31200 58800 85100 90000 122000 126000
2021-03-10 05:30 11.62 47600 126000 (2020) 23400 (2003) 61900 23500 26600 28700 31200 58800 85100 90000 122000 126000
2021-03-10 04:30 11.65 47700 126000 (2020) 23400 (2003) 61900 23500 26600 28700 31200 58800 85100 90000 122000 126000
2021-03-10 03:30 11.67 47800 126000 (2020) 23400 (2003) 61900 23500 26600 28700 31200 58800 85100 90000 122000 126000
2021-03-10 02:30 11.68 47900 126000 (2020) 23400 (2003) 61900 23500 26600 28700 31200 58800 85100 90000 122000 126000
2021-03-10 01:30 11.70 48000 126000 (2020) 23400 (2003) 61900 23500 26600 28700 31200 58800 85100 90000 122000 126000
2021-03-10 00:30 11.71 48100 126000 (2020) 23400 (2003) 61900 23500 26600 28700 31200 58800 85100 90000 122000 126000
2021-03-09 23:30 11.73 48200 103000 (2010) 23300 (2003) 55000 23400 25500 28600 30700 54900 77200 79800 89600 102000
2021-03-09 22:30 11.77 48400 103000 (2010) 23300 (2003) 55000 23400 25500 28600 30700 54900 77200 79800 89600 102000
2021-03-09 21:30 11.78 48400 103000 (2010) 23300 (2003) 55000 23400 25500 28600 30700 54900 77200 79800 89600 102000
2021-03-09 20:30 11.80 48500 103000 (2010) 23300 (2003) 55000 23400 25500 28600 30700 54900 77200 79800 89600 102000
2021-03-09 19:30 11.78 48400 103000 (2010) 23300 (2003) 55000 23400 25500 28600 30700 54900 77200 79800 89600 102000
2021-03-09 18:30 11.82 48700 103000 (2010) 23300 (2003) 55000 23400 25500 28600 30700 54900 77200 79800 89600 102000
2021-03-09 17:30 11.81 48600 103000 (2010) 23300 (2003) 55000 23400 25500 28600 30700 54900 77200 79800 89600 102000
2021-03-09 16:30 11.86 48900 103000 (2010) 23300 (2003) 55000 23400 25500 28600 30700 54900 77200 79800 89600 102000
2021-03-09 15:30 11.85 48800 103000 (2010) 23300 (2003) 55000 23400 25500 28600 30700 54900 77200 79800 89600 102000
2021-03-09 14:30 11.84 48800 103000 (2010) 23300 (2003) 55000 23400 25500 28600 30700 54900 77200 79800 89600 102000
2021-03-09 13:30 11.82 48700 103000 (2010) 23300 (2003) 55000 23400 25500 28600 30700 54900 77200 79800 89600 102000
2021-03-09 12:30 11.82 48700 103000 (2010) 23300 (2003) 55000 23400 25500 28600 30700 54900 77200 79800 89600 102000
2021-03-09 11:30 11.82 48700 103000 (2010) 23300 (2003) 55000 23400 25500 28600 30700 54900 77200 79800 89600 102000
2021-03-09 10:30 11.80 48500 103000 (2010) 23300 (2003) 55000 23400 25500 28600 30700 54900 77200 79800 89600 102000
2021-03-09 09:30 11.81 48600 103000 (2010) 23300 (2003) 55000 23400 25500 28600 30700 54900 77200 79800 89600 102000
2021-03-09 08:30 11.84 48800 103000 (2010) 23300 (2003) 55000 23400 25500 28600 30700 54900 77200 79800 89600 102000
2021-03-09 07:30 11.88 49000 103000 (2010) 23300 (2003) 55000 23400 25500 28600 30700 54900 77200 79800 89600 102000
2021-03-09 06:30 11.89 49000 103000 (2010) 23300 (2003) 55000 23400 25500 28600 30700 54900 77200 79800 89600 102000
2021-03-09 05:30 11.90 49100 103000 (2010) 23300 (2003) 55000 23400 25500 28600 30700 54900 77200 79800 89600 102000
2021-03-09 04:30 11.91 49200 103000 (2010) 23300 (2003) 55000 23400 25500 28600 30700 54900 77200 79800 89600 102000
2021-03-09 03:30 11.96 49400 103000 (2010) 23300 (2003) 55000 23400 25500 28600 30700 54900 77200 79800 89600 102000
2021-03-09 02:30 11.92 49200 103000 (2010) 23300 (2003) 55000 23400 25500 28600 30700 54900 77200 79800 89600 102000
2021-03-09 01:30 11.98 49500 103000 (2010) 23300 (2003) 55000 23400 25500 28600 30700 54900 77200 79800 89600 102000
2021-03-09 00:30 12.00 49700 103000 (2010) 23300 (2003) 55000 23400 25500 28600 30700 54900 77200 79800 89600 102000
2021-03-08 23:30 12.00 49700 109000 (2004) 22900 (2003) 52800 23000 25400 28200 29000 48700 73200 76900 101000 109000
2021-03-08 22:30 11.98 49500 109000 (2004) 22900 (2003) 52800 23000 25400 28200 29000 48700 73200 76900 101000 109000
2021-03-08 21:30 12.02 49800 109000 (2004) 22900 (2003) 52800 23000 25400 28200 29000 48700 73200 76900 101000 109000
2021-03-08 20:30 12.02 49800 109000 (2004) 22900 (2003) 52800 23000 25400 28200 29000 48700 73200 76900 101000 109000
2021-03-08 19:30 12.03 49800 109000 (2004) 22900 (2003) 52800 23000 25400 28200 29000 48700 73200 76900 101000 109000
2021-03-08 18:30 12.04 49900 109000 (2004) 22900 (2003) 52800 23000 25400 28200 29000 48700 73200 76900 101000 109000
2021-03-08 17:30 12.01 49700 109000 (2004) 22900 (2003) 52800 23000 25400 28200 29000 48700 73200 76900 101000 109000
2021-03-08 16:30 11.99 49600 109000 (2004) 22900 (2003) 52800 23000 25400 28200 29000 48700 73200 76900 101000 109000
2021-03-08 15:30 11.95 49400 109000 (2004) 22900 (2003) 52800 23000 25400 28200 29000 48700 73200 76900 101000 109000
2021-03-08 14:30 12.00 49700 109000 (2004) 22900 (2003) 52800 23000 25400 28200 29000 48700 73200 76900 101000 109000
2021-03-08 13:30 11.98 49500 109000 (2004) 22900 (2003) 52800 23000 25400 28200 29000 48700 73200 76900 101000 109000
2021-03-08 12:30 11.97 49500 109000 (2004) 22900 (2003) 52800 23000 25400 28200 29000 48700 73200 76900 101000 109000
2021-03-08 11:30 12.00 49700 109000 (2004) 22900 (2003) 52800 23000 25400 28200 29000 48700 73200 76900 101000 109000
2021-03-08 10:30 12.00 49700 109000 (2004) 22900 (2003) 52800 23000 25400 28200 29000 48700 73200 76900 101000 109000
2021-03-08 09:30 12.01 49700 109000 (2004) 22900 (2003) 52800 23000 25400 28200 29000 48700 73200 76900 101000 109000
2021-03-08 08:30 12.05 49900 109000 (2004) 22900 (2003) 52800 23000 25400 28200 29000 48700 73200 76900 101000 109000
2021-03-08 07:30 12.05 49900 109000 (2004) 22900 (2003) 52800 23000 25400 28200 29000 48700 73200 76900 101000 109000
2021-03-08 06:30 12.09 50200 109000 (2004) 22900 (2003) 52800 23000 25400 28200 29000 48700 73200 76900 101000 109000
2021-03-08 05:30 12.07 50000 109000 (2004) 22900 (2003) 52800 23000 25400 28200 29000 48700 73200 76900 101000 109000
2021-03-08 04:30 12.11 50300 109000 (2004) 22900 (2003) 52800 23000 25400 28200 29000 48700 73200 76900 101000 109000
2021-03-08 03:30 12.18 50700 109000 (2004) 22900 (2003) 52800 23000 25400 28200 29000 48700 73200 76900 101000 109000
2021-03-08 02:30 12.19 50700 109000 (2004) 22900 (2003) 52800 23000 25400 28200 29000 48700 73200 76900 101000 109000
2021-03-08 01:30 12.18 50700 109000 (2004) 22900 (2003) 52800 23000 25400 28200 29000 48700 73200 76900 101000 109000
2021-03-08 00:30 12.18 50700 109000 (2004) 22900 (2003) 52800 23000 25400 28200 29000 48700 73200 76900 101000 109000
2021-03-07 23:30 12.20 50800 134000 (2004) 21900 (2003) 53900 22100 25600 27400 28500 50300 61500 76200 122000 134000
2021-03-07 22:30 12.19 50700 134000 (2004) 21900 (2003) 53900 22100 25600 27400 28500 50300 61500 76200 122000 134000
2021-03-07 21:30 12.20 50800 134000 (2004) 21900 (2003) 53900 22100 25600 27400 28500 50300 61500 76200 122000 134000
2021-03-07 20:30 12.20 50800 134000 (2004) 21900 (2003) 53900 22100 25600 27400 28500 50300 61500 76200 122000 134000
2021-03-07 19:30 12.20 50800 134000 (2004) 21900 (2003) 53900 22100 25600 27400 28500 50300 61500 76200 122000 134000
2021-03-07 18:30 12.21 50800 134000 (2004) 21900 (2003) 53900 22100 25600 27400 28500 50300 61500 76200 122000 134000
2021-03-07 17:30 12.18 50700 134000 (2004) 21900 (2003) 53900 22100 25600 27400 28500 50300 61500 76200 122000 134000
2021-03-07 16:30 12.15 50500 134000 (2004) 21900 (2003) 53900 22100 25600 27400 28500 50300 61500 76200 122000 134000
2021-03-07 15:30 12.18 50700 134000 (2004) 21900 (2003) 53900 22100 25600 27400 28500 50300 61500 76200 122000 134000
2021-03-07 14:30 12.16 50500 134000 (2004) 21900 (2003) 53900 22100 25600 27400 28500 50300 61500 76200 122000 134000
2021-03-07 13:30 12.13 50400 134000 (2004) 21900 (2003) 53900 22100 25600 27400 28500 50300 61500 76200 122000 134000
2021-03-07 12:30 12.18 50700 134000 (2004) 21900 (2003) 53900 22100 25600 27400 28500 50300 61500 76200 122000 134000
2021-03-07 11:30 12.16 50500 134000 (2004) 21900 (2003) 53900 22100 25600 27400 28500 50300 61500 76200 122000 134000
2021-03-07 10:30 12.19 50700 134000 (2004) 21900 (2003) 53900 22100 25600 27400 28500 50300 61500 76200 122000 134000
2021-03-07 09:30 12.23 50900 134000 (2004) 21900 (2003) 53900 22100 25600 27400 28500 50300 61500 76200 122000 134000
2021-03-07 08:30 12.27 51200 134000 (2004) 21900 (2003) 53900 22100 25600 27400 28500 50300 61500 76200 122000 134000
2021-03-07 07:30 12.29 51300 134000 (2004) 21900 (2003) 53900 22100 25600 27400 28500 50300 61500 76200 122000 134000
2021-03-07 06:30 12.29 51300 134000 (2004) 21900 (2003) 53900 22100 25600 27400 28500 50300 61500 76200 122000 134000
2021-03-07 05:30 12.30 51300 134000 (2004) 21900 (2003) 53900 22100 25600 27400 28500 50300 61500 76200 122000 134000
2021-03-07 04:30 12.30 51300 134000 (2004) 21900 (2003) 53900 22100 25600 27400 28500 50300 61500 76200 122000 134000
2021-03-07 03:30 12.31 51400 134000 (2004) 21900 (2003) 53900 22100 25600 27400 28500 50300 61500 76200 122000 134000
2021-03-07 02:30 12.30 51300 134000 (2004) 21900 (2003) 53900 22100 25600 27400 28500 50300 61500 76200 122000 134000
2021-03-07 01:30 12.30 51300 134000 (2004) 21900 (2003) 53900 22100 25600 27400 28500 50300 61500 76200 122000 134000
2021-03-07 00:30 12.31 51400 134000 (2004) 21900 (2003) 53900 22100 25600 27400 28500 50300 61500 76200 122000 134000
2021-03-06 23:30 12.32 51500 142000 (2008) 20900 (2003) 55200 21100 25500 26600 29200 49600 64900 75400 133000 142000
2021-03-06 22:30 12.33 51500 142000 (2008) 20900 (2003) 55200 21100 25500 26600 29200 49600 64900 75400 133000 142000
2021-03-06 21:30 12.33 51500 142000 (2008) 20900 (2003) 55200 21100 25500 26600 29200 49600 64900 75400 133000 142000
2021-03-06 20:30 12.34 51600 142000 (2008) 20900 (2003) 55200 21100 25500 26600 29200 49600 64900 75400 133000 142000
2021-03-06 19:30 12.36 51700 142000 (2008) 20900 (2003) 55200 21100 25500 26600 29200 49600 64900 75400 133000 142000
2021-03-06 18:30 12.37 51700 142000 (2008) 20900 (2003) 55200 21100 25500 26600 29200 49600 64900 75400 133000 142000
2021-03-06 17:30 12.38 51800 142000 (2008) 20900 (2003) 55200 21100 25500 26600 29200 49600 64900 75400 133000 142000
2021-03-06 16:30 12.39 51900 142000 (2008) 20900 (2003) 55200 21100 25500 26600 29200 49600 64900 75400 133000 142000
2021-03-06 15:30 12.43 52100 142000 (2008) 20900 (2003) 55200 21100 25500 26600 29200 49600 64900 75400 133000 142000
2021-03-06 14:30 12.45 52200 142000 (2008) 20900 (2003) 55200 21100 25500 26600 29200 49600 64900 75400 133000 142000
2021-03-06 13:30 12.46 52300 142000 (2008) 20900 (2003) 55200 21100 25500 26600 29200 49600 64900 75400 133000 142000
2021-03-06 12:30 12.49 52400 142000 (2008) 20900 (2003) 55200 21100 25500 26600 29200 49600 64900 75400 133000 142000
2021-03-06 11:30 12.51 52600 142000 (2008) 20900 (2003) 55200 21100 25500 26600 29200 49600 64900 75400 133000 142000
2021-03-06 10:30 12.53 52700 142000 (2008) 20900 (2003) 55200 21100 25500 26600 29200 49600 64900 75400 133000 142000
2021-03-06 09:30 12.58 53000 142000 (2008) 20900 (2003) 55200 21100 25500 26600 29200 49600 64900 75400 133000 142000
2021-03-06 08:30 12.59 53000 142000 (2008) 20900 (2003) 55200 21100 25500 26600 29200 49600 64900 75400 133000 142000
2021-03-06 07:30 12.65 53400 142000 (2008) 20900 (2003) 55200 21100 25500 26600 29200 49600 64900 75400 133000 142000
2021-03-06 06:30 12.67 53500 142000 (2008) 20900 (2003) 55200 21100 25500 26600 29200 49600 64900 75400 133000 142000
2021-03-06 05:30 12.70 53700 142000 (2008) 20900 (2003) 55200 21100 25500 26600 29200 49600 64900 75400 133000 142000
2021-03-06 04:30 12.74 53900 142000 (2008) 20900 (2003) 55200 21100 25500 26600 29200 49600 64900 75400 133000 142000
2021-03-06 03:30 12.78 54100 142000 (2008) 20900 (2003) 55200 21100 25500 26600 29200 49600 64900 75400 133000 142000
2021-03-06 02:30 12.79 54200 142000 (2008) 20900 (2003) 55200 21100 25500 26600 29200 49600 64900 75400 133000 142000
2021-03-06 01:30 12.82 54400 142000 (2008) 20900 (2003) 55200 21100 25500 26600 29200 49600 64900 75400 133000 142000
2021-03-06 00:30 12.86 54600 142000 (2008) 20900 (2003) 55200 21100 25500 26600 29200 49600 64900 75400 133000 142000
2021-03-05 23:30 12.88 54700 157000 (2008) 20800 (2003) 54100 21000 24500 27700 30300 48500 67800 76000 85100 153000
2021-03-05 22:30 12.90 54900 157000 (2008) 20800 (2003) 54100 21000 24500 27700 30300 48500 67800 76000 85100 153000
2021-03-05 21:30 12.92 55000 157000 (2008) 20800 (2003) 54100 21000 24500 27700 30300 48500 67800 76000 85100 153000
2021-03-05 20:30 12.93 55000 157000 (2008) 20800 (2003) 54100 21000 24500 27700 30300 48500 67800 76000 85100 153000
2021-03-05 19:30 12.94 55100 157000 (2008) 20800 (2003) 54100 21000 24500 27700 30300 48500 67800 76000 85100 153000
2021-03-05 18:30 12.94 55100 157000 (2008) 20800 (2003) 54100 21000 24500 27700 30300 48500 67800 76000 85100 153000
2021-03-05 17:30 12.97 55300 157000 (2008) 20800 (2003) 54100 21000 24500 27700 30300 48500 67800 76000 85100 153000
2021-03-05 16:30 12.97 55300 157000 (2008) 20800 (2003) 54100 21000 24500 27700 30300 48500 67800 76000 85100 153000
2021-03-05 15:30 13.00 51100 157000 (2008) 20800 (2003) 54100 21000 24500 27700 30300 48500 67800 76000 85100 153000
2021-03-05 14:30 13.00 51100 157000 (2008) 20800 (2003) 54100 21000 24500 27700 30300 48500 67800 76000 85100 153000
2021-03-05 13:30 13.03 51200 157000 (2008) 20800 (2003) 54100 21000 24500 27700 30300 48500 67800 76000 85100 153000
2021-03-05 12:30 13.02 51200 157000 (2008) 20800 (2003) 54100 21000 24500 27700 30300 48500 67800 76000 85100 153000
2021-03-05 11:30 13.06 51400 157000 (2008) 20800 (2003) 54100 21000 24500 27700 30300 48500 67800 76000 85100 153000
2021-03-05 10:30 13.04 51300 157000 (2008) 20800 (2003) 54100 21000 24500 27700 30300 48500 67800 76000 85100 153000
2021-03-05 09:30 13.20 52200 157000 (2008) 20800 (2003) 54100 21000 24500 27700 30300 48500 67800 76000 85100 153000
2021-03-05 08:30 13.23 52400 157000 (2008) 20800 (2003) 54100 21000 24500 27700 30300 48500 67800 76000 85100 153000
2021-03-05 07:30 13.23 52400 157000 (2008) 20800 (2003) 54100 21000 24500 27700 30300 48500 67800 76000 85100 153000
2021-03-05 06:30 13.26 157000 (2008) 20800 (2003) 54100 21000 24500 27700 30300 48500 67800 76000 85100 153000
2021-03-05 05:30 13.26 157000 (2008) 20800 (2003) 54100 21000 24500 27700 30300 48500 67800 76000 85100 153000
2021-03-05 04:30 13.26 157000 (2008) 20800 (2003) 54100 21000 24500 27700 30300 48500 67800 76000 85100 153000
2021-03-05 03:30 13.25 157000 (2008) 20800 (2003) 54100 21000 24500 27700 30300 48500 67800 76000 85100 153000
2021-03-05 02:30 13.23 157000 (2008) 20800 (2003) 54100 21000 24500 27700 30300 48500 67800 76000 85100 153000
2021-03-05 01:30 13.24 157000 (2008) 20800 (2003) 54100 21000 24500 27700 30300 48500 67800 76000 85100 153000
2021-03-05 00:30 13.24 157000 (2008) 20800 (2003) 54100 21000 24500 27700 30300 48500 67800 76000 85100 153000
2021-03-04 23:30 13.22 139000 (2008) 21200 (2003) 52000 21300 24400 28900 31400 44700 68700 73100 84600 136000
2021-03-04 22:30 13.21 139000 (2008) 21200 (2003) 52000 21300 24400 28900 31400 44700 68700 73100 84600 136000
2021-03-04 21:30 13.19 139000 (2008) 21200 (2003) 52000 21300 24400 28900 31400 44700 68700 73100 84600 136000
2021-03-04 20:30 13.17 139000 (2008) 21200 (2003) 52000 21300 24400 28900 31400 44700 68700 73100 84600 136000
2021-03-04 19:30 13.17 139000 (2008) 21200 (2003) 52000 21300 24400 28900 31400 44700 68700 73100 84600 136000
2021-03-04 18:30 13.16 139000 (2008) 21200 (2003) 52000 21300 24400 28900 31400 44700 68700 73100 84600 136000
2021-03-04 17:30 13.14 139000 (2008) 21200 (2003) 52000 21300 24400 28900 31400 44700 68700 73100 84600 136000
2021-03-04 16:30 13.09 139000 (2008) 21200 (2003) 52000 21300 24400 28900 31400 44700 68700 73100 84600 136000
2021-03-04 15:30 13.06 139000 (2008) 21200 (2003) 52000 21300 24400 28900 31400 44700 68700 73100 84600 136000
2021-03-04 14:30 13.06 139000 (2008) 21200 (2003) 52000 21300 24400 28900 31400 44700 68700 73100 84600 136000
2021-03-04 13:30 13.05 139000 (2008) 21200 (2003) 52000 21300 24400 28900 31400 44700 68700 73100 84600 136000
2021-03-04 12:30 13.04 139000 (2008) 21200 (2003) 52000 21300 24400 28900 31400 44700 68700 73100 84600 136000
2021-03-04 11:30 13.05 139000 (2008) 21200 (2003) 52000 21300 24400 28900 31400 44700 68700 73100 84600 136000
2021-03-04 10:30 13.07 139000 (2008) 21200 (2003) 52000 21300 24400 28900 31400 44700 68700 73100 84600 136000
2021-03-04 09:30 13.04 139000 (2008) 21200 (2003) 52000 21300 24400 28900 31400 44700 68700 73100 84600 136000
2021-03-04 08:30 13.06 139000 (2008) 21200 (2003) 52000 21300 24400 28900 31400 44700 68700 73100 84600 136000
2021-03-04 07:30 13.06 139000 (2008) 21200 (2003) 52000 21300 24400 28900 31400 44700 68700 73100 84600 136000
2021-03-04 06:30 13.02 139000 (2008) 21200 (2003) 52000 21300 24400 28900 31400 44700 68700 73100 84600 136000
2021-03-04 05:30 13.00 139000 (2008) 21200 (2003) 52000 21300 24400 28900 31400 44700 68700 73100 84600 136000
2021-03-04 04:30 12.99 139000 (2008) 21200 (2003) 52000 21300 24400 28900 31400 44700 68700 73100 84600 136000
2021-03-04 03:30 12.97 139000 (2008) 21200 (2003) 52000 21300 24400 28900 31400 44700 68700 73100 84600 136000
2021-03-04 02:30 12.94 139000 (2008) 21200 (2003) 52000 21300 24400 28900 31400 44700 68700 73100 84600 136000
2021-03-04 01:30 12.91 139000 (2008) 21200 (2003) 52000 21300 24400 28900 31400 44700 68700 73100 84600 136000
2021-03-04 00:30 12.88 139000 (2008) 21200 (2003) 52000 21300 24400 28900 31400 44700 68700 73100 84600 136000
2021-03-03 23:30 12.86 95600 (2011) 22300 (2003) 51200 22400 24400 29300 32400 44900 74300 78500 92600 95500
2021-03-03 22:30 12.85 95600 (2011) 22300 (2003) 51200 22400 24400 29300 32400 44900 74300 78500 92600 95500
2021-03-03 21:30 12.82 95600 (2011) 22300 (2003) 51200 22400 24400 29300 32400 44900 74300 78500 92600 95500
2021-03-03 20:30 12.80 95600 (2011) 22300 (2003) 51200 22400 24400 29300 32400 44900 74300 78500 92600 95500
2021-03-03 19:30 12.78 95600 (2011) 22300 (2003) 51200 22400 24400 29300 32400 44900 74300 78500 92600 95500
2021-03-03 18:30 12.76 95600 (2011) 22300 (2003) 51200 22400 24400 29300 32400 44900 74300 78500 92600 95500
2021-03-03 17:30 12.74 95600 (2011) 22300 (2003) 51200 22400 24400 29300 32400 44900 74300 78500 92600 95500
2021-03-03 16:30 12.70 95600 (2011) 22300 (2003) 51200 22400 24400 29300 32400 44900 74300 78500 92600 95500
2021-03-03 15:30 12.68 95600 (2011) 22300 (2003) 51200 22400 24400 29300 32400 44900 74300 78500 92600 95500
2021-03-03 14:30 12.68 95600 (2011) 22300 (2003) 51200 22400 24400 29300 32400 44900 74300 78500 92600 95500
2021-03-03 13:30 12.67 95600 (2011) 22300 (2003) 51200 22400 24400 29300 32400 44900 74300 78500 92600 95500
2021-03-03 12:30 12.68 95600 (2011) 22300 (2003) 51200 22400 24400 29300 32400 44900 74300 78500 92600 95500
2021-03-03 11:30 12.67 95600 (2011) 22300 (2003) 51200 22400 24400 29300 32400 44900 74300 78500 92600 95500
2021-03-03 10:30 12.62 95600 (2011) 22300 (2003) 51200 22400 24400 29300 32400 44900 74300 78500 92600 95500
2021-03-03 09:30 12.62 95600 (2011) 22300 (2003) 51200 22400 24400 29300 32400 44900 74300 78500 92600 95500
2021-03-03 08:30 12.60 95600 (2011) 22300 (2003) 51200 22400 24400 29300 32400 44900 74300 78500 92600 95500
2021-03-03 07:30 12.67 95600 (2011) 22300 (2003) 51200 22400 24400 29300 32400 44900 74300 78500 92600 95500
2021-03-03 06:30 12.65 95600 (2011) 22300 (2003) 51200 22400 24400 29300 32400 44900 74300 78500 92600 95500
2021-03-03 05:30 12.65 95600 (2011) 22300 (2003) 51200 22400 24400 29300 32400 44900 74300 78500 92600 95500
2021-03-03 04:30 12.67 95600 (2011) 22300 (2003) 51200 22400 24400 29300 32400 44900 74300 78500 92600 95500
2021-03-03 03:30 12.67 95600 (2011) 22300 (2003) 51200 22400 24400 29300 32400 44900 74300 78500 92600 95500
2021-03-03 02:30 12.66 95600 (2011) 22300 (2003) 51200 22400 24400 29300 32400 44900 74300 78500 92600 95500
2021-03-03 01:30 12.69 95600 (2011) 22300 (2003) 51200 22400 24400 29300 32400 44900 74300 78500 92600 95500
2021-03-03 00:30 12.69 95600 (2011) 22300 (2003) 51200 22400 24400 29300 32400 44900 74300 78500 92600 95500
2021-03-02 23:30 12.68 113000 (2011) 23600 (2013) 52400 23600 24800 29900 34100 43700 65300 76600 101000 112000
2021-03-02 22:30 12.68 113000 (2011) 23600 (2013) 52400 23600 24800 29900 34100 43700 65300 76600 101000 112000
2021-03-02 21:30 12.72 113000 (2011) 23600 (2013) 52400 23600 24800 29900 34100 43700 65300 76600 101000 112000
2021-03-02 20:30 12.71 113000 (2011) 23600 (2013) 52400 23600 24800 29900 34100 43700 65300 76600 101000 112000
2021-03-02 19:30 12.75 113000 (2011) 23600 (2013) 52400 23600 24800 29900 34100 43700 65300 76600 101000 112000
2021-03-02 18:30 12.75 113000 (2011) 23600 (2013) 52400 23600 24800 29900 34100 43700 65300 76600 101000 112000
2021-03-02 17:30 12.73 113000 (2011) 23600 (2013) 52400 23600 24800 29900 34100 43700 65300 76600 101000 112000
2021-03-02 16:30 12.73 113000 (2011) 23600 (2013) 52400 23600 24800 29900 34100 43700 65300 76600 101000 112000
2021-03-02 15:30 12.73 113000 (2011) 23600 (2013) 52400 23600 24800 29900 34100 43700 65300 76600 101000 112000
2021-03-02 14:30 12.74 113000 (2011) 23600 (2013) 52400 23600 24800 29900 34100 43700 65300 76600 101000 112000
2021-03-02 13:30 12.75 113000 (2011) 23600 (2013) 52400 23600 24800 29900 34100 43700 65300 76600 101000 112000
2021-03-02 12:30 12.75 113000 (2011) 23600 (2013) 52400 23600 24800 29900 34100 43700 65300 76600 101000 112000
2021-03-02 11:30 12.75 113000 (2011) 23600 (2013) 52400 23600 24800 29900 34100 43700 65300 76600 101000 112000
2021-03-02 10:30 12.82 113000 (2011) 23600 (2013) 52400 23600 24800 29900 34100 43700 65300 76600 101000 112000
2021-03-02 09:30 12.81 113000 (2011) 23600 (2013) 52400 23600 24800 29900 34100 43700 65300 76600 101000 112000
2021-03-02 08:30 12.86 113000 (2011) 23600 (2013) 52400 23600 24800 29900 34100 43700 65300 76600 101000 112000
2021-03-02 07:30 12.91 113000 (2011) 23600 (2013) 52400 23600 24800 29900 34100 43700 65300 76600 101000 112000
2021-03-02 06:30 12.92 113000 (2011) 23600 (2013) 52400 23600 24800 29900 34100 43700 65300 76600 101000 112000
2021-03-02 05:30 12.92 113000 (2011) 23600 (2013) 52400 23600 24800 29900 34100 43700 65300 76600 101000 112000
2021-03-02 04:30 12.95 113000 (2011) 23600 (2013) 52400 23600 24800 29900 34100 43700 65300 76600 101000 112000
2021-03-02 03:30 12.96 113000 (2011) 23600 (2013) 52400 23600 24800 29900 34100 43700 65300 76600 101000 112000
2021-03-02 02:30 12.99 113000 (2011) 23600 (2013) 52400 23600 24800 29900 34100 43700 65300 76600 101000 112000
2021-03-02 01:30 13.00 113000 (2011) 23600 (2013) 52400 23600 24800 29900 34100 43700 65300 76600 101000 112000
2021-03-02 00:30 12.98 113000 (2011) 23600 (2013) 52400 23600 24800 29900 34100 43700 65300 76600 101000 112000
2021-03-01 23:30 12.96 130000 (2011) 22600 (2013) 53800 22800 26000 30200 35600 42700 68000 76900 103000 129000
2021-03-01 22:30 12.95 130000 (2011) 22600 (2013) 53800 22800 26000 30200 35600 42700 68000 76900 103000 129000
2021-03-01 21:30 12.93 130000 (2011) 22600 (2013) 53800 22800 26000 30200 35600 42700 68000 76900 103000 129000
2021-03-01 20:30 12.93 130000 (2011) 22600 (2013) 53800 22800 26000 30200 35600 42700 68000 76900 103000 129000
2021-03-01 19:30 12.91 130000 (2011) 22600 (2013) 53800 22800 26000 30200 35600 42700 68000 76900 103000 129000
2021-03-01 18:30 12.87 130000 (2011) 22600 (2013) 53800 22800 26000 30200 35600 42700 68000 76900 103000 129000
2021-03-01 17:30 12.79 130000 (2011) 22600 (2013) 53800 22800 26000 30200 35600 42700 68000 76900 103000 129000
2021-03-01 16:30 12.80 130000 (2011) 22600 (2013) 53800 22800 26000 30200 35600 42700 68000 76900 103000 129000
2021-03-01 15:30 12.78 130000 (2011) 22600 (2013) 53800 22800 26000 30200 35600 42700 68000 76900 103000 129000
2021-03-01 14:30 12.70 130000 (2011) 22600 (2013) 53800 22800 26000 30200 35600 42700 68000 76900 103000 129000
2021-03-01 13:30 12.68 130000 (2011) 22600 (2013) 53800 22800 26000 30200 35600 42700 68000 76900 103000 129000
2021-03-01 12:30 12.63 130000 (2011) 22600 (2013) 53800 22800 26000 30200 35600 42700 68000 76900 103000 129000
2021-03-01 11:30 12.68 130000 (2011) 22600 (2013) 53800 22800 26000 30200 35600 42700 68000 76900 103000 129000
2021-03-01 10:30 12.68 130000 (2011) 22600 (2013) 53800 22800 26000 30200 35600 42700 68000 76900 103000 129000
2021-03-01 09:30 12.68 130000 (2011) 22600 (2013) 53800 22800 26000 30200 35600 42700 68000 76900 103000 129000
2021-03-01 08:30 12.69 130000 (2011) 22600 (2013) 53800 22800 26000 30200 35600 42700 68000 76900 103000 129000
2021-03-01 07:30 12.70 130000 (2011) 22600 (2013) 53800 22800 26000 30200 35600 42700 68000 76900 103000 129000
2021-03-01 06:30 12.72 130000 (2011) 22600 (2013) 53800 22800 26000 30200 35600 42700 68000 76900 103000 129000
2021-03-01 05:30 12.71 130000 (2011) 22600 (2013) 53800 22800 26000 30200 35600 42700 68000 76900 103000 129000
2021-03-01 04:30 12.68 130000 (2011) 22600 (2013) 53800 22800 26000 30200 35600 42700 68000 76900 103000 129000
2021-03-01 03:30 12.63 130000 (2011) 22600 (2013) 53800 22800 26000 30200 35600 42700 68000 76900 103000 129000
2021-03-01 02:30 12.59 130000 (2011) 22600 (2013) 53800 22800 26000 30200 35600 42700 68000 76900 103000 129000
2021-03-01 01:30 12.56 130000 (2011) 22600 (2013) 53800 22800 26000 30200 35600 42700 68000 76900 103000 129000
2021-03-01 00:30 12.55 130000 (2011) 22600 (2013) 53800 22800 26000 30200 35600 42700 68000 76900 103000 129000
2021-02-28 23:30 12.54 129000 (2001) 22300 (2013) 55100 22400 25400 34700 35600 42500 77800 81900 113000 128000
2021-02-28 22:30 12.50 129000 (2001) 22300 (2013) 55100 22400 25400 34700 35600 42500 77800 81900 113000 128000
2021-02-28 21:30 12.44 129000 (2001) 22300 (2013) 55100 22400 25400 34700 35600 42500 77800 81900 113000 128000
2021-02-28 20:30 12.38 129000 (2001) 22300 (2013) 55100 22400 25400 34700 35600 42500 77800 81900 113000 128000
2021-02-28 19:30 12.34 129000 (2001) 22300 (2013) 55100 22400 25400 34700 35600 42500 77800 81900 113000 128000
2021-02-28 18:30 12.31 129000 (2001) 22300 (2013) 55100 22400 25400 34700 35600 42500 77800 81900 113000 128000
2021-02-28 17:30 12.27 129000 (2001) 22300 (2013) 55100 22400 25400 34700 35600 42500 77800 81900 113000 128000
2021-02-28 16:30 12.16 129000 (2001) 22300 (2013) 55100 22400 25400 34700 35600 42500 77800 81900 113000 128000
2021-02-28 15:30 12.15 129000 (2001) 22300 (2013) 55100 22400 25400 34700 35600 42500 77800 81900 113000 128000
2021-02-28 14:30 12.15 129000 (2001) 22300 (2013) 55100 22400 25400 34700 35600 42500 77800 81900 113000 128000
2021-02-28 13:30 12.10 129000 (2001) 22300 (2013) 55100 22400 25400 34700 35600 42500 77800 81900 113000 128000
2021-02-28 12:30 12.10 129000 (2001) 22300 (2013) 55100 22400 25400 34700 35600 42500 77800 81900 113000 128000
2021-02-28 11:30 12.09 129000 (2001) 22300 (2013) 55100 22400 25400 34700 35600 42500 77800 81900 113000 128000
2021-02-28 10:30 12.12 129000 (2001) 22300 (2013) 55100 22400 25400 34700 35600 42500 77800 81900 113000 128000
2021-02-28 09:30 12.13 129000 (2001) 22300 (2013) 55100 22400 25400 34700 35600 42500 77800 81900 113000 128000
2021-02-28 08:30 12.12 129000 (2001) 22300 (2013) 55100 22400 25400 34700 35600 42500 77800 81900 113000 128000
2021-02-28 07:30 12.12 129000 (2001) 22300 (2013) 55100 22400 25400 34700 35600 42500 77800 81900 113000 128000
2021-02-28 06:30 12.13 129000 (2001) 22300 (2013) 55100 22400 25400 34700 35600 42500 77800 81900 113000 128000
2021-02-28 05:30 12.12 129000 (2001) 22300 (2013) 55100 22400 25400 34700 35600 42500 77800 81900 113000 128000
2021-02-28 04:30 12.11 129000 (2001) 22300 (2013) 55100 22400 25400 34700 35600 42500 77800 81900 113000 128000
2021-02-28 03:30 12.14 129000 (2001) 22300 (2013) 55100 22400 25400 34700 35600 42500 77800 81900 113000 128000
2021-02-28 02:30 12.14 129000 (2001) 22300 (2013) 55100 22400 25400 34700 35600 42500 77800 81900 113000 128000
2021-02-28 01:30 12.15 129000 (2001) 22300 (2013) 55100 22400 25400 34700 35600 42500 77800 81900 113000 128000
2021-02-28 00:30 12.11 129000 (2001) 22300 (2013) 55100 22400 25400 34700 35600 42500 77800 81900 113000 128000
2021-02-27 23:30 12.10 155000 (2001) 24000 (2006) 56000 24000 24700 33000 36100 42400 79800 83700 101000 152000
2021-02-27 22:30 12.09 155000 (2001) 24000 (2006) 56000 24000 24700 33000 36100 42400 79800 83700 101000 152000
2021-02-27 21:30 12.15 155000 (2001) 24000 (2006) 56000 24000 24700 33000 36100 42400 79800 83700 101000 152000
2021-02-27 20:30 12.20 155000 (2001) 24000 (2006) 56000 24000 24700 33000 36100 42400 79800 83700 101000 152000
2021-02-27 19:30 12.22 155000 (2001) 24000 (2006) 56000 24000 24700 33000 36100 42400 79800 83700 101000 152000
2021-02-27 18:30 12.23 155000 (2001) 24000 (2006) 56000 24000 24700 33000 36100 42400 79800 83700 101000 152000
2021-02-27 17:30 12.24 155000 (2001) 24000 (2006) 56000 24000 24700 33000 36100 42400 79800 83700 101000 152000
2021-02-27 16:30 12.23 155000 (2001) 24000 (2006) 56000 24000 24700 33000 36100 42400 79800 83700 101000 152000
2021-02-27 15:30 12.19 155000 (2001) 24000 (2006) 56000 24000 24700 33000 36100 42400 79800 83700 101000 152000
2021-02-27 14:30 12.21 155000 (2001) 24000 (2006) 56000 24000 24700 33000 36100 42400 79800 83700 101000 152000
2021-02-27 13:30 12.26 155000 (2001) 24000 (2006) 56000 24000 24700 33000 36100 42400 79800 83700 101000 152000
2021-02-27 12:30 12.28 155000 (2001) 24000 (2006) 56000 24000 24700 33000 36100 42400 79800 83700 101000 152000
2021-02-27 11:30 12.30 155000 (2001) 24000 (2006) 56000 24000 24700 33000 36100 42400 79800 83700 101000 152000
2021-02-27 10:30 12.32 155000 (2001) 24000 (2006) 56000 24000 24700 33000 36100 42400 79800 83700 101000 152000
2021-02-27 09:30 12.34 155000 (2001) 24000 (2006) 56000 24000 24700 33000 36100 42400 79800 83700 101000 152000
2021-02-27 08:30 12.36 155000 (2001) 24000 (2006) 56000 24000 24700 33000 36100 42400 79800 83700 101000 152000
2021-02-27 07:30 12.39 155000 (2001) 24000 (2006) 56000 24000 24700 33000 36100 42400 79800 83700 101000 152000
2021-02-27 06:30 12.41 155000 (2001) 24000 (2006) 56000 24000 24700 33000 36100 42400 79800 83700 101000 152000
2021-02-27 05:30 12.44 155000 (2001) 24000 (2006) 56000 24000 24700 33000 36100 42400 79800 83700 101000 152000
2021-02-27 04:30 12.49 155000 (2001) 24000 (2006) 56000 24000 24700 33000 36100 42400 79800 83700 101000 152000
2021-02-27 03:30 12.51 155000 (2001) 24000 (2006) 56000 24000 24700 33000 36100 42400 79800 83700 101000 152000
2021-02-27 02:30 12.57 155000 (2001) 24000 (2006) 56000 24000 24700 33000 36100 42400 79800 83700 101000 152000
2021-02-27 01:30 12.63 155000 (2001) 24000 (2006) 56000 24000 24700 33000 36100 42400 79800 83700 101000 152000
2021-02-27 00:30 12.66 155000 (2001) 24000 (2006) 56000 24000 24700 33000 36100 42400 79800 83700 101000 152000
2021-02-26 23:30 12.71 157000 (2001) 23100 (2006) 56500 23200 24600 33000 36400 42700 77900 85200 113000 155000
2021-02-26 22:30 12.77 157000 (2001) 23100 (2006) 56500 23200 24600 33000 36400 42700 77900 85200 113000 155000
2021-02-26 21:30 12.82 157000 (2001) 23100 (2006) 56500 23200 24600 33000 36400 42700 77900 85200 113000 155000
2021-02-26 20:30 12.85 157000 (2001) 23100 (2006) 56500 23200 24600 33000 36400 42700 77900 85200 113000 155000
2021-02-26 19:30 12.90 157000 (2001) 23100 (2006) 56500 23200 24600 33000 36400 42700 77900 85200 113000 155000
2021-02-26 18:30 12.95 157000 (2001) 23100 (2006) 56500 23200 24600 33000 36400 42700 77900 85200 113000 155000
2021-02-26 17:30 13.00 157000 (2001) 23100 (2006) 56500 23200 24600 33000 36400 42700 77900 85200 113000 155000
2021-02-26 16:30 13.06 157000 (2001) 23100 (2006) 56500 23200 24600 33000 36400 42700 77900 85200 113000 155000
2021-02-26 15:30 13.09 157000 (2001) 23100 (2006) 56500 23200 24600 33000 36400 42700 77900 85200 113000 155000
2021-02-26 14:30 13.14 157000 (2001) 23100 (2006) 56500 23200 24600 33000 36400 42700 77900 85200 113000 155000
2021-02-26 13:30 13.16 157000 (2001) 23100 (2006) 56500 23200 24600 33000 36400 42700 77900 85200 113000 155000
2021-02-26 12:30 13.22 157000 (2001) 23100 (2006) 56500 23200 24600 33000 36400 42700 77900 85200 113000 155000
2021-02-26 11:30 13.28 157000 (2001) 23100 (2006) 56500 23200 24600 33000 36400 42700 77900 85200 113000 155000
2021-02-26 10:30 13.30 157000 (2001) 23100 (2006) 56500 23200 24600 33000 36400 42700 77900 85200 113000 155000
2021-02-26 09:30 13.34 157000 (2001) 23100 (2006) 56500 23200 24600 33000 36400 42700 77900 85200 113000 155000
2021-02-26 08:30 13.38 157000 (2001) 23100 (2006) 56500 23200 24600 33000 36400 42700 77900 85200 113000 155000
2021-02-26 07:30 13.42 157000 (2001) 23100 (2006) 56500 23200 24600 33000 36400 42700 77900 85200 113000 155000
2021-02-26 06:30 13.46 157000 (2001) 23100 (2006) 56500 23200 24600 33000 36400 42700 77900 85200 113000 155000
2021-02-26 05:30 13.50 157000 (2001) 23100 (2006) 56500 23200 24600 33000 36400 42700 77900 85200 113000 155000
2021-02-26 04:30 13.53 157000 (2001) 23100 (2006) 56500 23200 24600 33000 36400 42700 77900 85200 113000 155000
2021-02-26 03:30 13.47 157000 (2001) 23100 (2006) 56500 23200 24600 33000 36400 42700 77900 85200 113000 155000
2021-02-26 02:30 13.42 157000 (2001) 23100 (2006) 56500 23200 24600 33000 36400 42700 77900 85200 113000 155000
2021-02-26 01:30 13.38 157000 (2001) 23100 (2006) 56500 23200 24600 33000 36400 42700 77900 85200 113000 155000
2021-02-26 00:30 13.28 157000 (2001) 23100 (2006) 56500 23200 24600 33000 36400 42700 77900 85200 113000 155000
2021-02-25 23:30 13.13 117000 (2019) 23000 (2006) 53300 23000 23500 34000 35700 45000 75000 77700 95000 116000
2021-02-25 22:30 12.93 117000 (2019) 23000 (2006) 53300 23000 23500 34000 35700 45000 75000 77700 95000 116000
2021-02-25 21:30 12.76 117000 (2019) 23000 (2006) 53300 23000 23500 34000 35700 45000 75000 77700 95000 116000
2021-02-25 20:30 12.56 117000 (2019) 23000 (2006) 53300 23000 23500 34000 35700 45000 75000 77700 95000 116000
2021-02-25 19:30 12.35 117000 (2019) 23000 (2006) 53300 23000 23500 34000 35700 45000 75000 77700 95000 116000
2021-02-25 18:30 12.18 117000 (2019) 23000 (2006) 53300 23000 23500 34000 35700 45000 75000 77700 95000 116000
2021-02-25 17:30 12.09 117000 (2019) 23000 (2006) 53300 23000 23500 34000 35700 45000 75000 77700 95000 116000
2021-02-25 16:30 11.99 117000 (2019) 23000 (2006) 53300 23000 23500 34000 35700 45000 75000 77700 95000 116000
2021-02-25 15:30 11.82 117000 (2019) 23000 (2006) 53300 23000 23500 34000 35700 45000 75000 77700 95000 116000
2021-02-25 14:30 11.67 117000 (2019) 23000 (2006) 53300 23000 23500 34000 35700 45000 75000 77700 95000 116000
2021-02-25 13:30 11.46 117000 (2019) 23000 (2006) 53300 23000 23500 34000 35700 45000 75000 77700 95000 116000
2021-02-25 12:30 11.27 117000 (2019) 23000 (2006) 53300 23000 23500 34000 35700 45000 75000 77700 95000 116000
2021-02-25 11:30 11.00 117000 (2019) 23000 (2006) 53300 23000 23500 34000 35700 45000 75000 77700 95000 116000
2021-02-25 10:30 10.86 117000 (2019) 23000 (2006) 53300 23000 23500 34000 35700 45000 75000 77700 95000 116000
2021-02-25 09:30 10.75 117000 (2019) 23000 (2006) 53300 23000 23500 34000 35700 45000 75000 77700 95000 116000
2021-02-25 08:30 10.67 117000 (2019) 23000 (2006) 53300 23000 23500 34000 35700 45000 75000 77700 95000 116000
2021-02-25 07:30 10.62 117000 (2019) 23000 (2006) 53300 23000 23500 34000 35700 45000 75000 77700 95000 116000
2021-02-25 06:30 10.58 117000 (2019) 23000 (2006) 53300 23000 23500 34000 35700 45000 75000 77700 95000 116000
2021-02-25 05:30 10.57 117000 (2019) 23000 (2006) 53300 23000 23500 34000 35700 45000 75000 77700 95000 116000
2021-02-25 04:30 10.56 117000 (2019) 23000 (2006) 53300 23000 23500 34000 35700 45000 75000 77700 95000 116000
2021-02-25 03:30 10.56 117000 (2019) 23000 (2006) 53300 23000 23500 34000 35700 45000 75000 77700 95000 116000
2021-02-25 02:30 10.57 117000 (2019) 23000 (2006) 53300 23000 23500 34000 35700 45000 75000 77700 95000 116000
2021-02-25 01:30 10.55 117000 (2019) 23000 (2006) 53300 23000 23500 34000 35700 45000 75000 77700 95000 116000
2021-02-25 00:30 10.56 117000 (2019) 23000 (2006) 53300 23000 23500 34000 35700 45000 75000 77700 95000 116000
2021-02-24 23:30 10.57 102000 (2011) 23300 (2003) 49600 23300 23600 33300 36300 45500 50500 69400 95800 102000
2021-02-24 22:30 10.60 102000 (2011) 23300 (2003) 49600 23300 23600 33300 36300 45500 50500 69400 95800 102000
2021-02-24 21:30 10.65 102000 (2011) 23300 (2003) 49600 23300 23600 33300 36300 45500 50500 69400 95800 102000
2021-02-24 20:30 10.68 102000 (2011) 23300 (2003) 49600 23300 23600 33300 36300 45500 50500 69400 95800 102000
2021-02-24 19:30 10.73 102000 (2011) 23300 (2003) 49600 23300 23600 33300 36300 45500 50500 69400 95800 102000
2021-02-24 18:30 10.79 102000 (2011) 23300 (2003) 49600 23300 23600 33300 36300 45500 50500 69400 95800 102000
2021-02-24 17:30 10.88 102000 (2011) 23300 (2003) 49600 23300 23600 33300 36300 45500 50500 69400 95800 102000
2021-02-24 16:30 10.96 102000 (2011) 23300 (2003) 49600 23300 23600 33300 36300 45500 50500 69400 95800 102000
2021-02-24 15:30 11.06 102000 (2011) 23300 (2003) 49600 23300 23600 33300 36300 45500 50500 69400 95800 102000
2021-02-24 14:30 11.16 102000 (2011) 23300 (2003) 49600 23300 23600 33300 36300 45500 50500 69400 95800 102000
2021-02-24 13:30 11.28 102000 (2011) 23300 (2003) 49600 23300 23600 33300 36300 45500 50500 69400 95800 102000
2021-02-24 12:30 11.37 102000 (2011) 23300 (2003) 49600 23300 23600 33300 36300 45500 50500 69400 95800 102000
2021-02-24 11:30 11.44 102000 (2011) 23300 (2003) 49600 23300 23600 33300 36300 45500 50500 69400 95800 102000
2021-02-24 10:30 11.62 102000 (2011) 23300 (2003) 49600 23300 23600 33300 36300 45500 50500 69400 95800 102000
2021-02-24 09:30 11.81 102000 (2011) 23300 (2003) 49600 23300 23600 33300 36300 45500 50500 69400 95800 102000
2021-02-24 08:30 11.99 102000 (2011) 23300 (2003) 49600 23300 23600 33300 36300 45500 50500 69400 95800 102000
2021-02-24 07:30 12.20 102000 (2011) 23300 (2003) 49600 23300 23600 33300 36300 45500 50500 69400 95800 102000
2021-02-24 06:30 12.44 102000 (2011) 23300 (2003) 49600 23300 23600 33300 36300 45500 50500 69400 95800 102000
2021-02-24 05:30 12.70 102000 (2011) 23300 (2003) 49600 23300 23600 33300 36300 45500 50500 69400 95800 102000
2021-02-24 04:30 12.97 102000 (2011) 23300 (2003) 49600 23300 23600 33300 36300 45500 50500 69400 95800 102000
2021-02-24 03:30 13.23 102000 (2011) 23300 (2003) 49600 23300 23600 33300 36300 45500 50500 69400 95800 102000
2021-02-24 02:30 13.51 102000 (2011) 23300 (2003) 49600 23300 23600 33300 36300 45500 50500 69400 95800 102000
2021-02-24 01:30 13.81 102000 (2011) 23300 (2003) 49600 23300 23600 33300 36300 45500 50500 69400 95800 102000
2021-02-24 00:30 14.15 102000 (2011) 23300 (2003) 49600 23300 23600 33300 36300 45500 50500 69400 95800 102000
2021-02-23 23:30 14.49 105000 (2011) 23700 (2003) 48400 23700 24600 35300 36300 43900 57300 58200 79600 104000
2021-02-23 22:30 14.77 105000 (2011) 23700 (2003) 48400 23700 24600 35300 36300 43900 57300 58200 79600 104000
2021-02-23 21:30 14.79 105000 (2011) 23700 (2003) 48400 23700 24600 35300 36300 43900 57300 58200 79600 104000
2021-02-23 20:30 14.55 105000 (2011) 23700 (2003) 48400 23700 24600 35300 36300 43900 57300 58200 79600 104000
2021-02-23 19:30 13.64 105000 (2011) 23700 (2003) 48400 23700 24600 35300 36300 43900 57300 58200 79600 104000
2021-02-23 18:30 13.21 105000 (2011) 23700 (2003) 48400 23700 24600 35300 36300 43900 57300 58200 79600 104000
2021-02-23 17:30 13.04 105000 (2011) 23700 (2003) 48400 23700 24600 35300 36300 43900 57300 58200 79600 104000
2021-02-23 16:30 13.10 105000 (2011) 23700 (2003) 48400 23700 24600 35300 36300 43900 57300 58200 79600 104000
2021-02-23 15:30 12.98 105000 (2011) 23700 (2003) 48400 23700 24600 35300 36300 43900 57300 58200 79600 104000
2021-02-23 14:30 13.05 105000 (2011) 23700 (2003) 48400 23700 24600 35300 36300 43900 57300 58200 79600 104000
2021-02-23 13:30 13.10 105000 (2011) 23700 (2003) 48400 23700 24600 35300 36300 43900 57300 58200 79600 104000
2021-02-23 12:30 13.23 105000 (2011) 23700 (2003) 48400 23700 24600 35300 36300 43900 57300 58200 79600 104000
2021-02-23 11:30 13.05 105000 (2011) 23700 (2003) 48400 23700 24600 35300 36300 43900 57300 58200 79600 104000
2021-02-23 10:30 12.66 105000 (2011) 23700 (2003) 48400 23700 24600 35300 36300 43900 57300 58200 79600 104000
2021-02-23 09:30 12.64 105000 (2011) 23700 (2003) 48400 23700 24600 35300 36300 43900 57300 58200 79600 104000
2021-02-23 08:30 12.72 105000 (2011) 23700 (2003) 48400 23700 24600 35300 36300 43900 57300 58200 79600 104000
2021-02-23 07:30 12.87 105000 (2011) 23700 (2003) 48400 23700 24600 35300 36300 43900 57300 58200 79600 104000
2021-02-23 06:30 13.00 105000 (2011) 23700 (2003) 48400 23700 24600 35300 36300 43900 57300 58200 79600 104000
2021-02-23 05:30 13.12 105000 (2011) 23700 (2003) 48400 23700 24600 35300 36300 43900 57300 58200 79600 104000
2021-02-23 04:30 13.74 105000 (2011) 23700 (2003) 48400 23700 24600 35300 36300 43900 57300 58200 79600 104000
2021-02-23 03:30 14.24 105000 (2011) 23700 (2003) 48400 23700 24600 35300 36300 43900 57300 58200 79600 104000
2021-02-23 02:30 14.62 105000 (2011) 23700 (2003) 48400 23700 24600 35300 36300 43900 57300 58200 79600 104000
2021-02-23 01:30 14.95 105000 (2011) 23700 (2003) 48400 23700 24600 35300 36300 43900 57300 58200 79600 104000
2021-02-23 00:30 15.17 105000 (2011) 23700 (2003) 48400 23700 24600 35300 36300 43900 57300 58200 79600 104000
2021-02-22 23:30 15.56 109000 (2011) 23900 (2003) 48900 23900 24800 35400 36100 44700 54100 62500 81700 108000
2021-02-22 22:30 15.64 109000 (2011) 23900 (2003) 48900 23900 24800 35400 36100 44700 54100 62500 81700 108000
2021-02-22 21:30 15.42 109000 (2011) 23900 (2003) 48900 23900 24800 35400 36100 44700 54100 62500 81700 108000
2021-02-22 20:30 17.21 109000 (2011) 23900 (2003) 48900 23900 24800 35400 36100 44700 54100 62500 81700 108000
2021-02-22 19:30 15.43 109000 (2011) 23900 (2003) 48900 23900 24800 35400 36100 44700 54100 62500 81700 108000
2021-02-22 18:30 15.38 109000 (2011) 23900 (2003) 48900 23900 24800 35400 36100 44700 54100 62500 81700 108000
2021-02-22 17:30 15.31 109000 (2011) 23900 (2003) 48900 23900 24800 35400 36100 44700 54100 62500 81700 108000
2021-02-22 16:30 15.25 109000 (2011) 23900 (2003) 48900 23900 24800 35400 36100 44700 54100 62500 81700 108000
2021-02-22 15:30 15.21 109000 (2011) 23900 (2003) 48900 23900 24800 35400 36100 44700 54100 62500 81700 108000
2021-02-22 14:30 15.27 109000 (2011) 23900 (2003) 48900 23900 24800 35400 36100 44700 54100 62500 81700 108000
2021-02-22 13:30 15.25 109000 (2011) 23900 (2003) 48900 23900 24800 35400 36100 44700 54100 62500 81700 108000
2021-02-22 12:30 15.20 109000 (2011) 23900 (2003) 48900 23900 24800 35400 36100 44700 54100 62500 81700 108000
2021-02-22 11:30 15.15 109000 (2011) 23900 (2003) 48900 23900 24800 35400 36100 44700 54100 62500 81700 108000
2021-02-22 10:30 15.11 109000 (2011) 23900 (2003) 48900 23900 24800 35400 36100 44700 54100 62500 81700 108000
2021-02-22 09:30 15.09 109000 (2011) 23900 (2003) 48900 23900 24800 35400 36100 44700 54100 62500 81700 108000
2021-02-22 08:30 15.09 109000 (2011) 23900 (2003) 48900 23900 24800 35400 36100 44700 54100 62500 81700 108000
2021-02-22 07:30 15.13 109000 (2011) 23900 (2003) 48900 23900 24800 35400 36100 44700 54100 62500 81700 108000
2021-02-22 06:30 15.17 109000 (2011) 23900 (2003) 48900 23900 24800 35400 36100 44700 54100 62500 81700 108000
2021-02-22 05:30 15.21 109000 (2011) 23900 (2003) 48900 23900 24800 35400 36100 44700 54100 62500 81700 108000
2021-02-22 04:30 15.34 109000 (2011) 23900 (2003) 48900 23900 24800 35400 36100 44700 54100 62500 81700 108000
2021-02-22 03:30 15.23 109000 (2011) 23900 (2003) 48900 23900 24800 35400 36100 44700 54100 62500 81700 108000
2021-02-22 02:30 15.65 109000 (2011) 23900 (2003) 48900 23900 24800 35400 36100 44700 54100 62500 81700 108000
2021-02-22 01:30 15.88 109000 (2011) 23900 (2003) 48900 23900 24800 35400 36100 44700 54100 62500 81700 108000
2021-02-22 00:30 16.05 109000 (2011) 23900 (2003) 48900 23900 24800 35400 36100 44700 54100 62500 81700 108000
2021-02-21 23:30 16.20 125000 (2011) 23200 (2003) 49200 23300 25400 28500 33200 44200 61000 63400 82800 123000
2021-02-21 22:30 16.35 125000 (2011) 23200 (2003) 49200 23300 25400 28500 33200 44200 61000 63400 82800 123000
2021-02-21 21:30 15.35 125000 (2011) 23200 (2003) 49200 23300 25400 28500 33200 44200 61000 63400 82800 123000
2021-02-21 20:30 13.73 125000 (2011) 23200 (2003) 49200 23300 25400 28500 33200 44200 61000 63400 82800 123000
2021-02-21 19:30 13.90 125000 (2011) 23200 (2003) 49200 23300 25400 28500 33200 44200 61000 63400 82800 123000
2021-02-21 18:30 13.96 125000 (2011) 23200 (2003) 49200 23300 25400 28500 33200 44200 61000 63400 82800 123000
2021-02-21 17:30 13.70 125000 (2011) 23200 (2003) 49200 23300 25400 28500 33200 44200 61000 63400 82800 123000
2021-02-21 16:30 13.79 125000 (2011) 23200 (2003) 49200 23300 25400 28500 33200 44200 61000 63400 82800 123000
2021-02-21 15:30 13.77 125000 (2011) 23200 (2003) 49200 23300 25400 28500 33200 44200 61000 63400 82800 123000
2021-02-21 14:30 13.67 125000 (2011) 23200 (2003) 49200 23300 25400 28500 33200 44200 61000 63400 82800 123000
2021-02-21 13:30 13.77 125000 (2011) 23200 (2003) 49200 23300 25400 28500 33200 44200 61000 63400 82800 123000
2021-02-21 12:30 13.67 125000 (2011) 23200 (2003) 49200 23300 25400 28500 33200 44200 61000 63400 82800 123000
2021-02-21 11:30 13.63 125000 (2011) 23200 (2003) 49200 23300 25400 28500 33200 44200 61000 63400 82800 123000
2021-02-21 10:30 13.61 125000 (2011) 23200 (2003) 49200 23300 25400 28500 33200 44200 61000 63400 82800 123000
2021-02-21 09:30 13.37 125000 (2011) 23200 (2003) 49200 23300 25400 28500 33200 44200 61000 63400 82800 123000
2021-02-21 08:30 13.44 125000 (2011) 23200 (2003) 49200 23300 25400 28500 33200 44200 61000 63400 82800 123000
2021-02-21 07:30 13.41 125000 (2011) 23200 (2003) 49200 23300 25400 28500 33200 44200 61000 63400 82800 123000
2021-02-21 06:30 13.43 125000 (2011) 23200 (2003) 49200 23300 25400 28500 33200 44200 61000 63400 82800 123000
2021-02-21 05:30 13.41 125000 (2011) 23200 (2003) 49200 23300 25400 28500 33200 44200 61000 63400 82800 123000
2021-02-21 04:30 13.43 125000 (2011) 23200 (2003) 49200 23300 25400 28500 33200 44200 61000 63400 82800 123000
2021-02-20 23:15 13.53 143000 (2011) 22600 (2003) 48000 22700 25100 26600 29000 40900 56200 61800 82400 140000
2021-02-20 22:30 13.52 143000 (2011) 22600 (2003) 48000 22700 25100 26600 29000 40900 56200 61800 82400 140000
2021-02-20 21:30 13.11 143000 (2011) 22600 (2003) 48000 22700 25100 26600 29000 40900 56200 61800 82400 140000
2021-02-20 20:30 13.21 143000 (2011) 22600 (2003) 48000 22700 25100 26600 29000 40900 56200 61800 82400 140000
2021-02-20 19:30 13.44 143000 (2011) 22600 (2003) 48000 22700 25100 26600 29000 40900 56200 61800 82400 140000
2021-02-20 18:30 13.47 143000 (2011) 22600 (2003) 48000 22700 25100 26600 29000 40900 56200 61800 82400 140000
2021-02-20 17:30 13.42 143000 (2011) 22600 (2003) 48000 22700 25100 26600 29000 40900 56200 61800 82400 140000
2021-02-20 16:30 13.37 143000 (2011) 22600 (2003) 48000 22700 25100 26600 29000 40900 56200 61800 82400 140000
2021-02-20 15:30 13.34 143000 (2011) 22600 (2003) 48000 22700 25100 26600 29000 40900 56200 61800 82400 140000
2021-02-20 14:30 13.42 143000 (2011) 22600 (2003) 48000 22700 25100 26600 29000 40900 56200 61800 82400 140000
2021-02-20 13:30 13.39 143000 (2011) 22600 (2003) 48000 22700 25100 26600 29000 40900 56200 61800 82400 140000
2021-02-20 12:30 13.43 143000 (2011) 22600 (2003) 48000 22700 25100 26600 29000 40900 56200 61800 82400 140000
2021-02-20 11:30 13.40 143000 (2011) 22600 (2003) 48000 22700 25100 26600 29000 40900 56200 61800 82400 140000
2021-02-20 10:30 13.38 143000 (2011) 22600 (2003) 48000 22700 25100 26600 29000 40900 56200 61800 82400 140000
2021-02-20 09:30 13.34 143000 (2011) 22600 (2003) 48000 22700 25100 26600 29000 40900 56200 61800 82400 140000
2021-02-20 08:30 13.30 143000 (2011) 22600 (2003) 48000 22700 25100 26600 29000 40900 56200 61800 82400 140000
2021-02-20 07:30 13.23 143000 (2011) 22600 (2003) 48000 22700 25100 26600 29000 40900 56200 61800 82400 140000
2021-02-20 06:30 13.15 143000 (2011) 22600 (2003) 48000 22700 25100 26600 29000 40900 56200 61800 82400 140000
2021-02-20 05:30 13.05 143000 (2011) 22600 (2003) 48000 22700 25100 26600 29000 40900 56200 61800 82400 140000
2021-02-20 04:30 12.93 143000 (2011) 22600 (2003) 48000 22700 25100 26600 29000 40900 56200 61800 82400 140000
2021-02-20 03:30 12.76 143000 (2011) 22600 (2003) 48000 22700 25100 26600 29000 40900 56200 61800 82400 140000
2021-02-20 02:30 12.61 143000 (2011) 22600 (2003) 48000 22700 25100 26600 29000 40900 56200 61800 82400 140000
2021-02-20 01:30 12.48 143000 (2011) 22600 (2003) 48000 22700 25100 26600 29000 40900 56200 61800 82400 140000
2021-02-20 00:30 12.36 143000 (2011) 22600 (2003) 48000 22700 25100 26600 29000 40900 56200 61800 82400 140000
2021-02-19 23:30 12.23 128000 (2011) 22300 (2003) 47200 22400 24300 25900 26700 40800 59600 65100 78500 126000
2021-02-19 22:30 12.17 128000 (2011) 22300 (2003) 47200 22400 24300 25900 26700 40800 59600 65100 78500 126000
2021-02-19 21:30 12.15 128000 (2011) 22300 (2003) 47200 22400 24300 25900 26700 40800 59600 65100 78500 126000
2021-02-19 20:30 12.12 128000 (2011) 22300 (2003) 47200 22400 24300 25900 26700 40800 59600 65100 78500 126000
2021-02-19 19:30 12.11 128000 (2011) 22300 (2003) 47200 22400 24300 25900 26700 40800 59600 65100 78500 126000
2021-02-19 18:30 12.11 128000 (2011) 22300 (2003) 47200 22400 24300 25900 26700 40800 59600 65100 78500 126000
2021-02-19 17:30 12.14 128000 (2011) 22300 (2003) 47200 22400 24300 25900 26700 40800 59600 65100 78500 126000
2021-02-19 16:30 12.22 128000 (2011) 22300 (2003) 47200 22400 24300 25900 26700 40800 59600 65100 78500 126000
2021-02-19 14:30 12.24 128000 (2011) 22300 (2003) 47200 22400 24300 25900 26700 40800 59600 65100 78500 126000
2021-02-19 13:30 11.92 128000 (2011) 22300 (2003) 47200 22400 24300 25900 26700 40800 59600 65100 78500 126000
2021-02-19 12:30 12.13 128000 (2011) 22300 (2003) 47200 22400 24300 25900 26700 40800 59600 65100 78500 126000
2021-02-19 11:30 12.21 128000 (2011) 22300 (2003) 47200 22400 24300 25900 26700 40800 59600 65100 78500 126000
2021-02-19 10:30 12.25 128000 (2011) 22300 (2003) 47200 22400 24300 25900 26700 40800 59600 65100 78500 126000
2021-02-19 09:30 12.29 128000 (2011) 22300 (2003) 47200 22400 24300 25900 26700 40800 59600 65100 78500 126000
2021-02-19 08:30 12.32 128000 (2011) 22300 (2003) 47200 22400 24300 25900 26700 40800 59600 65100 78500 126000
2021-02-19 07:30 12.35 128000 (2011) 22300 (2003) 47200 22400 24300 25900 26700 40800 59600 65100 78500 126000
2021-02-19 06:30 12.01 128000 (2011) 22300 (2003) 47200 22400 24300 25900 26700 40800 59600 65100 78500 126000
2021-02-19 05:30 12.03 128000 (2011) 22300 (2003) 47200 22400 24300 25900 26700 40800 59600 65100 78500 126000
2021-02-19 04:30 12.26 128000 (2011) 22300 (2003) 47200 22400 24300 25900 26700 40800 59600 65100 78500 126000
2021-02-19 03:30 12.17 128000 (2011) 22300 (2003) 47200 22400 24300 25900 26700 40800 59600 65100 78500 126000
2021-02-19 02:30 12.17 128000 (2011) 22300 (2003) 47200 22400 24300 25900 26700 40800 59600 65100 78500 126000
2021-02-19 01:30 12.25 128000 (2011) 22300 (2003) 47200 22400 24300 25900 26700 40800 59600 65100 78500 126000
2021-02-19 00:30 12.73 128000 (2011) 22300 (2003) 47200 22400 24300 25900 26700 40800 59600 65100 78500 126000
2021-02-18 23:30 12.51 118000 (2011) 22900 (2003) 47200 23000 24000 26200 26500 41200 59200 67100 83000 116000
2021-02-18 22:30 12.59 118000 (2011) 22900 (2003) 47200 23000 24000 26200 26500 41200 59200 67100 83000 116000
2021-02-18 21:30 12.29 118000 (2011) 22900 (2003) 47200 23000 24000 26200 26500 41200 59200 67100 83000 116000
2021-02-18 20:30 12.37 118000 (2011) 22900 (2003) 47200 23000 24000 26200 26500 41200 59200 67100 83000 116000
2021-02-18 19:30 12.50 118000 (2011) 22900 (2003) 47200 23000 24000 26200 26500 41200 59200 67100 83000 116000
2021-02-18 18:30 12.38 118000 (2011) 22900 (2003) 47200 23000 24000 26200 26500 41200 59200 67100 83000 116000
2021-02-18 17:30 12.75 118000 (2011) 22900 (2003) 47200 23000 24000 26200 26500 41200 59200 67100 83000 116000
2021-02-18 16:30 12.68 118000 (2011) 22900 (2003) 47200 23000 24000 26200 26500 41200 59200 67100 83000 116000
2021-02-18 15:30 12.55 118000 (2011) 22900 (2003) 47200 23000 24000 26200 26500 41200 59200 67100 83000 116000
2021-02-18 14:30 12.47 118000 (2011) 22900 (2003) 47200 23000 24000 26200 26500 41200 59200 67100 83000 116000
2021-02-18 13:30 12.35 118000 (2011) 22900 (2003) 47200 23000 24000 26200 26500 41200 59200 67100 83000 116000
2021-02-18 12:30 12.22 118000 (2011) 22900 (2003) 47200 23000 24000 26200 26500 41200 59200 67100 83000 116000
2021-02-18 11:30 12.18 118000 (2011) 22900 (2003) 47200 23000 24000 26200 26500 41200 59200 67100 83000 116000
2021-02-18 10:30 12.18 118000 (2011) 22900 (2003) 47200 23000 24000 26200 26500 41200 59200 67100 83000 116000
2021-02-18 09:30 12.12 118000 (2011) 22900 (2003) 47200 23000 24000 26200 26500 41200 59200 67100 83000 116000
2021-02-18 08:30 12.11 47500 118000 (2011) 22900 (2003) 47200 23000 24000 26200 26500 41200 59200 67100 83000 116000
2021-02-18 07:30 12.16 47800 118000 (2011) 22900 (2003) 47200 23000 24000 26200 26500 41200 59200 67100 83000 116000
2021-02-18 06:30 12.16 47800 118000 (2011) 22900 (2003) 47200 23000 24000 26200 26500 41200 59200 67100 83000 116000
2021-02-18 05:30 12.42 49200 118000 (2011) 22900 (2003) 47200 23000 24000 26200 26500 41200 59200 67100 83000 116000
2021-02-18 04:30 12.13 47600 118000 (2011) 22900 (2003) 47200 23000 24000 26200 26500 41200 59200 67100 83000 116000
2021-02-18 03:30 12.07 47300 118000 (2011) 22900 (2003) 47200 23000 24000 26200 26500 41200 59200 67100 83000 116000
2021-02-18 02:30 12.25 48300 118000 (2011) 22900 (2003) 47200 23000 24000 26200 26500 41200 59200 67100 83000 116000
2021-02-18 01:30 12.24 48200 118000 (2011) 22900 (2003) 47200 23000 24000 26200 26500 41200 59200 67100 83000 116000
2021-02-18 00:30 11.09 42300 118000 (2011) 22900 (2003) 47200 23000 24000 26200 26500 41200 59200 67100 83000 116000
2021-02-17 23:30 10.38 38900 102000 (2005) 23400 (2004) 45700 23500 24800 25900 26500 44000 54000 61900 76200 101000
2021-02-17 22:30 9.82 36400 102000 (2005) 23400 (2004) 45700 23500 24800 25900 26500 44000 54000 61900 76200 101000
2021-02-17 21:30 9.39 34600 102000 (2005) 23400 (2004) 45700 23500 24800 25900 26500 44000 54000 61900 76200 101000
2021-02-17 20:30 9.42 34700 102000 (2005) 23400 (2004) 45700 23500 24800 25900 26500 44000 54000 61900 76200 101000
2021-02-17 19:30 9.52 35200 102000 (2005) 23400 (2004) 45700 23500 24800 25900 26500 44000 54000 61900 76200 101000
2021-02-17 18:30 9.44 34800 102000 (2005) 23400 (2004) 45700 23500 24800 25900 26500 44000 54000 61900 76200 101000
2021-02-17 17:30 9.42 34700 102000 (2005) 23400 (2004) 45700 23500 24800 25900 26500 44000 54000 61900 76200 101000
2021-02-17 16:30 9.39 34600 102000 (2005) 23400 (2004) 45700 23500 24800 25900 26500 44000 54000 61900 76200 101000
2021-02-17 15:30 9.36 34500 102000 (2005) 23400 (2004) 45700 23500 24800 25900 26500 44000 54000 61900 76200 101000
2021-02-17 14:30 9.33 34400 102000 (2005) 23400 (2004) 45700 23500 24800 25900 26500 44000 54000 61900 76200 101000
2021-02-17 13:30 9.35 34400 102000 (2005) 23400 (2004) 45700 23500 24800 25900 26500 44000 54000 61900 76200 101000
2021-02-17 12:30 9.36 34500 102000 (2005) 23400 (2004) 45700 23500 24800 25900 26500 44000 54000 61900 76200 101000
2021-02-17 11:30 9.33 34400 102000 (2005) 23400 (2004) 45700 23500 24800 25900 26500 44000 54000 61900 76200 101000
2021-02-17 10:30 9.35 34400 102000 (2005) 23400 (2004) 45700 23500 24800 25900 26500 44000 54000 61900 76200 101000
2021-02-17 09:30 9.41 34700 102000 (2005) 23400 (2004) 45700 23500 24800 25900 26500 44000 54000 61900 76200 101000
2021-02-17 08:30 9.53 35200 102000 (2005) 23400 (2004) 45700 23500 24800 25900 26500 44000 54000 61900 76200 101000
2021-02-17 07:30 9.63 35600 102000 (2005) 23400 (2004) 45700 23500 24800 25900 26500 44000 54000 61900 76200 101000
2021-02-17 06:30 9.61 35500 102000 (2005) 23400 (2004) 45700 23500 24800 25900 26500 44000 54000 61900 76200 101000
2021-02-17 05:30 9.61 35500 102000 (2005) 23400 (2004) 45700 23500 24800 25900 26500 44000 54000 61900 76200 101000
2021-02-17 04:30 9.70 35900 102000 (2005) 23400 (2004) 45700 23500 24800 25900 26500 44000 54000 61900 76200 101000
2021-02-17 03:30 9.65 35700 102000 (2005) 23400 (2004) 45700 23500 24800 25900 26500 44000 54000 61900 76200 101000
2021-02-17 02:30 9.63 35600 102000 (2005) 23400 (2004) 45700 23500 24800 25900 26500 44000 54000 61900 76200 101000
2021-02-17 01:30 9.75 36100 102000 (2005) 23400 (2004) 45700 23500 24800 25900 26500 44000 54000 61900 76200 101000
2021-02-17 00:30 9.98 37100 102000 (2005) 23400 (2004) 45700 23500 24800 25900 26500 44000 54000 61900 76200 101000
2021-02-16 23:30 9.89 36700 113000 (2005) 22900 (2004) 45100 23000 25100 25600 26700 43900 52900 57000 74300 111000
2021-02-16 22:30 9.81 36400 113000 (2005) 22900 (2004) 45100 23000 25100 25600 26700 43900 52900 57000 74300 111000
2021-02-16 21:30 9.83 36500 113000 (2005) 22900 (2004) 45100 23000 25100 25600 26700 43900 52900 57000 74300 111000
2021-02-16 20:30 9.89 36700 113000 (2005) 22900 (2004) 45100 23000 25100 25600 26700 43900 52900 57000 74300 111000
2021-02-16 19:30 9.87 36700 113000 (2005) 22900 (2004) 45100 23000 25100 25600 26700 43900 52900 57000 74300 111000
2021-02-16 18:30 9.62 35600 113000 (2005) 22900 (2004) 45100 23000 25100 25600 26700 43900 52900 57000 74300 111000
2021-02-16 17:30 9.59 35400 113000 (2005) 22900 (2004) 45100 23000 25100 25600 26700 43900 52900 57000 74300 111000
2021-02-16 16:30 9.70 35900 113000 (2005) 22900 (2004) 45100 23000 25100 25600 26700 43900 52900 57000 74300 111000
2021-02-16 15:30 9.79 36300 113000 (2005) 22900 (2004) 45100 23000 25100 25600 26700 43900 52900 57000 74300 111000
2021-02-16 14:30 9.91 36800 113000 (2005) 22900 (2004) 45100 23000 25100 25600 26700 43900 52900 57000 74300 111000
2021-02-16 13:30 9.92 36900 113000 (2005) 22900 (2004) 45100 23000 25100 25600 26700 43900 52900 57000 74300 111000
2021-02-16 12:30 9.84 36500 113000 (2005) 22900 (2004) 45100 23000 25100 25600 26700 43900 52900 57000 74300 111000
2021-02-16 11:30 9.78 36300 113000 (2005) 22900 (2004) 45100 23000 25100 25600 26700 43900 52900 57000 74300 111000
2021-02-16 10:30 9.66 35700 113000 (2005) 22900 (2004) 45100 23000 25100 25600 26700 43900 52900 57000 74300 111000
2021-02-16 09:30 9.53 35200 113000 (2005) 22900 (2004) 45100 23000 25100 25600 26700 43900 52900 57000 74300 111000
2021-02-16 08:30 9.50 35100 113000 (2005) 22900 (2004) 45100 23000 25100 25600 26700 43900 52900 57000 74300 111000
2021-02-16 07:30 9.49 35000 113000 (2005) 22900 (2004) 45100 23000 25100 25600 26700 43900 52900 57000 74300 111000
2021-02-16 06:30 9.53 35200 113000 (2005) 22900 (2004) 45100 23000 25100 25600 26700 43900 52900 57000 74300 111000
2021-02-16 05:30 9.44 34800 113000 (2005) 22900 (2004) 45100 23000 25100 25600 26700 43900 52900 57000 74300 111000
2021-02-16 04:30 9.39 34600 113000 (2005) 22900 (2004) 45100 23000 25100 25600 26700 43900 52900 57000 74300 111000
2021-02-16 03:30 9.61 35500 113000 (2005) 22900 (2004) 45100 23000 25100 25600 26700 43900 52900 57000 74300 111000
2021-02-16 02:30 9.62 35600 113000 (2005) 22900 (2004) 45100 23000 25100 25600 26700 43900 52900 57000 74300 111000
2021-02-16 00:30 9.49 35000 113000 (2005) 22900 (2004) 45100 23000 25100 25600 26700 43900 52900 57000 74300 111000
2021-02-15 23:30 9.46 34900 118000 (2005) 22900 (2004) 45300 23000 25000 25500 26300 41200 52700 63500 77100 116000
2021-02-15 22:30 9.54 35200 118000 (2005) 22900 (2004) 45300 23000 25000 25500 26300 41200 52700 63500 77100 116000
2021-02-15 21:30 9.36 34500 118000 (2005) 22900 (2004) 45300 23000 25000 25500 26300 41200 52700 63500 77100 116000
2021-02-15 20:30 9.27 34100 118000 (2005) 22900 (2004) 45300 23000 25000 25500 26300 41200 52700 63500 77100 116000
2021-02-15 19:30 9.44 34800 118000 (2005) 22900 (2004) 45300 23000 25000 25500 26300 41200 52700 63500 77100 116000
2021-02-15 18:30 9.40 34600 118000 (2005) 22900 (2004) 45300 23000 25000 25500 26300 41200 52700 63500 77100 116000
2021-02-15 17:30 9.33 34400 118000 (2005) 22900 (2004) 45300 23000 25000 25500 26300 41200 52700 63500 77100 116000
2021-02-15 16:30 9.37 34500 118000 (2005) 22900 (2004) 45300 23000 25000 25500 26300 41200 52700 63500 77100 116000
2021-02-15 15:30 9.36 34500 118000 (2005) 22900 (2004) 45300 23000 25000 25500 26300 41200 52700 63500 77100 116000
2021-02-15 14:30 9.32 34300 118000 (2005) 22900 (2004) 45300 23000 25000 25500 26300 41200 52700 63500 77100 116000
2021-02-15 13:30 9.20 33800 118000 (2005) 22900 (2004) 45300 23000 25000 25500 26300 41200 52700 63500 77100 116000
2021-02-15 12:30 9.15 33600 118000 (2005) 22900 (2004) 45300 23000 25000 25500 26300 41200 52700 63500 77100 116000
2021-02-15 11:30 9.25 34000 118000 (2005) 22900 (2004) 45300 23000 25000 25500 26300 41200 52700 63500 77100 116000
2021-02-15 10:30 9.20 33800 118000 (2005) 22900 (2004) 45300 23000 25000 25500 26300 41200 52700 63500 77100 116000
2021-02-15 09:30 9.34 34400 118000 (2005) 22900 (2004) 45300 23000 25000 25500 26300 41200 52700 63500 77100 116000
2021-02-15 08:30 9.43 34800 118000 (2005) 22900 (2004) 45300 23000 25000 25500 26300 41200 52700 63500 77100 116000
2021-02-15 07:30 9.38 34600 118000 (2005) 22900 (2004) 45300 23000 25000 25500 26300 41200 52700 63500 77100 116000
2021-02-15 06:30 9.26 34100 118000 (2005) 22900 (2004) 45300 23000 25000 25500 26300 41200 52700 63500 77100 116000
2021-02-15 05:30 9.17 33700 118000 (2005) 22900 (2004) 45300 23000 25000 25500 26300 41200 52700 63500 77100 116000
2021-02-15 04:30 9.15 33600 118000 (2005) 22900 (2004) 45300 23000 25000 25500 26300 41200 52700 63500 77100 116000
2021-02-15 03:30 9.15 33600 118000 (2005) 22900 (2004) 45300 23000 25000 25500 26300 41200 52700 63500 77100 116000
2021-02-15 02:30 9.27 34100 118000 (2005) 22900 (2004) 45300 23000 25000 25500 26300 41200 52700 63500 77100 116000
2021-02-15 01:30 9.13 33500 118000 (2005) 22900 (2004) 45300 23000 25000 25500 26300 41200 52700 63500 77100 116000
2021-02-15 00:30 9.08 33300 118000 (2005) 22900 (2004) 45300 23000 25000 25500 26300 41200 52700 63500 77100 116000
2021-02-14 22:30 9.12 33500 94200 (2005) 23000 (2004) 44700 23000 23500 25600 25900 40300 54100 64500 80700 93600
2021-02-14 21:30 9.12 33500 94200 (2005) 23000 (2004) 44700 23000 23500 25600 25900 40300 54100 64500 80700 93600
2021-02-14 20:30 9.03 33100 94200 (2005) 23000 (2004) 44700 23000 23500 25600 25900 40300 54100 64500 80700 93600
2021-02-14 19:30 9.06 33300 94200 (2005) 23000 (2004) 44700 23000 23500 25600 25900 40300 54100 64500 80700 93600
2021-02-14 18:30 9.08 33300 94200 (2005) 23000 (2004) 44700 23000 23500 25600 25900 40300 54100 64500 80700 93600
2021-02-14 17:30 9.20 33800 94200 (2005) 23000 (2004) 44700 23000 23500 25600 25900 40300 54100 64500 80700 93600
2021-02-14 16:30 9.14 33600 94200 (2005) 23000 (2004) 44700 23000 23500 25600 25900 40300 54100 64500 80700 93600
2021-02-14 15:30 9.15 33600 94200 (2005) 23000 (2004) 44700 23000 23500 25600 25900 40300 54100 64500 80700 93600
2021-02-14 14:30 9.07 33300 94200 (2005) 23000 (2004) 44700 23000 23500 25600 25900 40300 54100 64500 80700 93600
2021-02-14 13:30 9.27 34100 94200 (2005) 23000 (2004) 44700 23000 23500 25600 25900 40300 54100 64500 80700 93600
2021-02-14 12:30 9.21 33900 94200 (2005) 23000 (2004) 44700 23000 23500 25600 25900 40300 54100 64500 80700 93600
2021-02-14 11:30 9.05 33200 94200 (2005) 23000 (2004) 44700 23000 23500 25600 25900 40300 54100 64500 80700 93600
2021-02-14 10:30 9.05 33200 94200 (2005) 23000 (2004) 44700 23000 23500 25600 25900 40300 54100 64500 80700 93600
2021-02-14 09:30 9.04 33200 94200 (2005) 23000 (2004) 44700 23000 23500 25600 25900 40300 54100 64500 80700 93600
2021-02-14 08:30 9.15 33600 94200 (2005) 23000 (2004) 44700 23000 23500 25600 25900 40300 54100 64500 80700 93600
2021-02-14 07:30 9.17 33700 94200 (2005) 23000 (2004) 44700 23000 23500 25600 25900 40300 54100 64500 80700 93600
2021-02-14 06:30 9.08 33300 94200 (2005) 23000 (2004) 44700 23000 23500 25600 25900 40300 54100 64500 80700 93600
2021-02-14 05:30 9.08 33300 94200 (2005) 23000 (2004) 44700 23000 23500 25600 25900 40300 54100 64500 80700 93600
2021-02-14 04:30 9.08 33300 94200 (2005) 23000 (2004) 44700 23000 23500 25600 25900 40300 54100 64500 80700 93600
2021-02-14 03:30 9.10 33400 94200 (2005) 23000 (2004) 44700 23000 23500 25600 25900 40300 54100 64500 80700 93600
2021-02-14 02:30 9.15 33600 94200 (2005) 23000 (2004) 44700 23000 23500 25600 25900 40300 54100 64500 80700 93600
2021-02-14 01:30 9.13 33500 94200 (2005) 23000 (2004) 44700 23000 23500 25600 25900 40300 54100 64500 80700 93600
2021-02-14 00:30 9.11 33500 94200 (2005) 23000 (2004) 44700 23000 23500 25600 25900 40300 54100 64500 80700 93600
2021-02-13 23:30 9.05 33200 83800 (2020) 22500 (2003) 42500 22500 23100 25600 26200 41400 54100 56100 65800 82900
2021-02-13 22:30 9.07 33300 83800 (2020) 22500 (2003) 42500 22500 23100 25600 26200 41400 54100 56100 65800 82900
2021-02-13 21:30 9.11 33500 83800 (2020) 22500 (2003) 42500 22500 23100 25600 26200 41400 54100 56100 65800 82900
2021-02-13 20:30 9.16 33700 83800 (2020) 22500 (2003) 42500 22500 23100 25600 26200 41400 54100 56100 65800 82900
2021-02-13 19:30 9.18 33700 83800 (2020) 22500 (2003) 42500 22500 23100 25600 26200 41400 54100 56100 65800 82900
2021-02-13 18:30 9.18 33700 83800 (2020) 22500 (2003) 42500 22500 23100 25600 26200 41400 54100 56100 65800 82900
2021-02-13 17:30 9.18 33700 83800 (2020) 22500 (2003) 42500 22500 23100 25600 26200 41400 54100 56100 65800 82900
2021-02-13 16:30 9.17 33700 83800 (2020) 22500 (2003) 42500 22500 23100 25600 26200 41400 54100 56100 65800 82900
2021-02-13 15:30 9.17 33700 83800 (2020) 22500 (2003) 42500 22500 23100 25600 26200 41400 54100 56100 65800 82900
2021-02-13 14:30 9.18 33700 83800 (2020) 22500 (2003) 42500 22500 23100 25600 26200 41400 54100 56100 65800 82900
2021-02-13 13:30 9.18 33700 83800 (2020) 22500 (2003) 42500 22500 23100 25600 26200 41400 54100 56100 65800 82900
2021-02-13 12:30 9.20 33800 83800 (2020) 22500 (2003) 42500 22500 23100 25600 26200 41400 54100 56100 65800 82900
2021-02-13 11:30 9.18 33700 83800 (2020) 22500 (2003) 42500 22500 23100 25600 26200 41400 54100 56100 65800 82900
2021-02-13 10:30 9.18 33700 83800 (2020) 22500 (2003) 42500 22500 23100 25600 26200 41400 54100 56100 65800 82900
2021-02-13 09:30 9.19 33800 83800 (2020) 22500 (2003) 42500 22500 23100 25600 26200 41400 54100 56100 65800 82900
2021-02-13 08:30 9.16 33700 83800 (2020) 22500 (2003) 42500 22500 23100 25600 26200 41400 54100 56100 65800 82900
2021-02-13 07:30 9.15 33600 83800 (2020) 22500 (2003) 42500 22500 23100 25600 26200 41400 54100 56100 65800 82900
2021-02-13 06:30 9.16 33700 83800 (2020) 22500 (2003) 42500 22500 23100 25600 26200 41400 54100 56100 65800 82900
2021-02-13 05:30 9.16 33700 83800 (2020) 22500 (2003) 42500 22500 23100 25600 26200 41400 54100 56100 65800 82900
2021-02-13 04:30 9.14 33600 83800 (2020) 22500 (2003) 42500 22500 23100 25600 26200 41400 54100 56100 65800 82900
2021-02-13 03:30 9.13 33500 83800 (2020) 22500 (2003) 42500 22500 23100 25600 26200 41400 54100 56100 65800 82900
2021-02-13 02:30 9.13 33500 83800 (2020) 22500 (2003) 42500 22500 23100 25600 26200 41400 54100 56100 65800 82900
2021-02-13 01:30 9.13 33500 83800 (2020) 22500 (2003) 42500 22500 23100 25600 26200 41400 54100 56100 65800 82900
2021-02-13 00:30 9.14 33600 83800 (2020) 22500 (2003) 42500 22500 23100 25600 26200 41400 54100 56100 65800 82900
2021-02-12 23:30 9.16 33700 84000 (2020) 22000 (2003) 42400 22100 23400 25400 26500 41700 47500 55400 76400 83700
2021-02-12 22:30 9.15 33600 84000 (2020) 22000 (2003) 42400 22100 23400 25400 26500 41700 47500 55400 76400 83700
2021-02-12 21:30 9.14 33600 84000 (2020) 22000 (2003) 42400 22100 23400 25400 26500 41700 47500 55400 76400 83700
2021-02-12 20:30 9.15 33600 84000 (2020) 22000 (2003) 42400 22100 23400 25400 26500 41700 47500 55400 76400 83700
2021-02-12 19:30 9.19 33800 84000 (2020) 22000 (2003) 42400 22100 23400 25400 26500 41700 47500 55400 76400 83700
2021-02-12 18:30 9.18 33700 84000 (2020) 22000 (2003) 42400 22100 23400 25400 26500 41700 47500 55400 76400 83700
2021-02-12 17:30 9.18 33700 84000 (2020) 22000 (2003) 42400 22100 23400 25400 26500 41700 47500 55400 76400 83700
2021-02-12 16:30 9.18 33700 84000 (2020) 22000 (2003) 42400 22100 23400 25400 26500 41700 47500 55400 76400 83700
2021-02-12 15:30 9.18 33700 84000 (2020) 22000 (2003) 42400 22100 23400 25400 26500 41700 47500 55400 76400 83700
2021-02-12 14:30 9.19 33800 84000 (2020) 22000 (2003) 42400 22100 23400 25400 26500 41700 47500 55400 76400 83700
2021-02-12 13:30 9.19 33800 84000 (2020) 22000 (2003) 42400 22100 23400 25400 26500 41700 47500 55400 76400 83700
2021-02-12 12:30 9.18 33700 84000 (2020) 22000 (2003) 42400 22100 23400 25400 26500 41700 47500 55400 76400 83700
2021-02-12 11:30 9.16 33700 84000 (2020) 22000 (2003) 42400 22100 23400 25400 26500 41700 47500 55400 76400 83700
2021-02-12 10:30 9.18 33700 84000 (2020) 22000 (2003) 42400 22100 23400 25400 26500 41700 47500 55400 76400 83700
2021-02-12 09:30 9.19 33800 84000 (2020) 22000 (2003) 42400 22100 23400 25400 26500 41700 47500 55400 76400 83700
2021-02-12 08:30 9.20 33800 84000 (2020) 22000 (2003) 42400 22100 23400 25400 26500 41700 47500 55400 76400 83700
2021-02-12 07:30 9.21 33900 84000 (2020) 22000 (2003) 42400 22100 23400 25400 26500 41700 47500 55400 76400 83700
2021-02-12 06:30 9.20 33800 84000 (2020) 22000 (2003) 42400 22100 23400 25400 26500 41700 47500 55400 76400 83700
2021-02-12 05:30 9.19 33800 84000 (2020) 22000 (2003) 42400 22100 23400 25400 26500 41700 47500 55400 76400 83700
2021-02-12 04:30 9.19 33800 84000 (2020) 22000 (2003) 42400 22100 23400 25400 26500 41700 47500 55400 76400 83700
2021-02-12 03:30 9.19 33800 84000 (2020) 22000 (2003) 42400 22100 23400 25400 26500 41700 47500 55400 76400 83700
2021-02-12 02:30 9.20 33800 84000 (2020) 22000 (2003) 42400 22100 23400 25400 26500 41700 47500 55400 76400 83700
2021-02-12 01:30 9.20 33800 84000 (2020) 22000 (2003) 42400 22100 23400 25400 26500 41700 47500 55400 76400 83700
2021-02-12 00:30 9.20 33800 84000 (2020) 22000 (2003) 42400 22100 23400 25400 26500 41700 47500 55400 76400 83700
2021-02-11 23:30 9.21 33900 94700 (2001) 22000 (2003) 43100 22100 23700 25700 26100 41500 48600 55000 83000 94300
2021-02-11 22:30 9.21 33900 94700 (2001) 22000 (2003) 43100 22100 23700 25700 26100 41500 48600 55000 83000 94300
2021-02-11 21:30 9.21 33900 94700 (2001) 22000 (2003) 43100 22100 23700 25700 26100 41500 48600 55000 83000 94300
2021-02-11 20:30 9.20 33800 94700 (2001) 22000 (2003) 43100 22100 23700 25700 26100 41500 48600 55000 83000 94300
2021-02-11 19:30 9.20 33800 94700 (2001) 22000 (2003) 43100 22100 23700 25700 26100 41500 48600 55000 83000 94300
2021-02-11 18:30 9.22 33900 94700 (2001) 22000 (2003) 43100 22100 23700 25700 26100 41500 48600 55000 83000 94300
2021-02-11 17:30 9.23 33900 94700 (2001) 22000 (2003) 43100 22100 23700 25700 26100 41500 48600 55000 83000 94300
2021-02-11 16:30 9.23 33900 94700 (2001) 22000 (2003) 43100 22100 23700 25700 26100 41500 48600 55000 83000 94300
2021-02-11 15:30 9.25 34000 94700 (2001) 22000 (2003) 43100 22100 23700 25700 26100 41500 48600 55000 83000 94300
2021-02-11 14:30 9.25 34000 94700 (2001) 22000 (2003) 43100 22100 23700 25700 26100 41500 48600 55000 83000 94300
2021-02-11 13:30 9.27 34100 94700 (2001) 22000 (2003) 43100 22100 23700 25700 26100 41500 48600 55000 83000 94300
2021-02-11 12:30 9.26 34100 94700 (2001) 22000 (2003) 43100 22100 23700 25700 26100 41500 48600 55000 83000 94300
2021-02-11 11:30 9.27 34100 94700 (2001) 22000 (2003) 43100 22100 23700 25700 26100 41500 48600 55000 83000 94300
2021-02-11 10:30 9.27 34100 94700 (2001) 22000 (2003) 43100 22100 23700 25700 26100 41500 48600 55000 83000 94300
2021-02-11 09:30 9.29 34200 94700 (2001) 22000 (2003) 43100 22100 23700 25700 26100 41500 48600 55000 83000 94300
2021-02-11 08:30 9.30 34200 94700 (2001) 22000 (2003) 43100 22100 23700 25700 26100 41500 48600 55000 83000 94300
2021-02-11 07:30 9.30 34200 94700 (2001) 22000 (2003) 43100 22100 23700 25700 26100 41500 48600 55000 83000 94300
2021-02-11 06:30 9.33 34400 94700 (2001) 22000 (2003) 43100 22100 23700 25700 26100 41500 48600 55000 83000 94300
2021-02-11 05:30 9.33 34400 94700 (2001) 22000 (2003) 43100 22100 23700 25700 26100 41500 48600 55000 83000 94300
2021-02-11 04:30 9.35 34400 94700 (2001) 22000 (2003) 43100 22100 23700 25700 26100 41500 48600 55000 83000 94300
2021-02-11 03:30 9.36 34500 94700 (2001) 22000 (2003) 43100 22100 23700 25700 26100 41500 48600 55000 83000 94300
2021-02-11 02:30 9.38 34600 94700 (2001) 22000 (2003) 43100 22100 23700 25700 26100 41500 48600 55000 83000 94300
2021-02-11 01:30 9.41 34700 94700 (2001) 22000 (2003) 43100 22100 23700 25700 26100 41500 48600 55000 83000 94300
2021-02-11 00:30 9.43 34800 94700 (2001) 22000 (2003) 43100 22100 23700 25700 26100 41500 48600 55000 83000 94300
2021-02-10 23:30 9.46 34900 96800 (2001) 22000 (2003) 43900 22100 23500 25400 26000 41300 49600 57000 87400 96500
2021-02-10 22:30 9.47 34900 96800 (2001) 22000 (2003) 43900 22100 23500 25400 26000 41300 49600 57000 87400 96500
2021-02-10 21:30 9.50 35100 96800 (2001) 22000 (2003) 43900 22100 23500 25400 26000 41300 49600 57000 87400 96500
2021-02-10 20:30 9.52 35200 96800 (2001) 22000 (2003) 43900 22100 23500 25400 26000 41300 49600 57000 87400 96500
2021-02-10 19:30 9.54 35200 96800 (2001) 22000 (2003) 43900 22100 23500 25400 26000 41300 49600 57000 87400 96500
2021-02-10 18:30 9.55 35300 96800 (2001) 22000 (2003) 43900 22100 23500 25400 26000 41300 49600 57000 87400 96500
2021-02-10 17:30 9.57 35400 96800 (2001) 22000 (2003) 43900 22100 23500 25400 26000 41300 49600 57000 87400 96500
2021-02-10 16:30 9.59 35400 96800 (2001) 22000 (2003) 43900 22100 23500 25400 26000 41300 49600 57000 87400 96500
2021-02-10 15:30 9.61 35500 96800 (2001) 22000 (2003) 43900 22100 23500 25400 26000 41300 49600 57000 87400 96500
2021-02-10 14:30 9.60 35500 96800 (2001) 22000 (2003) 43900 22100 23500 25400 26000 41300 49600 57000 87400 96500
2021-02-10 13:30 9.63 35600 96800 (2001) 22000 (2003) 43900 22100 23500 25400 26000 41300 49600 57000 87400 96500
2021-02-10 12:30 9.64 35700 96800 (2001) 22000 (2003) 43900 22100 23500 25400 26000 41300 49600 57000 87400 96500
2021-02-10 11:30 9.65 35700 96800 (2001) 22000 (2003) 43900 22100 23500 25400 26000 41300 49600 57000 87400 96500
2021-02-10 10:30 9.66 35700 96800 (2001) 22000 (2003) 43900 22100 23500 25400 26000 41300 49600 57000 87400 96500
2021-02-10 09:30 9.68 35800 96800 (2001) 22000 (2003) 43900 22100 23500 25400 26000 41300 49600 57000 87400 96500
2021-02-10 08:30 9.70 35900 96800 (2001) 22000 (2003) 43900 22100 23500 25400 26000 41300 49600 57000 87400 96500
2021-02-10 07:30 9.71 36000 96800 (2001) 22000 (2003) 43900 22100 23500 25400 26000 41300 49600 57000 87400 96500
2021-02-10 06:30 9.72 36000 96800 (2001) 22000 (2003) 43900 22100 23500 25400 26000 41300 49600 57000 87400 96500
2021-02-10 05:30 9.72 36000 96800 (2001) 22000 (2003) 43900 22100 23500 25400 26000 41300 49600 57000 87400 96500
2021-02-10 04:30 9.73 36000 96800 (2001) 22000 (2003) 43900 22100 23500 25400 26000 41300 49600 57000 87400 96500
2021-02-10 03:30 9.75 36100 96800 (2001) 22000 (2003) 43900 22100 23500 25400 26000 41300 49600 57000 87400 96500
2021-02-10 02:30 9.74 36100 96800 (2001) 22000 (2003) 43900 22100 23500 25400 26000 41300 49600 57000 87400 96500
2021-02-10 01:30 9.73 36000 96800 (2001) 22000 (2003) 43900 22100 23500 25400 26000 41300 49600 57000 87400 96500
2021-02-10 00:30 9.76 36200 96800 (2001) 22000 (2003) 43900 22100 23500 25400 26000 41300 49600 57000 87400 96500
2021-02-09 23:30 9.78 36300 93800 (2020) 22000 (2003) 42900 22000 23100 25000 26100 40500 53000 60000 66600 92500
2021-02-09 22:30 9.77 36200 93800 (2020) 22000 (2003) 42900 22000 23100 25000 26100 40500 53000 60000 66600 92500
2021-02-09 21:30 9.77 36200 93800 (2020) 22000 (2003) 42900 22000 23100 25000 26100 40500 53000 60000 66600 92500
2021-02-09 20:30 9.78 36300 93800 (2020) 22000 (2003) 42900 22000 23100 25000 26100 40500 53000 60000 66600 92500
2021-02-09 19:30 9.80 36300 93800 (2020) 22000 (2003) 42900 22000 23100 25000 26100 40500 53000 60000 66600 92500
2021-02-09 18:30 9.82 36400 93800 (2020) 22000 (2003) 42900 22000 23100 25000 26100 40500 53000 60000 66600 92500
2021-02-09 17:30 9.83 36500 93800 (2020) 22000 (2003) 42900 22000 23100 25000 26100 40500 53000 60000 66600 92500
2021-02-09 16:30 9.83 36500 93800 (2020) 22000 (2003) 42900 22000 23100 25000 26100 40500 53000 60000 66600 92500
2021-02-09 15:30 9.85 36600 93800 (2020) 22000 (2003) 42900 22000 23100 25000 26100 40500 53000 60000 66600 92500
2021-02-09 14:30 9.86 36600 93800 (2020) 22000 (2003) 42900 22000 23100 25000 26100 40500 53000 60000 66600 92500
2021-02-09 13:30 9.86 36600 93800 (2020) 22000 (2003) 42900 22000 23100 25000 26100 40500 53000 60000 66600 92500
2021-02-09 12:30 9.86 36600 93800 (2020) 22000 (2003) 42900 22000 23100 25000 26100 40500 53000 60000 66600 92500
2021-02-09 11:30 9.88 36700 93800 (2020) 22000 (2003) 42900 22000 23100 25000 26100 40500 53000 60000 66600 92500
2021-02-09 10:30 9.90 36800 93800 (2020) 22000 (2003) 42900 22000 23100 25000 26100 40500 53000 60000 66600 92500
2021-02-09 09:30 9.91 36800 93800 (2020) 22000 (2003) 42900 22000 23100 25000 26100 40500 53000 60000 66600 92500
2021-02-09 08:30 9.92 36900 93800 (2020) 22000 (2003) 42900 22000 23100 25000 26100 40500 53000 60000 66600 92500
2021-02-09 07:30 9.93 36900 93800 (2020) 22000 (2003) 42900 22000 23100 25000 26100 40500 53000 60000 66600 92500
2021-02-09 06:30 9.93 36900 93800 (2020) 22000 (2003) 42900 22000 23100 25000 26100 40500 53000 60000 66600 92500
2021-02-09 05:30 9.94 37000 93800 (2020) 22000 (2003) 42900 22000 23100 25000 26100 40500 53000 60000 66600 92500
2021-02-09 04:30 9.95 37000 93800 (2020) 22000 (2003) 42900 22000 23100 25000 26100 40500 53000 60000 66600 92500
2021-02-09 03:30 9.95 37000 93800 (2020) 22000 (2003) 42900 22000 23100 25000 26100 40500 53000 60000 66600 92500
2021-02-09 02:30 9.95 37000 93800 (2020) 22000 (2003) 42900 22000 23100 25000 26100 40500 53000 60000 66600 92500
2021-02-09 01:30 9.95 37000 93800 (2020) 22000 (2003) 42900 22000 23100 25000 26100 40500 53000 60000 66600 92500
2021-02-09 00:30 9.95 37000 93800 (2020) 22000 (2003) 42900 22000 23100 25000 26100 40500 53000 60000 66600 92500
2021-02-08 23:30 9.95 37000 98000 (2020) 21700 (2003) 42700 21700 22800 24900 25900 36700 54800 60000 82700 97300
2021-02-08 22:30 9.95 37000 98000 (2020) 21700 (2003) 42700 21700 22800 24900 25900 36700 54800 60000 82700 97300
2021-02-08 21:30 9.97 37100 98000 (2020) 21700 (2003) 42700 21700 22800 24900 25900 36700 54800 60000 82700 97300
2021-02-08 20:30 9.97 37100 98000 (2020) 21700 (2003) 42700 21700 22800 24900 25900 36700 54800 60000 82700 97300
2021-02-08 19:30 9.97 37100 98000 (2020) 21700 (2003) 42700 21700 22800 24900 25900 36700 54800 60000 82700 97300
2021-02-08 18:30 9.98 37100 98000 (2020) 21700 (2003) 42700 21700 22800 24900 25900 36700 54800 60000 82700 97300
2021-02-08 17:30 9.98 37100 98000 (2020) 21700 (2003) 42700 21700 22800 24900 25900 36700 54800 60000 82700 97300
2021-02-08 16:30 9.99 37200 98000 (2020) 21700 (2003) 42700 21700 22800 24900 25900 36700 54800 60000 82700 97300
2021-02-08 15:30 1 37200 98000 (2020) 21700 (2003) 42700 21700 22800 24900 25900 36700 54800 60000 82700 97300
2021-02-08 14:30 9.99 37200 98000 (2020) 21700 (2003) 42700 21700 22800 24900 25900 36700 54800 60000 82700 97300
2021-02-08 13:30 9.99 37200 98000 (2020) 21700 (2003) 42700 21700 22800 24900 25900 36700 54800 60000 82700 97300
2021-02-08 12:30 1 37200 98000 (2020) 21700 (2003) 42700 21700 22800 24900 25900 36700 54800 60000 82700 97300
2021-02-08 11:30 1 37200 98000 (2020) 21700 (2003) 42700 21700 22800 24900 25900 36700 54800 60000 82700 97300
2021-02-08 10:30 1 37200 98000 (2020) 21700 (2003) 42700 21700 22800 24900 25900 36700 54800 60000 82700 97300
2021-02-08 09:30 10.01 37300 98000 (2020) 21700 (2003) 42700 21700 22800 24900 25900 36700 54800 60000 82700 97300
2021-02-08 08:30 10.01 37300 98000 (2020) 21700 (2003) 42700 21700 22800 24900 25900 36700 54800 60000 82700 97300
2021-02-08 07:30 10.02 37300 98000 (2020) 21700 (2003) 42700 21700 22800 24900 25900 36700 54800 60000 82700 97300
2021-02-08 06:30 10.03 37400 98000 (2020) 21700 (2003) 42700 21700 22800 24900 25900 36700 54800 60000 82700 97300
2021-02-08 05:30 10.05 37400 98000 (2020) 21700 (2003) 42700 21700 22800 24900 25900 36700 54800 60000 82700 97300
2021-02-08 04:30 10.07 37500 98000 (2020) 21700 (2003) 42700 21700 22800 24900 25900 36700 54800 60000 82700 97300
2021-02-08 03:30 10.09 37600 98000 (2020) 21700 (2003) 42700 21700 22800 24900 25900 36700 54800 60000 82700 97300
2021-02-08 02:30 10.10 37700 98000 (2020) 21700 (2003) 42700 21700 22800 24900 25900 36700 54800 60000 82700 97300
2021-02-08 01:30 10.12 37800 98000 (2020) 21700 (2003) 42700 21700 22800 24900 25900 36700 54800 60000 82700 97300
2021-02-08 00:30 10.14 37800 98000 (2020) 21700 (2003) 42700 21700 22800 24900 25900 36700 54800 60000 82700 97300
2021-02-07 23:30 10.16 37900 106000 (2019) 21500 (2003) 44100 21500 22600 24300 25300 35400 56700 66800 101000 106000
2021-02-07 22:30 10.19 38100 106000 (2019) 21500 (2003) 44100 21500 22600 24300 25300 35400 56700 66800 101000 106000
2021-02-07 21:30 10.22 38200 106000 (2019) 21500 (2003) 44100 21500 22600 24300 25300 35400 56700 66800 101000 106000
2021-02-07 20:30 10.25 38300 106000 (2019) 21500 (2003) 44100 21500 22600 24300 25300 35400 56700 66800 101000 106000
2021-02-07 19:30 10.27 38400 106000 (2019) 21500 (2003) 44100 21500 22600 24300 25300 35400 56700 66800 101000 106000
2021-02-07 18:30 10.29 38500 106000 (2019) 21500 (2003) 44100 21500 22600 24300 25300 35400 56700 66800 101000 106000
2021-02-07 17:30 10.31 38600 106000 (2019) 21500 (2003) 44100 21500 22600 24300 25300 35400 56700 66800 101000 106000
2021-02-07 16:30 10.33 38700 106000 (2019) 21500 (2003) 44100 21500 22600 24300 25300 35400 56700 66800 101000 106000
2021-02-07 15:30 10.37 38900 106000 (2019) 21500 (2003) 44100 21500 22600 24300 25300 35400 56700 66800 101000 106000
2021-02-07 14:30 10.40 39000 106000 (2019) 21500 (2003) 44100 21500 22600 24300 25300 35400 56700 66800 101000 106000
2021-02-07 13:30 10.45 39300 106000 (2019) 21500 (2003) 44100 21500 22600 24300 25300 35400 56700 66800 101000 106000
2021-02-07 12:30 10.49 39400 106000 (2019) 21500 (2003) 44100 21500 22600 24300 25300 35400 56700 66800 101000 106000
2021-02-07 10:30 10.58 39900 106000 (2019) 21500 (2003) 44100 21500 22600 24300 25300 35400 56700 66800 101000 106000
2021-02-07 09:30 10.65 40200 106000 (2019) 21500 (2003) 44100 21500 22600 24300 25300 35400 56700 66800 101000 106000
2021-02-07 08:30 10.69 40400 106000 (2019) 21500 (2003) 44100 21500 22600 24300 25300 35400 56700 66800 101000 106000
2021-02-07 07:30 10.74 40600 106000 (2019) 21500 (2003) 44100 21500 22600 24300 25300 35400 56700 66800 101000 106000
2021-02-07 06:30 10.78 40800 106000 (2019) 21500 (2003) 44100 21500 22600 24300 25300 35400 56700 66800 101000 106000
2021-02-07 05:30 10.82 41000 106000 (2019) 21500 (2003) 44100 21500 22600 24300 25300 35400 56700 66800 101000 106000
2021-02-07 04:30 10.87 41200 106000 (2019) 21500 (2003) 44100 21500 22600 24300 25300 35400 56700 66800 101000 106000
2021-02-07 03:30 10.90 41400 106000 (2019) 21500 (2003) 44100 21500 22600 24300 25300 35400 56700 66800 101000 106000
2021-02-07 02:30 10.92 41500 106000 (2019) 21500 (2003) 44100 21500 22600 24300 25300 35400 56700 66800 101000 106000
2021-02-07 01:30 10.95 41600 106000 (2019) 21500 (2003) 44100 21500 22600 24300 25300 35400 56700 66800 101000 106000
2021-02-07 00:30 10.95 41600 106000 (2019) 21500 (2003) 44100 21500 22600 24300 25300 35400 56700 66800 101000 106000
2021-02-06 23:30 10.96 41700 115000 (2019) 21800 (2003) 45100 21800 22000 24600 25400 34700 54000 59400 110000 115000
2021-02-06 22:30 10.96 41700 115000 (2019) 21800 (2003) 45100 21800 22000 24600 25400 34700 54000 59400 110000 115000
2021-02-06 21:30 10.95 41600 115000 (2019) 21800 (2003) 45100 21800 22000 24600 25400 34700 54000 59400 110000 115000
2021-02-06 20:30 10.95 41600 115000 (2019) 21800 (2003) 45100 21800 22000 24600 25400 34700 54000 59400 110000 115000
2021-02-06 19:30 10.93 41500 115000 (2019) 21800 (2003) 45100 21800 22000 24600 25400 34700 54000 59400 110000 115000
2021-02-06 18:30 10.91 41400 115000 (2019) 21800 (2003) 45100 21800 22000 24600 25400 34700 54000 59400 110000 115000
2021-02-06 17:30 10.91 41400 115000 (2019) 21800 (2003) 45100 21800 22000 24600 25400 34700 54000 59400 110000 115000
2021-02-06 16:30 10.90 41400 115000 (2019) 21800 (2003) 45100 21800 22000 24600 25400 34700 54000 59400 110000 115000
2021-02-06 15:30 10.84 41100 115000 (2019) 21800 (2003) 45100 21800 22000 24600 25400 34700 54000 59400 110000 115000
2021-02-06 14:30 10.81 40900 115000 (2019) 21800 (2003) 45100 21800 22000 24600 25400 34700 54000 59400 110000 115000
2021-02-06 13:30 10.81 40900 115000 (2019) 21800 (2003) 45100 21800 22000 24600 25400 34700 54000 59400 110000 115000
2021-02-06 12:30 10.86 41200 115000 (2019) 21800 (2003) 45100 21800 22000 24600 25400 34700 54000 59400 110000 115000
2021-02-06 11:30 10.85 41100 115000 (2019) 21800 (2003) 45100 21800 22000 24600 25400 34700 54000 59400 110000 115000
2021-02-06 10:30 10.86 41200 115000 (2019) 21800 (2003) 45100 21800 22000 24600 25400 34700 54000 59400 110000 115000
2021-02-06 09:30 10.85 41100 115000 (2019) 21800 (2003) 45100 21800 22000 24600 25400 34700 54000 59400 110000 115000
2021-02-06 08:30 10.86 41200 115000 (2019) 21800 (2003) 45100 21800 22000 24600 25400 34700 54000 59400 110000 115000
2021-02-06 07:30 10.84 41100 115000 (2019) 21800 (2003) 45100 21800 22000 24600 25400 34700 54000 59400 110000 115000
2021-02-06 06:30 10.85 41100 115000 (2019) 21800 (2003) 45100 21800 22000 24600 25400 34700 54000 59400 110000 115000
2021-02-06 05:30 10.85 41100 115000 (2019) 21800 (2003) 45100 21800 22000 24600 25400 34700 54000 59400 110000 115000
2021-02-06 04:30 10.86 41200 115000 (2019) 21800 (2003) 45100 21800 22000 24600 25400 34700 54000 59400 110000 115000
2021-02-06 03:30 10.87 41200 115000 (2019) 21800 (2003) 45100 21800 22000 24600 25400 34700 54000 59400 110000 115000
2021-02-06 02:30 10.86 41200 115000 (2019) 21800 (2003) 45100 21800 22000 24600 25400 34700 54000 59400 110000 115000
2021-02-06 01:30 10.84 41100 115000 (2019) 21800 (2003) 45100 21800 22000 24600 25400 34700 54000 59400 110000 115000
2021-02-06 00:30 10.84 41100 115000 (2019) 21800 (2003) 45100 21800 22000 24600 25400 34700 54000 59400 110000 115000
2021-02-05 23:30 10.83 41000 118000 (2020) 21400 (2004) 44700 21400 22200 25200 25400 34700 52800 58100 98500 117000
2021-02-05 22:30 10.83 41000 118000 (2020) 21400 (2004) 44700 21400 22200 25200 25400 34700 52800 58100 98500 117000
2021-02-05 21:30 10.82 41000 118000 (2020) 21400 (2004) 44700 21400 22200 25200 25400 34700 52800 58100 98500 117000
2021-02-05 20:30 10.80 40900 118000 (2020) 21400 (2004) 44700 21400 22200 25200 25400 34700 52800 58100 98500 117000
2021-02-05 19:30 10.78 40800 118000 (2020) 21400 (2004) 44700 21400 22200 25200 25400 34700 52800 58100 98500 117000
2021-02-05 18:30 10.77 40700 118000 (2020) 21400 (2004) 44700 21400 22200 25200 25400 34700 52800 58100 98500 117000
2021-02-05 17:30 10.77 40700 118000 (2020) 21400 (2004) 44700 21400 22200 25200 25400 34700 52800 58100 98500 117000
2021-02-05 16:30 10.76 40700 118000 (2020) 21400 (2004) 44700 21400 22200 25200 25400 34700 52800 58100 98500 117000
2021-02-05 15:30 10.75 40700 118000 (2020) 21400 (2004) 44700 21400 22200 25200 25400 34700 52800 58100 98500 117000
2021-02-05 14:30 10.73 40600 118000 (2020) 21400 (2004) 44700 21400 22200 25200 25400 34700 52800 58100 98500 117000
2021-02-05 13:30 10.73 40600 118000 (2020) 21400 (2004) 44700 21400 22200 25200 25400 34700 52800 58100 98500 117000
2021-02-05 12:30 10.73 40600 118000 (2020) 21400 (2004) 44700 21400 22200 25200 25400 34700 52800 58100 98500 117000
2021-02-05 11:30 10.75 40700 118000 (2020) 21400 (2004) 44700 21400 22200 25200 25400 34700 52800 58100 98500 117000
2021-02-05 10:30 10.73 40600 118000 (2020) 21400 (2004) 44700 21400 22200 25200 25400 34700 52800 58100 98500 117000
2021-02-05 09:30 10.73 40600 118000 (2020) 21400 (2004) 44700 21400 22200 25200 25400 34700 52800 58100 98500 117000
2021-02-05 08:30 10.75 40700 118000 (2020) 21400 (2004) 44700 21400 22200 25200 25400 34700 52800 58100 98500 117000
2021-02-05 07:30 10.79 40800 118000 (2020) 21400 (2004) 44700 21400 22200 25200 25400 34700 52800 58100 98500 117000
2021-02-05 06:30 10.80 40900 118000 (2020) 21400 (2004) 44700 21400 22200 25200 25400 34700 52800 58100 98500 117000
2021-02-05 05:30 10.82 41000 118000 (2020) 21400 (2004) 44700 21400 22200 25200 25400 34700 52800 58100 98500 117000
2021-02-05 04:30 10.78 40800 118000 (2020) 21400 (2004) 44700 21400 22200 25200 25400 34700 52800 58100 98500 117000
2021-02-05 03:30 10.81 40900 118000 (2020) 21400 (2004) 44700 21400 22200 25200 25400 34700 52800 58100 98500 117000
2021-02-05 02:30 10.82 41000 118000 (2020) 21400 (2004) 44700 21400 22200 25200 25400 34700 52800 58100 98500 117000
2021-02-05 01:30 10.83 41000 118000 (2020) 21400 (2004) 44700 21400 22200 25200 25400 34700 52800 58100 98500 117000
2021-02-05 00:30 10.82 41000 118000 (2020) 21400 (2004) 44700 21400 22200 25200 25400 34700 52800 58100 98500 117000
2021-02-04 23:30 10.83 41000 114000 (2020) 21900 (2003) 43800 21900 22200 25700 25900 35300 46800 55400 91700 113000
2021-02-04 22:30 10.84 41100 114000 (2020) 21900 (2003) 43800 21900 22200 25700 25900 35300 46800 55400 91700 113000
2021-02-04 21:30 10.85 41100 114000 (2020) 21900 (2003) 43800 21900 22200 25700 25900 35300 46800 55400 91700 113000
2021-02-04 20:30 10.87 41200 114000 (2020) 21900 (2003) 43800 21900 22200 25700 25900 35300 46800 55400 91700 113000
2021-02-04 19:30 10.88 41300 114000 (2020) 21900 (2003) 43800 21900 22200 25700 25900 35300 46800 55400 91700 113000
2021-02-04 18:30 10.87 41200 114000 (2020) 21900 (2003) 43800 21900 22200 25700 25900 35300 46800 55400 91700 113000
2021-02-04 17:30 10.94 41600 114000 (2020) 21900 (2003) 43800 21900 22200 25700 25900 35300 46800 55400 91700 113000
2021-02-04 16:30 10.94 41600 114000 (2020) 21900 (2003) 43800 21900 22200 25700 25900 35300 46800 55400 91700 113000
2021-02-04 15:30 10.98 41800 114000 (2020) 21900 (2003) 43800 21900 22200 25700 25900 35300 46800 55400 91700 113000
2021-02-04 14:30 10.97 41700 114000 (2020) 21900 (2003) 43800 21900 22200 25700 25900 35300 46800 55400 91700 113000
2021-02-04 13:30 10.97 41700 114000 (2020) 21900 (2003) 43800 21900 22200 25700 25900 35300 46800 55400 91700 113000
2021-02-04 12:30 11.02 42000 114000 (2020) 21900 (2003) 43800 21900 22200 25700 25900 35300 46800 55400 91700 113000
2021-02-04 11:30 11.01 41900 114000 (2020) 21900 (2003) 43800 21900 22200 25700 25900 35300 46800 55400 91700 113000
2021-02-04 09:30 11.12 42400 114000 (2020) 21900 (2003) 43800 21900 22200 25700 25900 35300 46800 55400 91700 113000
2021-02-04 08:30 11.16 42600 114000 (2020) 21900 (2003) 43800 21900 22200 25700 25900 35300 46800 55400 91700 113000
2021-02-04 07:30 11.18 42700 114000 (2020) 21900 (2003) 43800 21900 22200 25700 25900 35300 46800 55400 91700 113000
2021-02-04 06:30 11.16 42600 114000 (2020) 21900 (2003) 43800 21900 22200 25700 25900 35300 46800 55400 91700 113000
2021-02-04 05:30 11.17 42700 114000 (2020) 21900 (2003) 43800 21900 22200 25700 25900 35300 46800 55400 91700 113000
2021-02-04 04:30 11.17 42700 114000 (2020) 21900 (2003) 43800 21900 22200 25700 25900 35300 46800 55400 91700 113000
2021-02-04 03:30 11.20 42800 114000 (2020) 21900 (2003) 43800 21900 22200 25700 25900 35300 46800 55400 91700 113000
2021-02-04 02:30 11.22 42900 114000 (2020) 21900 (2003) 43800 21900 22200 25700 25900 35300 46800 55400 91700 113000
2021-02-04 01:30 11.22 42900 114000 (2020) 21900 (2003) 43800 21900 22200 25700 25900 35300 46800 55400 91700 113000
2021-02-04 00:30 11.27 43200 114000 (2020) 21900 (2003) 43800 21900 22200 25700 25900 35300 46800 55400 91700 113000
2021-02-03 23:30 11.31 43400 98500 (2020) 21800 (2003) 42200 21800 22800 26000 26300 36500 47600 57000 80700 97700
2021-02-03 22:30 11.33 43500 98500 (2020) 21800 (2003) 42200 21800 22800 26000 26300 36500 47600 57000 80700 97700
2021-02-03 21:30 11.32 43400 98500 (2020) 21800 (2003) 42200 21800 22800 26000 26300 36500 47600 57000 80700 97700
2021-02-03 20:30 11.37 43700 98500 (2020) 21800 (2003) 42200 21800 22800 26000 26300 36500 47600 57000 80700 97700
2021-02-03 19:30 11.42 43900 98500 (2020) 21800 (2003) 42200 21800 22800 26000 26300 36500 47600 57000 80700 97700
2021-02-03 18:30 11.51 44400 98500 (2020) 21800 (2003) 42200 21800 22800 26000 26300 36500 47600 57000 80700 97700
2021-02-03 17:30 11.52 44400 98500 (2020) 21800 (2003) 42200 21800 22800 26000 26300 36500 47600 57000 80700 97700
2021-02-03 16:30 11.53 44500 98500 (2020) 21800 (2003) 42200 21800 22800 26000 26300 36500 47600 57000 80700 97700
2021-02-03 15:30 11.56 44600 98500 (2020) 21800 (2003) 42200 21800 22800 26000 26300 36500 47600 57000 80700 97700
2021-02-03 14:30 11.60 44800 98500 (2020) 21800 (2003) 42200 21800 22800 26000 26300 36500 47600 57000 80700 97700
2021-02-03 13:30 11.67 45200 98500 (2020) 21800 (2003) 42200 21800 22800 26000 26300 36500 47600 57000 80700 97700
2021-02-03 12:30 11.73 45500 98500 (2020) 21800 (2003) 42200 21800 22800 26000 26300 36500 47600 57000 80700 97700
2021-02-03 11:30 11.79 45800 98500 (2020) 21800 (2003) 42200 21800 22800 26000 26300 36500 47600 57000 80700 97700
2021-02-03 10:30 11.83 46000 98500 (2020) 21800 (2003) 42200 21800 22800 26000 26300 36500 47600 57000 80700 97700
2021-02-03 09:30 11.91 46500 98500 (2020) 21800 (2003) 42200 21800 22800 26000 26300 36500 47600 57000 80700 97700
2021-02-03 08:30 11.94 46600 98500 (2020) 21800 (2003) 42200 21800 22800 26000 26300 36500 47600 57000 80700 97700
2021-02-03 07:30 12.02 47000 98500 (2020) 21800 (2003) 42200 21800 22800 26000 26300 36500 47600 57000 80700 97700
2021-02-03 06:30 12.07 47300 98500 (2020) 21800 (2003) 42200 21800 22800 26000 26300 36500 47600 57000 80700 97700
2021-02-03 05:30 12.13 47600 98500 (2020) 21800 (2003) 42200 21800 22800 26000 26300 36500 47600 57000 80700 97700
2021-02-03 04:30 12.21 48100 98500 (2020) 21800 (2003) 42200 21800 22800 26000 26300 36500 47600 57000 80700 97700
2021-02-03 03:30 12.28 48400 98500 (2020) 21800 (2003) 42200 21800 22800 26000 26300 36500 47600 57000 80700 97700
2021-02-03 02:30 12.35 48800 98500 (2020) 21800 (2003) 42200 21800 22800 26000 26300 36500 47600 57000 80700 97700
2021-02-03 01:30 12.40 49100 98500 (2020) 21800 (2003) 42200 21800 22800 26000 26300 36500 47600 57000 80700 97700
2021-02-03 00:30 12.49 49600 98500 (2020) 21800 (2003) 42200 21800 22800 26000 26300 36500 47600 57000 80700 97700
2021-02-02 23:30 12.56 50000 86700 (2020) 21300 (2003) 41800 21400 23300 26800 27000 40900 47800 55800 66800 85700
2021-02-02 22:30 12.64 50400 86700 (2020) 21300 (2003) 41800 21400 23300 26800 27000 40900 47800 55800 66800 85700
2021-02-02 21:30 12.73 50900 86700 (2020) 21300 (2003) 41800 21400 23300 26800 27000 40900 47800 55800 66800 85700
2021-02-02 20:30 12.79 51300 86700 (2020) 21300 (2003) 41800 21400 23300 26800 27000 40900 47800 55800 66800 85700
2021-02-02 19:30 12.89 51900 86700 (2020) 21300 (2003) 41800 21400 23300 26800 27000 40900 47800 55800 66800 85700
2021-02-02 18:30 12.96 52300 86700 (2020) 21300 (2003) 41800 21400 23300 26800 27000 40900 47800 55800 66800 85700
2021-02-02 17:30 13.03 52700 86700 (2020) 21300 (2003) 41800 21400 23300 26800 27000 40900 47800 55800 66800 85700
2021-02-02 16:30 13.11 53100 86700 (2020) 21300 (2003) 41800 21400 23300 26800 27000 40900 47800 55800 66800 85700
2021-02-02 15:30 13.18 53500 86700 (2020) 21300 (2003) 41800 21400 23300 26800 27000 40900 47800 55800 66800 85700
2021-02-02 14:30 13.27 54100 86700 (2020) 21300 (2003) 41800 21400 23300 26800 27000 40900 47800 55800 66800 85700
2021-02-02 13:30 13.36 54600 86700 (2020) 21300 (2003) 41800 21400 23300 26800 27000 40900 47800 55800 66800 85700
2021-02-02 12:30 13.44 55100 86700 (2020) 21300 (2003) 41800 21400 23300 26800 27000 40900 47800 55800 66800 85700
2021-02-02 11:30 13.54 55700 86700 (2020) 21300 (2003) 41800 21400 23300 26800 27000 40900 47800 55800 66800 85700
2021-02-02 10:30 13.63 56300 86700 (2020) 21300 (2003) 41800 21400 23300 26800 27000 40900 47800 55800 66800 85700
2021-02-02 09:30 13.72 56800 86700 (2020) 21300 (2003) 41800 21400 23300 26800 27000 40900 47800 55800 66800 85700
2021-02-02 08:30 13.81 57400 86700 (2020) 21300 (2003) 41800 21400 23300 26800 27000 40900 47800 55800 66800 85700
2021-02-02 07:30 13.89 57900 86700 (2020) 21300 (2003) 41800 21400 23300 26800 27000 40900 47800 55800 66800 85700
2021-02-02 06:30 13.98 58400 86700 (2020) 21300 (2003) 41800 21400 23300 26800 27000 40900 47800 55800 66800 85700
2021-02-02 05:30 14.08 59100 86700 (2020) 21300 (2003) 41800 21400 23300 26800 27000 40900 47800 55800 66800 85700
2021-02-02 04:30 14.14 59500 86700 (2020) 21300 (2003) 41800 21400 23300 26800 27000 40900 47800 55800 66800 85700
2021-02-02 03:30 14.20 59800 86700 (2020) 21300 (2003) 41800 21400 23300 26800 27000 40900 47800 55800 66800 85700
2021-02-02 02:30 14.30 60500 86700 (2020) 21300 (2003) 41800 21400 23300 26800 27000 40900 47800 55800 66800 85700
2021-02-02 01:30 14.38 61000 86700 (2020) 21300 (2003) 41800 21400 23300 26800 27000 40900 47800 55800 66800 85700
2021-02-02 00:30 14.47 61600 86700 (2020) 21300 (2003) 41800 21400 23300 26800 27000 40900 47800 55800 66800 85700
2021-02-01 23:30 14.48 61700 83100 (2020) 21100 (2003) 42100 21200 24100 27300 28000 40900 53000 59500 65000 82200
2021-02-01 22:30 14.49 61700 83100 (2020) 21100 (2003) 42100 21200 24100 27300 28000 40900 53000 59500 65000 82200
2021-02-01 21:30 14.51 61900 83100 (2020) 21100 (2003) 42100 21200 24100 27300 28000 40900 53000 59500 65000 82200
2021-02-01 20:30 14.54 62100 83100 (2020) 21100 (2003) 42100 21200 24100 27300 28000 40900 53000 59500 65000 82200
2021-02-01 19:30 14.58 62300 83100 (2020) 21100 (2003) 42100 21200 24100 27300 28000 40900 53000 59500 65000 82200
2021-02-01 18:30 14.60 62500 83100 (2020) 21100 (2003) 42100 21200 24100 27300 28000 40900 53000 59500 65000 82200
2021-02-01 17:30 14.63 62700 83100 (2020) 21100 (2003) 42100 21200 24100 27300 28000 40900 53000 59500 65000 82200
2021-02-01 16:30 14.65 62800 83100 (2020) 21100 (2003) 42100 21200 24100 27300 28000 40900 53000 59500 65000 82200
2021-02-01 15:30 14.63 62700 83100 (2020) 21100 (2003) 42100 21200 24100 27300 28000 40900 53000 59500 65000 82200
2021-02-01 14:30 14.61 62500 83100 (2020) 21100 (2003) 42100 21200 24100 27300 28000 40900 53000 59500 65000 82200
2021-02-01 13:30 14.59 62400 83100 (2020) 21100 (2003) 42100 21200 24100 27300 28000 40900 53000 59500 65000 82200
2021-02-01 12:30 14.52 61900 83100 (2020) 21100 (2003) 42100 21200 24100 27300 28000 40900 53000 59500 65000 82200
2021-02-01 11:30 14.43 61300 83100 (2020) 21100 (2003) 42100 21200 24100 27300 28000 40900 53000 59500 65000 82200
2021-02-01 10:30 14.35 60800 83100 (2020) 21100 (2003) 42100 21200 24100 27300 28000 40900 53000 59500 65000 82200
2021-02-01 09:30 14.30 60500 83100 (2020) 21100 (2003) 42100 21200 24100 27300 28000 40900 53000 59500 65000 82200
2021-02-01 08:30 14.19 59800 83100 (2020) 21100 (2003) 42100 21200 24100 27300 28000 40900 53000 59500 65000 82200
2021-02-01 07:30 14.09 59100 83100 (2020) 21100 (2003) 42100 21200 24100 27300 28000 40900 53000 59500 65000 82200
2021-02-01 06:30 13.95 58300 83100 (2020) 21100 (2003) 42100 21200 24100 27300 28000 40900 53000 59500 65000 82200
2021-02-01 05:30 13.78 57200 83100 (2020) 21100 (2003) 42100 21200 24100 27300 28000 40900 53000 59500 65000 82200
2021-02-01 04:30 13.65 56400 83100 (2020) 21100 (2003) 42100 21200 24100 27300 28000 40900 53000 59500 65000 82200
2021-02-01 03:30 13.49 55400 83100 (2020) 21100 (2003) 42100 21200 24100 27300 28000 40900 53000 59500 65000 82200
2021-02-01 02:30 13.38 54700 83100 (2020) 21100 (2003) 42100 21200 24100 27300 28000 40900 53000 59500 65000 82200
2021-02-01 01:30 13.21 53700 83100 (2020) 21100 (2003) 42100 21200 24100 27300 28000 40900 53000 59500 65000 82200
2021-02-01 00:30 13.03 52700 83100 (2020) 21100 (2003) 42100 21200 24100 27300 28000 40900 53000 59500 65000 82200
2021-01-31 23:30 12.86 51700 81400 (2020) 21000 (2003) 41700 21200 24500 27600 28100 37300 56400 61300 68700 80800
2021-01-31 22:30 12.72 50900 81400 (2020) 21000 (2003) 41700 21200 24500 27600 28100 37300 56400 61300 68700 80800
2021-01-31 21:30 12.58 50100 81400 (2020) 21000 (2003) 41700 21200 24500 27600 28100 37300 56400 61300 68700 80800
2021-01-31 20:30 12.36 48900 81400 (2020) 21000 (2003) 41700 21200 24500 27600 28100 37300 56400 61300 68700 80800
2021-01-31 19:30 12.25 48300 81400 (2020) 21000 (2003) 41700 21200 24500 27600 28100 37300 56400 61300 68700 80800
2021-01-31 18:30 12.06 47300 81400 (2020) 21000 (2003) 41700 21200 24500 27600 28100 37300 56400 61300 68700 80800
2021-01-31 17:30 11.93 46600 81400 (2020) 21000 (2003) 41700 21200 24500 27600 28100 37300 56400 61300 68700 80800
2021-01-31 16:30 11.83 46000 81400 (2020) 21000 (2003) 41700 21200 24500 27600 28100 37300 56400 61300 68700 80800
2021-01-31 15:30 11.71 45400 81400 (2020) 21000 (2003) 41700 21200 24500 27600 28100 37300 56400 61300 68700 80800
2021-01-31 14:30 11.62 44900 81400 (2020) 21000 (2003) 41700 21200 24500 27600 28100 37300 56400 61300 68700 80800
2021-01-31 13:30 11.51 44400 81400 (2020) 21000 (2003) 41700 21200 24500 27600 28100 37300 56400 61300 68700 80800
2021-01-31 12:30 11.43 44000 81400 (2020) 21000 (2003) 41700 21200 24500 27600 28100 37300 56400 61300 68700 80800
2021-01-31 11:30 11.34 43500 81400 (2020) 21000 (2003) 41700 21200 24500 27600 28100 37300 56400 61300 68700 80800
2021-01-31 10:30 11.23 43000 81400 (2020) 21000 (2003) 41700 21200 24500 27600 28100 37300 56400 61300 68700 80800
2021-01-31 09:30 11.11 42400 81400 (2020) 21000 (2003) 41700 21200 24500 27600 28100 37300 56400 61300 68700 80800
2021-01-31 08:30 10.99 41800 81400 (2020) 21000 (2003) 41700 21200 24500 27600 28100 37300 56400 61300 68700 80800
2021-01-31 07:30 10.86 41200 81400 (2020) 21000 (2003) 41700 21200 24500 27600 28100 37300 56400 61300 68700 80800
2021-01-31 06:30 10.72 40500 81400 (2020) 21000 (2003) 41700 21200 24500 27600 28100 37300 56400 61300 68700 80800
2021-01-31 05:30 10.59 39900 81400 (2020) 21000 (2003) 41700 21200 24500 27600 28100 37300 56400 61300 68700 80800
2021-01-31 04:30 10.47 39300 81400 (2020) 21000 (2003) 41700 21200 24500 27600 28100 37300 56400 61300 68700 80800
2021-01-31 03:30 10.31 38600 81400 (2020) 21000 (2003) 41700 21200 24500 27600 28100 37300 56400 61300 68700 80800
2021-01-31 02:30 10.18 38000 81400 (2020) 21000 (2003) 41700 21200 24500 27600 28100 37300 56400 61300 68700 80800
2021-01-31 01:30 10.02 37300 81400 (2020) 21000 (2003) 41700 21200 24500 27600 28100 37300 56400 61300 68700 80800
2021-01-31 00:30 9.90 36800 81400 (2020) 21000 (2003) 41700 21200 24500 27600 28100 37300 56400 61300 68700 80800
2021-01-30 23:30 9.79 36300 78400 (2020) 21000 (2003) 40500 21200 24400 26700 27400 36200 48100 58600 74800 78300
2021-01-30 22:30 9.67 35800 78400 (2020) 21000 (2003) 40500 21200 24400 26700 27400 36200 48100 58600 74800 78300
2021-01-30 21:30 9.63 35600 78400 (2020) 21000 (2003) 40500 21200 24400 26700 27400 36200 48100 58600 74800 78300
2021-01-30 20:30 9.55 35300 78400 (2020) 21000 (2003) 40500 21200 24400 26700 27400 36200 48100 58600 74800 78300
2021-01-30 19:30 9.49 35000 78400 (2020) 21000 (2003) 40500 21200 24400 26700 27400 36200 48100 58600 74800 78300
2021-01-30 18:30 9.43 34800 78400 (2020) 21000 (2003) 40500 21200 24400 26700 27400 36200 48100 58600 74800 78300
2021-01-30 17:30 9.38 34600 78400 (2020) 21000 (2003) 40500 21200 24400 26700 27400 36200 48100 58600 74800 78300
2021-01-30 16:30 9.29 34200 78400 (2020) 21000 (2003) 40500 21200 24400 26700 27400 36200 48100 58600 74800 78300
2021-01-30 15:30 9.28 34100 78400 (2020) 21000 (2003) 40500 21200 24400 26700 27400 36200 48100 58600 74800 78300
2021-01-30 14:30 9.22 33900 78400 (2020) 21000 (2003) 40500 21200 24400 26700 27400 36200 48100 58600 74800 78300
2021-01-30 13:30 9.19 33800 78400 (2020) 21000 (2003) 40500 21200 24400 26700 27400 36200 48100 58600 74800 78300
2021-01-30 12:30 9.19 33800 78400 (2020) 21000 (2003) 40500 21200 24400 26700 27400 36200 48100 58600 74800 78300
2021-01-30 11:30 9.23 33900 78400 (2020) 21000 (2003) 40500 21200 24400 26700 27400 36200 48100 58600 74800 78300
2021-01-30 10:30 9.26 34100 78400 (2020) 21000 (2003) 40500 21200 24400 26700 27400 36200 48100 58600 74800 78300
2021-01-30 09:30 9.20 33800 78400 (2020) 21000 (2003) 40500 21200 24400 26700 27400 36200 48100 58600 74800 78300
2021-01-30 08:30 9.19 33800 78400 (2020) 21000 (2003) 40500 21200 24400 26700 27400 36200 48100 58600 74800 78300
2021-01-30 07:30 9.21 33900 78400 (2020) 21000 (2003) 40500 21200 24400 26700 27400 36200 48100 58600 74800 78300
2021-01-30 06:30 9.20 33800 78400 (2020) 21000 (2003) 40500 21200 24400 26700 27400 36200 48100 58600 74800 78300
2021-01-30 05:30 9.19 33800 78400 (2020) 21000 (2003) 40500 21200 24400 26700 27400 36200 48100 58600 74800 78300
2021-01-30 04:30 9.20 33800 78400 (2020) 21000 (2003) 40500 21200 24400 26700 27400 36200 48100 58600 74800 78300
2021-01-30 03:30 9.22 33900 78400 (2020) 21000 (2003) 40500 21200 24400 26700 27400 36200 48100 58600 74800 78300
2021-01-30 02:30 9.21 33900 78400 (2020) 21000 (2003) 40500 21200 24400 26700 27400 36200 48100 58600 74800 78300
2021-01-30 01:30 9.23 33900 78400 (2020) 21000 (2003) 40500 21200 24400 26700 27400 36200 48100 58600 74800 78300
2021-01-30 00:30 9.24 34000 78400 (2020) 21000 (2003) 40500 21200 24400 26700 27400 36200 48100 58600 74800 78300
2021-01-29 23:30 9.27 34100 88200 (2010) 21200 (2003) 40200 21300 23500 25000 26400 33200 47700 57900 76600 87700
2021-01-29 22:30 9.30 34200 88200 (2010) 21200 (2003) 40200 21300 23500 25000 26400 33200 47700 57900 76600 87700
2021-01-29 21:30 9.31 34300 88200 (2010) 21200 (2003) 40200 21300 23500 25000 26400 33200 47700 57900 76600 87700
2021-01-29 20:30 9.31 34300 88200 (2010) 21200 (2003) 40200 21300 23500 25000 26400 33200 47700 57900 76600 87700
2021-01-29 19:30 9.31 34300 88200 (2010) 21200 (2003) 40200 21300 23500 25000 26400 33200 47700 57900 76600 87700
2021-01-29 18:30 9.33 34400 88200 (2010) 21200 (2003) 40200 21300 23500 25000 26400 33200 47700 57900 76600 87700
2021-01-29 17:30 9.37 34500 88200 (2010) 21200 (2003) 40200 21300 23500 25000 26400 33200 47700 57900 76600 87700
2021-01-29 16:30 9.33 34400 88200 (2010) 21200 (2003) 40200 21300 23500 25000 26400 33200 47700 57900 76600 87700
2021-01-29 15:30 9.34 34400 88200 (2010) 21200 (2003) 40200 21300 23500 25000 26400 33200 47700 57900 76600 87700
2021-01-29 14:30 9.33 34400 88200 (2010) 21200 (2003) 40200 21300 23500 25000 26400 33200 47700 57900 76600 87700
2021-01-29 13:30 9.33 34400 88200 (2010) 21200 (2003) 40200 21300 23500 25000 26400 33200 47700 57900 76600 87700
2021-01-29 12:30 9.35 34400 88200 (2010) 21200 (2003) 40200 21300 23500 25000 26400 33200 47700 57900 76600 87700
2021-01-29 11:30 9.38 34600 88200 (2010) 21200 (2003) 40200 21300 23500 25000 26400 33200 47700 57900 76600 87700
2021-01-29 10:30 9.41 34700 88200 (2010) 21200 (2003) 40200 21300 23500 25000 26400 33200 47700 57900 76600 87700
2021-01-29 09:30 9.46 34900 88200 (2010) 21200 (2003) 40200 21300 23500 25000 26400 33200 47700 57900 76600 87700
2021-01-29 08:30 9.48 35000 88200 (2010) 21200 (2003) 40200 21300 23500 25000 26400 33200 47700 57900 76600 87700
2021-01-29 07:30 9.49 35000 88200 (2010) 21200 (2003) 40200 21300 23500 25000 26400 33200 47700 57900 76600 87700
2021-01-29 06:30 9.54 35200 88200 (2010) 21200 (2003) 40200 21300 23500 25000 26400 33200 47700 57900 76600 87700
2021-01-29 05:30 9.57 35400 88200 (2010) 21200 (2003) 40200 21300 23500 25000 26400 33200 47700 57900 76600 87700
2021-01-29 04:30 9.59 35400 88200 (2010) 21200 (2003) 40200 21300 23500 25000 26400 33200 47700 57900 76600 87700
2021-01-29 03:30 9.59 35400 88200 (2010) 21200 (2003) 40200 21300 23500 25000 26400 33200 47700 57900 76600 87700
2021-01-29 02:30 9.62 35600 88200 (2010) 21200 (2003) 40200 21300 23500 25000 26400 33200 47700 57900 76600 87700
2021-01-29 01:30 9.65 35700 88200 (2010) 21200 (2003) 40200 21300 23500 25000 26400 33200 47700 57900 76600 87700
2021-01-29 00:30 9.69 35900 88200 (2010) 21200 (2003) 40200 21300 23500 25000 26400 33200 47700 57900 76600 87700
2021-01-28 23:30 9.72 36000 107000 (2010) 21000 (2003) 40900 21100 23100 24700 25200 33200 48200 58200 77800 106000
2021-01-28 22:30 9.71 36000 107000 (2010) 21000 (2003) 40900 21100 23100 24700 25200 33200 48200 58200 77800 106000
2021-01-28 21:30 9.72 36000 107000 (2010) 21000 (2003) 40900 21100 23100 24700 25200 33200 48200 58200 77800 106000
2021-01-28 20:30 9.73 36000 107000 (2010) 21000 (2003) 40900 21100 23100 24700 25200 33200 48200 58200 77800 106000
2021-01-28 19:30 9.76 36200 107000 (2010) 21000 (2003) 40900 21100 23100 24700 25200 33200 48200 58200 77800 106000
2021-01-28 18:30 9.78 36300 107000 (2010) 21000 (2003) 40900 21100 23100 24700 25200 33200 48200 58200 77800 106000
2021-01-28 17:30 9.80 36300 107000 (2010) 21000 (2003) 40900 21100 23100 24700 25200 33200 48200 58200 77800 106000
2021-01-28 16:30 9.80 36300 107000 (2010) 21000 (2003) 40900 21100 23100 24700 25200 33200 48200 58200 77800 106000
2021-01-28 15:30 9.77 36200 107000 (2010) 21000 (2003) 40900 21100 23100 24700 25200 33200 48200 58200 77800 106000
2021-01-28 14:30 9.80 36300 107000 (2010) 21000 (2003) 40900 21100 23100 24700 25200 33200 48200 58200 77800 106000
2021-01-28 13:30 9.88 36700 107000 (2010) 21000 (2003) 40900 21100 23100 24700 25200 33200 48200 58200 77800 106000
2021-01-28 12:30 9.88 36700 107000 (2010) 21000 (2003) 40900 21100 23100 24700 25200 33200 48200 58200 77800 106000
2021-01-28 11:30 9.92 36900 107000 (2010) 21000 (2003) 40900 21100 23100 24700 25200 33200 48200 58200 77800 106000
2021-01-28 10:30 10.01 37300 107000 (2010) 21000 (2003) 40900 21100 23100 24700 25200 33200 48200 58200 77800 106000
2021-01-28 09:30 10.03 37400 107000 (2010) 21000 (2003) 40900 21100 23100 24700 25200 33200 48200 58200 77800 106000
2021-01-28 08:30 10.05 37400 107000 (2010) 21000 (2003) 40900 21100 23100 24700 25200 33200 48200 58200 77800 106000
2021-01-28 07:30 10.06 37500 107000 (2010) 21000 (2003) 40900 21100 23100 24700 25200 33200 48200 58200 77800 106000
2021-01-28 06:30 10.07 37500 107000 (2010) 21000 (2003) 40900 21100 23100 24700 25200 33200 48200 58200 77800 106000
2021-01-28 05:30 10.08 37600 107000 (2010) 21000 (2003) 40900 21100 23100 24700 25200 33200 48200 58200 77800 106000
2021-01-28 04:30 10.09 37600 107000 (2010) 21000 (2003) 40900 21100 23100 24700 25200 33200 48200 58200 77800 106000
2021-01-28 03:30 10.07 37500 107000 (2010) 21000 (2003) 40900 21100 23100 24700 25200 33200 48200 58200 77800 106000
2021-01-28 02:30 10.05 37400 107000 (2010) 21000 (2003) 40900 21100 23100 24700 25200 33200 48200 58200 77800 106000
2021-01-28 01:30 10.06 37500 107000 (2010) 21000 (2003) 40900 21100 23100 24700 25200 33200 48200 58200 77800 106000
2021-01-28 00:30 10.07 37500 107000 (2010) 21000 (2003) 40900 21100 23100 24700 25200 33200 48200 58200 77800 106000
2021-01-27 23:30 10.07 37500 126000 (2010) 20600 (2003) 41600 20700 23100 24400 24900 32500 49100 58500 76900 124000
2021-01-27 22:30 10.07 37500 126000 (2010) 20600 (2003) 41600 20700 23100 24400 24900 32500 49100 58500 76900 124000
2021-01-27 21:30 10.07 37500 126000 (2010) 20600 (2003) 41600 20700 23100 24400 24900 32500 49100 58500 76900 124000
2021-01-27 20:30 10.08 37600 126000 (2010) 20600 (2003) 41600 20700 23100 24400 24900 32500 49100 58500 76900 124000
2021-01-27 19:30 10.08 37600 126000 (2010) 20600 (2003) 41600 20700 23100 24400 24900 32500 49100 58500 76900 124000
2021-01-27 18:30 10.07 37500 126000 (2010) 20600 (2003) 41600 20700 23100 24400 24900 32500 49100 58500 76900 124000
2021-01-27 17:30 10.07 37500 126000 (2010) 20600 (2003) 41600 20700 23100 24400 24900 32500 49100 58500 76900 124000
2021-01-27 16:30 10.07 37500 126000 (2010) 20600 (2003) 41600 20700 23100 24400 24900 32500 49100 58500 76900 124000
2021-01-27 15:30 10.07 37500 126000 (2010) 20600 (2003) 41600 20700 23100 24400 24900 32500 49100 58500 76900 124000
2021-01-27 14:30 1 37200 126000 (2010) 20600 (2003) 41600 20700 23100 24400 24900 32500 49100 58500 76900 124000
2021-01-27 13:30 10.04 37400 126000 (2010) 20600 (2003) 41600 20700 23100 24400 24900 32500 49100 58500 76900 124000
2021-01-27 12:30 10.02 37300 126000 (2010) 20600 (2003) 41600 20700 23100 24400 24900 32500 49100 58500 76900 124000
2021-01-27 11:30 1 37200 126000 (2010) 20600 (2003) 41600 20700 23100 24400 24900 32500 49100 58500 76900 124000
2021-01-27 10:30 9.98 37100 126000 (2010) 20600 (2003) 41600 20700 23100 24400 24900 32500 49100 58500 76900 124000
2021-01-27 09:30 9.97 37100 126000 (2010) 20600 (2003) 41600 20700 23100 24400 24900 32500 49100 58500 76900 124000
2021-01-27 08:30 9.95 37000 126000 (2010) 20600 (2003) 41600 20700 23100 24400 24900 32500 49100 58500 76900 124000
2021-01-27 07:30 9.92 36900 126000 (2010) 20600 (2003) 41600 20700 23100 24400 24900 32500 49100 58500 76900 124000
2021-01-27 06:30 9.89 36700 126000 (2010) 20600 (2003) 41600 20700 23100 24400 24900 32500 49100 58500 76900 124000
2021-01-27 05:30 9.86 36600 126000 (2010) 20600 (2003) 41600 20700 23100 24400 24900 32500 49100 58500 76900 124000
2021-01-27 04:30 9.84 36500 126000 (2010) 20600 (2003) 41600 20700 23100 24400 24900 32500 49100 58500 76900 124000
2021-01-27 03:30 9.80 36300 126000 (2010) 20600 (2003) 41600 20700 23100 24400 24900 32500 49100 58500 76900 124000
2021-01-27 02:30 9.78 36300 126000 (2010) 20600 (2003) 41600 20700 23100 24400 24900 32500 49100 58500 76900 124000
2021-01-27 01:30 9.77 36200 126000 (2010) 20600 (2003) 41600 20700 23100 24400 24900 32500 49100 58500 76900 124000
2021-01-27 00:30 9.76 36200 126000 (2010) 20600 (2003) 41600 20700 23100 24400 24900 32500 49100 58500 76900 124000
2021-01-26 23:30 9.74 36100 146000 (2010) 20100 (2003) 42700 20300 23400 24300 25300 33100 51400 58600 74500 142000
2021-01-26 22:30 9.73 36000 146000 (2010) 20100 (2003) 42700 20300 23400 24300 25300 33100 51400 58600 74500 142000
2021-01-26 21:30 9.71 36000 146000 (2010) 20100 (2003) 42700 20300 23400 24300 25300 33100 51400 58600 74500 142000
2021-01-26 20:30 9.69 35900 146000 (2010) 20100 (2003) 42700 20300 23400 24300 25300 33100 51400 58600 74500 142000
2021-01-26 19:30 9.68 35800 146000 (2010) 20100 (2003) 42700 20300 23400 24300 25300 33100 51400 58600 74500 142000
2021-01-26 18:30 9.67 35800 146000 (2010) 20100 (2003) 42700 20300 23400 24300 25300 33100 51400 58600 74500 142000
2021-01-26 17:30 9.66 35700 146000 (2010) 20100 (2003) 42700 20300 23400 24300 25300 33100 51400 58600 74500 142000
2021-01-26 16:30 9.65 35700 146000 (2010) 20100 (2003) 42700 20300 23400 24300 25300 33100 51400 58600 74500 142000
2021-01-26 15:30 9.64 35700 146000 (2010) 20100 (2003) 42700 20300 23400 24300 25300 33100 51400 58600 74500 142000
2021-01-26 14:30 9.62 35600 146000 (2010) 20100 (2003) 42700 20300 23400 24300 25300 33100 51400 58600 74500 142000
2021-01-26 13:30 9.62 35600 146000 (2010) 20100 (2003) 42700 20300 23400 24300 25300 33100 51400 58600 74500 142000
2021-01-26 12:30 9.61 35500 146000 (2010) 20100 (2003) 42700 20300 23400 24300 25300 33100 51400 58600 74500 142000
2021-01-26 11:30 9.58 35400 146000 (2010) 20100 (2003) 42700 20300 23400 24300 25300 33100 51400 58600 74500 142000
2021-01-26 10:30 9.56 35300 146000 (2010) 20100 (2003) 42700 20300 23400 24300 25300 33100 51400 58600 74500 142000
2021-01-26 09:30 9.55 35300 146000 (2010) 20100 (2003) 42700 20300 23400 24300 25300 33100 51400 58600 74500 142000
2021-01-26 08:30 9.53 35200 146000 (2010) 20100 (2003) 42700 20300 23400 24300 25300 33100 51400 58600 74500 142000
2021-01-26 07:30 9.53 35200 146000 (2010) 20100 (2003) 42700 20300 23400 24300 25300 33100 51400 58600 74500 142000
2021-01-26 06:30 9.54 35200 146000 (2010) 20100 (2003) 42700 20300 23400 24300 25300 33100 51400 58600 74500 142000
2021-01-26 05:30 9.48 35000 146000 (2010) 20100 (2003) 42700 20300 23400 24300 25300 33100 51400 58600 74500 142000
2021-01-26 04:30 9.51 35100 146000 (2010) 20100 (2003) 42700 20300 23400 24300 25300 33100 51400 58600 74500 142000
2021-01-26 03:30 9.52 35200 146000 (2010) 20100 (2003) 42700 20300 23400 24300 25300 33100 51400 58600 74500 142000
2021-01-26 02:30 9.49 35000 146000 (2010) 20100 (2003) 42700 20300 23400 24300 25300 33100 51400 58600 74500 142000
2021-01-26 01:30 9.49 35000 146000 (2010) 20100 (2003) 42700 20300 23400 24300 25300 33100 51400 58600 74500 142000
2021-01-26 00:30 9.47 34900 146000 (2010) 20100 (2003) 42700 20300 23400 24300 25300 33100 51400 58600 74500 142000
2021-01-25 23:30 9.46 34900 138000 (2010) 19900 (2003) 42400 20100 23600 24500 24900 34000 52100 57500 71800 135000
2021-01-25 22:30 9.46 34900 138000 (2010) 19900 (2003) 42400 20100 23600 24500 24900 34000 52100 57500 71800 135000
2021-01-25 21:30 9.44 34800 138000 (2010) 19900 (2003) 42400 20100 23600 24500 24900 34000 52100 57500 71800 135000
2021-01-25 20:30 9.43 34800 138000 (2010) 19900 (2003) 42400 20100 23600 24500 24900 34000 52100 57500 71800 135000
2021-01-25 19:30 9.41 34700 138000 (2010) 19900 (2003) 42400 20100 23600 24500 24900 34000 52100 57500 71800 135000
2021-01-25 18:30 9.39 34600 138000 (2010) 19900 (2003) 42400 20100 23600 24500 24900 34000 52100 57500 71800 135000
2021-01-25 17:30 9.38 34600 138000 (2010) 19900 (2003) 42400 20100 23600 24500 24900 34000 52100 57500 71800 135000
2021-01-25 16:30 9.38 34600 138000 (2010) 19900 (2003) 42400 20100 23600 24500 24900 34000 52100 57500 71800 135000
2021-01-25 15:30 9.36 34500 138000 (2010) 19900 (2003) 42400 20100 23600 24500 24900 34000 52100 57500 71800 135000
2021-01-25 14:30 9.35 34400 138000 (2010) 19900 (2003) 42400 20100 23600 24500 24900 34000 52100 57500 71800 135000
2021-01-25 13:30 9.30 34200 138000 (2010) 19900 (2003) 42400 20100 23600 24500 24900 34000 52100 57500 71800 135000
2021-01-25 12:30 9.32 34300 138000 (2010) 19900 (2003) 42400 20100 23600 24500 24900 34000 52100 57500 71800 135000
2021-01-25 11:30 9.30 34200 138000 (2010) 19900 (2003) 42400 20100 23600 24500 24900 34000 52100 57500 71800 135000
2021-01-25 10:30 9.30 34200 138000 (2010) 19900 (2003) 42400 20100 23600 24500 24900 34000 52100 57500 71800 135000
2021-01-25 09:30 9.29 34200 138000 (2010) 19900 (2003) 42400 20100 23600 24500 24900 34000 52100 57500 71800 135000
2021-01-25 08:30 9.34 34400 138000 (2010) 19900 (2003) 42400 20100 23600 24500 24900 34000 52100 57500 71800 135000
2021-01-25 07:30 9.35 34400 138000 (2010) 19900 (2003) 42400 20100 23600 24500 24900 34000 52100 57500 71800 135000
2021-01-25 06:30 9.32 34300 138000 (2010) 19900 (2003) 42400 20100 23600 24500 24900 34000 52100 57500 71800 135000
2021-01-25 05:30 9.33 34400 138000 (2010) 19900 (2003) 42400 20100 23600 24500 24900 34000 52100 57500 71800 135000
2021-01-25 04:30 9.32 34300 138000 (2010) 19900 (2003) 42400 20100 23600 24500 24900 34000 52100 57500 71800 135000
2021-01-25 03:30 9.31 34300 138000 (2010) 19900 (2003) 42400 20100 23600 24500 24900 34000 52100 57500 71800 135000
2021-01-25 02:30 9.31 34300 138000 (2010) 19900 (2003) 42400 20100 23600 24500 24900 34000 52100 57500 71800 135000
2021-01-25 01:30 9.31 34300 138000 (2010) 19900 (2003) 42400 20100 23600 24500 24900 34000 52100 57500 71800 135000
2021-01-25 00:30 9.32 34300 138000 (2010) 19900 (2003) 42400 20100 23600 24500 24900 34000 52100 57500 71800 135000
2021-01-24 23:30 9.32 34300 107000 (2010) 19800 (2003) 40800 20000 23000 25300 25600 34400 49900 56300 70300 105000
2021-01-24 22:30 9.32 34300 107000 (2010) 19800 (2003) 40800 20000 23000 25300 25600 34400 49900 56300 70300 105000
2021-01-24 21:30 9.32 34300 107000 (2010) 19800 (2003) 40800 20000 23000 25300 25600 34400 49900 56300 70300 105000
2021-01-24 20:30 9.33 34400 107000 (2010) 19800 (2003) 40800 20000 23000 25300 25600 34400 49900 56300 70300 105000
2021-01-24 19:30 9.32 34300 107000 (2010) 19800 (2003) 40800 20000 23000 25300 25600 34400 49900 56300 70300 105000
2021-01-24 18:30 9.33 34400 107000 (2010) 19800 (2003) 40800 20000 23000 25300 25600 34400 49900 56300 70300 105000
2021-01-24 17:30 9.32 34300 107000 (2010) 19800 (2003) 40800 20000 23000 25300 25600 34400 49900 56300 70300 105000
2021-01-24 16:30 9.32 34300 107000 (2010) 19800 (2003) 40800 20000 23000 25300 25600 34400 49900 56300 70300 105000
2021-01-24 15:30 9.31 34300 107000 (2010) 19800 (2003) 40800 20000 23000 25300 25600 34400 49900 56300 70300 105000
2021-01-24 14:30 9.31 34300 107000 (2010) 19800 (2003) 40800 20000 23000 25300 25600 34400 49900 56300 70300 105000
2021-01-24 13:30 9.28 34100 107000 (2010) 19800 (2003) 40800 20000 23000 25300 25600 34400 49900 56300 70300 105000
2021-01-24 12:30 9.30 34200 107000 (2010) 19800 (2003) 40800 20000 23000 25300 25600 34400 49900 56300 70300 105000
2021-01-24 11:30 9.30 34200 107000 (2010) 19800 (2003) 40800 20000 23000 25300 25600 34400 49900 56300 70300 105000
2021-01-24 10:30 9.30 34200 107000 (2010) 19800 (2003) 40800 20000 23000 25300 25600 34400 49900 56300 70300 105000
2021-01-24 09:30 9.31 34300 107000 (2010) 19800 (2003) 40800 20000 23000 25300 25600 34400 49900 56300 70300 105000
2021-01-24 08:30 9.31 34300 107000 (2010) 19800 (2003) 40800 20000 23000 25300 25600 34400 49900 56300 70300 105000
2021-01-24 07:30 9.31 34300 107000 (2010) 19800 (2003) 40800 20000 23000 25300 25600 34400 49900 56300 70300 105000
2021-01-24 06:30 9.32 34300 107000 (2010) 19800 (2003) 40800 20000 23000 25300 25600 34400 49900 56300 70300 105000
2021-01-24 05:30 9.33 34400 107000 (2010) 19800 (2003) 40800 20000 23000 25300 25600 34400 49900 56300 70300 105000
2021-01-24 04:30 9.29 34200 107000 (2010) 19800 (2003) 40800 20000 23000 25300 25600 34400 49900 56300 70300 105000
2021-01-24 03:30 9.25 34000 107000 (2010) 19800 (2003) 40800 20000 23000 25300 25600 34400 49900 56300 70300 105000
2021-01-24 02:30 9.25 34000 107000 (2010) 19800 (2003) 40800 20000 23000 25300 25600 34400 49900 56300 70300 105000
2021-01-24 01:30 9.31 34300 107000 (2010) 19800 (2003) 40800 20000 23000 25300 25600 34400 49900 56300 70300 105000
2021-01-24 00:30 9.28 34100 107000 (2010) 19800 (2003) 40800 20000 23000 25300 25600 34400 49900 56300 70300 105000
2021-01-23 23:30 9.29 34200 92800 (2010) 20000 (2003) 39900 20100 22100 25400 25800 33900 48400 56300 71000 91700
2021-01-23 22:30 9.30 34200 92800 (2010) 20000 (2003) 39900 20100 22100 25400 25800 33900 48400 56300 71000 91700
2021-01-23 21:30 9.29 34200 92800 (2010) 20000 (2003) 39900 20100 22100 25400 25800 33900 48400 56300 71000 91700
2021-01-23 20:30 9.27 34100 92800 (2010) 20000 (2003) 39900 20100 22100 25400 25800 33900 48400 56300 71000 91700
2021-01-23 19:30 9.28 34100 92800 (2010) 20000 (2003) 39900 20100 22100 25400 25800 33900 48400 56300 71000 91700
2021-01-23 18:30 9.26 34100 92800 (2010) 20000 (2003) 39900 20100 22100 25400 25800 33900 48400 56300 71000 91700
2021-01-23 17:30 9.25 34000 92800 (2010) 20000 (2003) 39900 20100 22100 25400 25800 33900 48400 56300 71000 91700
2021-01-23 16:30 9.22 33900 92800 (2010) 20000 (2003) 39900 20100 22100 25400 25800 33900 48400 56300 71000 91700
2021-01-23 15:30 9.22 33900 92800 (2010) 20000 (2003) 39900 20100 22100 25400 25800 33900 48400 56300 71000 91700
2021-01-23 14:30 9.22 33900 92800 (2010) 20000 (2003) 39900 20100 22100 25400 25800 33900 48400 56300 71000 91700
2021-01-23 13:30 9.20 33800 92800 (2010) 20000 (2003) 39900 20100 22100 25400 25800 33900 48400 56300 71000 91700
2021-01-23 12:30 9.23 33900 92800 (2010) 20000 (2003) 39900 20100 22100 25400 25800 33900 48400 56300 71000 91700
2021-01-23 11:30 9.20 33800 92800 (2010) 20000 (2003) 39900 20100 22100 25400 25800 33900 48400 56300 71000 91700
2021-01-23 10:30 9.23 33900 92800 (2010) 20000 (2003) 39900 20100 22100 25400 25800 33900 48400 56300 71000 91700
2021-01-23 09:30 9.24 34000 92800 (2010) 20000 (2003) 39900 20100 22100 25400 25800 33900 48400 56300 71000 91700
2021-01-23 08:30 9.30 34200 92800 (2010) 20000 (2003) 39900 20100 22100 25400 25800 33900 48400 56300 71000 91700
2021-01-23 07:30 9.32 34300 92800 (2010) 20000 (2003) 39900 20100 22100 25400 25800 33900 48400 56300 71000 91700
2021-01-23 06:30 9.33 34400 92800 (2010) 20000 (2003) 39900 20100 22100 25400 25800 33900 48400 56300 71000 91700
2021-01-23 05:30 9.33 34400 92800 (2010) 20000 (2003) 39900 20100 22100 25400 25800 33900 48400 56300 71000 91700
2021-01-23 04:30 9.33 34400 92800 (2010) 20000 (2003) 39900 20100 22100 25400 25800 33900 48400 56300 71000 91700
2021-01-23 03:30 9.35 34400 92800 (2010) 20000 (2003) 39900 20100 22100 25400 25800 33900 48400 56300 71000 91700
2021-01-23 02:30 9.35 34400 92800 (2010) 20000 (2003) 39900 20100 22100 25400 25800 33900 48400 56300 71000 91700
2021-01-23 01:30 9.36 34500 92800 (2010) 20000 (2003) 39900 20100 22100 25400 25800 33900 48400 56300 71000 91700
2021-01-23 00:30 9.37 34500 92800 (2010) 20000 (2003) 39900 20100 22100 25400 25800 33900 48400 56300 71000 91700
2021-01-22 23:30 9.37 34500 92600 (2010) 20400 (2003) 39900 20400 20800 25400 26100 33100 48800 56600 73500 91700
2021-01-22 22:30 9.39 34600 92600 (2010) 20400 (2003) 39900 20400 20800 25400 26100 33100 48800 56600 73500 91700
2021-01-22 21:30 9.39 34600 92600 (2010) 20400 (2003) 39900 20400 20800 25400 26100 33100 48800 56600 73500 91700
2021-01-22 20:30 9.40 34600 92600 (2010) 20400 (2003) 39900 20400 20800 25400 26100 33100 48800 56600 73500 91700
2021-01-22 19:30 9.39 34600 92600 (2010) 20400 (2003) 39900 20400 20800 25400 26100 33100 48800 56600 73500 91700
2021-01-22 18:30 9.39 34600 92600 (2010) 20400 (2003) 39900 20400 20800 25400 26100 33100 48800 56600 73500 91700
2021-01-22 17:30 9.38 34600 92600 (2010) 20400 (2003) 39900 20400 20800 25400 26100 33100 48800 56600 73500 91700
2021-01-22 16:30 9.39 34600 92600 (2010) 20400 (2003) 39900 20400 20800 25400 26100 33100 48800 56600 73500 91700
2021-01-22 15:30 9.38 34600 92600 (2010) 20400 (2003) 39900 20400 20800 25400 26100 33100 48800 56600 73500 91700
2021-01-22 14:30 9.36 34500 92600 (2010) 20400 (2003) 39900 20400 20800 25400 26100 33100 48800 56600 73500 91700
2021-01-22 13:30 9.40 34600 92600 (2010) 20400 (2003) 39900 20400 20800 25400 26100 33100 48800 56600 73500 91700
2021-01-22 12:30 9.40 34600 92600 (2010) 20400 (2003) 39900 20400 20800 25400 26100 33100 48800 56600 73500 91700
2021-01-22 11:30 9.38 34600 92600 (2010) 20400 (2003) 39900 20400 20800 25400 26100 33100 48800 56600 73500 91700
2021-01-22 10:30 9.36 34500 92600 (2010) 20400 (2003) 39900 20400 20800 25400 26100 33100 48800 56600 73500 91700
2021-01-22 09:30 9.41 34700 92600 (2010) 20400 (2003) 39900 20400 20800 25400 26100 33100 48800 56600 73500 91700
2021-01-22 08:30 9.41 34700 92600 (2010) 20400 (2003) 39900 20400 20800 25400 26100 33100 48800 56600 73500 91700
2021-01-22 07:30 9.46 34900 92600 (2010) 20400 (2003) 39900 20400 20800 25400 26100 33100 48800 56600 73500 91700
2021-01-22 06:30 9.47 34900 92600 (2010) 20400 (2003) 39900 20400 20800 25400 26100 33100 48800 56600 73500 91700
2021-01-22 05:30 9.48 35000 92600 (2010) 20400 (2003) 39900 20400 20800 25400 26100 33100 48800 56600 73500 91700
2021-01-22 04:30 9.48 35000 92600 (2010) 20400 (2003) 39900 20400 20800 25400 26100 33100 48800 56600 73500 91700
2021-01-22 03:30 9.49 35000 92600 (2010) 20400 (2003) 39900 20400 20800 25400 26100 33100 48800 56600 73500 91700
2021-01-22 02:30 9.50 35100 92600 (2010) 20400 (2003) 39900 20400 20800 25400 26100 33100 48800 56600 73500 91700
2021-01-22 01:30 9.51 35100 92600 (2010) 20400 (2003) 39900 20400 20800 25400 26100 33100 48800 56600 73500 91700
2021-01-22 00:30 9.53 35200 92600 (2010) 20400 (2003) 39900 20400 20800 25400 26100 33100 48800 56600 73500 91700
2021-01-21 23:30 9.53 35200 77000 (2010) 19900 (2007) 39800 19900 21100 25700 26400 33100 52700 58400 75900 77000
2021-01-21 22:30 9.54 35200 77000 (2010) 19900 (2007) 39800 19900 21100 25700 26400 33100 52700 58400 75900 77000
2021-01-21 21:30 9.54 35200 77000 (2010) 19900 (2007) 39800 19900 21100 25700 26400 33100 52700 58400 75900 77000
2021-01-21 20:30 9.57 35400 77000 (2010) 19900 (2007) 39800 19900 21100 25700 26400 33100 52700 58400 75900 77000
2021-01-21 19:30 9.58 35400 77000 (2010) 19900 (2007) 39800 19900 21100 25700 26400 33100 52700 58400 75900 77000
2021-01-21 18:30 9.58 35400 77000 (2010) 19900 (2007) 39800 19900 21100 25700 26400 33100 52700 58400 75900 77000
2021-01-21 17:30 9.58 35400 77000 (2010) 19900 (2007) 39800 19900 21100 25700 26400 33100 52700 58400 75900 77000
2021-01-21 16:30 9.59 35400 77000 (2010) 19900 (2007) 39800 19900 21100 25700 26400 33100 52700 58400 75900 77000
2021-01-21 15:30 9.60 35500 77000 (2010) 19900 (2007) 39800 19900 21100 25700 26400 33100 52700 58400 75900 77000
2021-01-21 14:30 9.61 35500 77000 (2010) 19900 (2007) 39800 19900 21100 25700 26400 33100 52700 58400 75900 77000
2021-01-21 13:30 9.62 35600 77000 (2010) 19900 (2007) 39800 19900 21100 25700 26400 33100 52700 58400 75900 77000
2021-01-21 12:30 9.63 35600 77000 (2010) 19900 (2007) 39800 19900 21100 25700 26400 33100 52700 58400 75900 77000
2021-01-21 11:30 9.64 35700 77000 (2010) 19900 (2007) 39800 19900 21100 25700 26400 33100 52700 58400 75900 77000
2021-01-21 10:30 9.62 35600 77000 (2010) 19900 (2007) 39800 19900 21100 25700 26400 33100 52700 58400 75900 77000
2021-01-21 09:30 9.68 35800 77000 (2010) 19900 (2007) 39800 19900 21100 25700 26400 33100 52700 58400 75900 77000
2021-01-21 08:30 9.70 35900 77000 (2010) 19900 (2007) 39800 19900 21100 25700 26400 33100 52700 58400 75900 77000
2021-01-21 07:30 9.70 35900 77000 (2010) 19900 (2007) 39800 19900 21100 25700 26400 33100 52700 58400 75900 77000
2021-01-21 06:30 9.71 36000 77000 (2010) 19900 (2007) 39800 19900 21100 25700 26400 33100 52700 58400 75900 77000
2021-01-21 05:30 9.71 36000 77000 (2010) 19900 (2007) 39800 19900 21100 25700 26400 33100 52700 58400 75900 77000
2021-01-21 04:30 9.71 36000 77000 (2010) 19900 (2007) 39800 19900 21100 25700 26400 33100 52700 58400 75900 77000
2021-01-21 03:30 9.72 36000 77000 (2010) 19900 (2007) 39800 19900 21100 25700 26400 33100 52700 58400 75900 77000
2021-01-21 02:30 9.73 36000 77000 (2010) 19900 (2007) 39800 19900 21100 25700 26400 33100 52700 58400 75900 77000
2021-01-21 01:30 9.75 36100 77000 (2010) 19900 (2007) 39800 19900 21100 25700 26400 33100 52700 58400 75900 77000
2021-01-21 00:30 9.75 36100 77000 (2010) 19900 (2007) 39800 19900 21100 25700 26400 33100 52700 58400 75900 77000
2021-01-20 23:30 9.76 36200 80900 (2019) 20700 (2007) 39700 20700 21100 25800 26800 33800 51800 55700 78300 80900
2021-01-20 22:30 9.77 36200 80900 (2019) 20700 (2007) 39700 20700 21100 25800 26800 33800 51800 55700 78300 80900
2021-01-20 21:30 9.79 36300 80900 (2019) 20700 (2007) 39700 20700 21100 25800 26800 33800 51800 55700 78300 80900
2021-01-20 20:30 9.78 36300 80900 (2019) 20700 (2007) 39700 20700 21100 25800 26800 33800 51800 55700 78300 80900
2021-01-20 19:30 9.74 36100 80900 (2019) 20700 (2007) 39700 20700 21100 25800 26800 33800 51800 55700 78300 80900
2021-01-20 18:30 9.73 36000 80900 (2019) 20700 (2007) 39700 20700 21100 25800 26800 33800 51800 55700 78300 80900
2021-01-20 17:30 9.74 36100 80900 (2019) 20700 (2007) 39700 20700 21100 25800 26800 33800 51800 55700 78300 80900
2021-01-20 16:30 9.76 36200 80900 (2019) 20700 (2007) 39700 20700 21100 25800 26800 33800 51800 55700 78300 80900
2021-01-20 15:30 9.77 36200 80900 (2019) 20700 (2007) 39700 20700 21100 25800 26800 33800 51800 55700 78300 80900
2021-01-20 14:30 9.76 36200 80900 (2019) 20700 (2007) 39700 20700 21100 25800 26800 33800 51800 55700 78300 80900
2021-01-20 13:30 9.77 36200 80900 (2019) 20700 (2007) 39700 20700 21100 25800 26800 33800 51800 55700 78300 80900
2021-01-20 12:30 9.77 36200 80900 (2019) 20700 (2007) 39700 20700 21100 25800 26800 33800 51800 55700 78300 80900
2021-01-20 11:30 9.77 36200 80900 (2019) 20700 (2007) 39700 20700 21100 25800 26800 33800 51800 55700 78300 80900
2021-01-20 10:30 9.79 36300 80900 (2019) 20700 (2007) 39700 20700 21100 25800 26800 33800 51800 55700 78300 80900
2021-01-20 09:30 9.82 36400 80900 (2019) 20700 (2007) 39700 20700 21100 25800 26800 33800 51800 55700 78300 80900
2021-01-20 08:30 9.84 36500 80900 (2019) 20700 (2007) 39700 20700 21100 25800 26800 33800 51800 55700 78300 80900
2021-01-20 07:30 9.90 36800 80900 (2019) 20700 (2007) 39700 20700 21100 25800 26800 33800 51800 55700 78300 80900
2021-01-20 06:30 9.92 36900 80900 (2019) 20700 (2007) 39700 20700 21100 25800 26800 33800 51800 55700 78300 80900
2021-01-20 05:30 9.92 36900 80900 (2019) 20700 (2007) 39700 20700 21100 25800 26800 33800 51800 55700 78300 80900
2021-01-20 04:30 9.93 36900 80900 (2019) 20700 (2007) 39700 20700 21100 25800 26800 33800 51800 55700 78300 80900
2021-01-20 03:30 9.93 36900 80900 (2019) 20700 (2007) 39700 20700 21100 25800 26800 33800 51800 55700 78300 80900
2021-01-20 02:30 9.93 36900 80900 (2019) 20700 (2007) 39700 20700 21100 25800 26800 33800 51800 55700 78300 80900
2021-01-20 01:30 9.95 37000 80900 (2019) 20700 (2007) 39700 20700 21100 25800 26800 33800 51800 55700 78300 80900
2021-01-20 00:30 9.96 37000 80900 (2019) 20700 (2007) 39700 20700 21100 25800 26800 33800 51800 55700 78300 80900
2021-01-19 23:30 9.95 37000 85400 (2020) 20700 (2003) 39500 20800 22900 25100 27000 34200 46500 49400 76600 85000
2021-01-19 22:30 9.96 37000 85400 (2020) 20700 (2003) 39500 20800 22900 25100 27000 34200 46500 49400 76600 85000
2021-01-19 21:30 9.96 37000 85400 (2020) 20700 (2003) 39500 20800 22900 25100 27000 34200 46500 49400 76600 85000
2021-01-19 20:30 9.96 37000 85400 (2020) 20700 (2003) 39500 20800 22900 25100 27000 34200 46500 49400 76600 85000
2021-01-19 19:30 9.96 37000 85400 (2020) 20700 (2003) 39500 20800 22900 25100 27000 34200 46500 49400 76600 85000
2021-01-19 18:30 9.96 37000 85400 (2020) 20700 (2003) 39500 20800 22900 25100 27000 34200 46500 49400 76600 85000
2021-01-19 17:30 9.96 37000 85400 (2020) 20700 (2003) 39500 20800 22900 25100 27000 34200 46500 49400 76600 85000
2021-01-19 16:30 9.94 37000 85400 (2020) 20700 (2003) 39500 20800 22900 25100 27000 34200 46500 49400 76600 85000
2021-01-19 15:30 9.94 37000 85400 (2020) 20700 (2003) 39500 20800 22900 25100 27000 34200 46500 49400 76600 85000
2021-01-19 14:30 9.92 36900 85400 (2020) 20700 (2003) 39500 20800 22900 25100 27000 34200 46500 49400 76600 85000
2021-01-19 13:30 9.90 36800 85400 (2020) 20700 (2003) 39500 20800 22900 25100 27000 34200 46500 49400 76600 85000
2021-01-19 12:30 9.92 36900 85400 (2020) 20700 (2003) 39500 20800 22900 25100 27000 34200 46500 49400 76600 85000
2021-01-19 11:30 9.96 37000 85400 (2020) 20700 (2003) 39500 20800 22900 25100 27000 34200 46500 49400 76600 85000
2021-01-19 10:30 9.98 37100 85400 (2020) 20700 (2003) 39500 20800 22900 25100 27000 34200 46500 49400 76600 85000
2021-01-19 09:30 9.99 37200 85400 (2020) 20700 (2003) 39500 20800 22900 25100 27000 34200 46500 49400 76600 85000
2021-01-19 08:30 9.99 37200 85400 (2020) 20700 (2003) 39500 20800 22900 25100 27000 34200 46500 49400 76600 85000
2021-01-19 07:30 9.96 37000 85400 (2020) 20700 (2003) 39500 20800 22900 25100 27000 34200 46500 49400 76600 85000
2021-01-19 06:30 1 37200 85400 (2020) 20700 (2003) 39500 20800 22900 25100 27000 34200 46500 49400 76600 85000
2021-01-19 05:30 9.99 37200 85400 (2020) 20700 (2003) 39500 20800 22900 25100 27000 34200 46500 49400 76600 85000
2021-01-19 04:30 10.01 37300 85400 (2020) 20700 (2003) 39500 20800 22900 25100 27000 34200 46500 49400 76600 85000
2021-01-19 03:30 10.01 37300 85400 (2020) 20700 (2003) 39500 20800 22900 25100 27000 34200 46500 49400 76600 85000
2021-01-19 02:30 10.01 37300 85400 (2020) 20700 (2003) 39500 20800 22900 25100 27000 34200 46500 49400 76600 85000
2021-01-19 01:30 10.01 37300 85400 (2020) 20700 (2003) 39500 20800 22900 25100 27000 34200 46500 49400 76600 85000
2021-01-19 00:30 10.01 37300 85400 (2020) 20700 (2003) 39500 20800 22900 25100 27000 34200 46500 49400 76600 85000
2021-01-18 23:30 1 37200 84600 (2020) 21200 (2003) 39000 21300 23900 25800 26800 34800 42000 45200 72700 84000
2021-01-18 22:30 1 37200 84600 (2020) 21200 (2003) 39000 21300 23900 25800 26800 34800 42000 45200 72700 84000
2021-01-18 21:30 1 37200 84600 (2020) 21200 (2003) 39000 21300 23900 25800 26800 34800 42000 45200 72700 84000
2021-01-18 20:30 9.99 37200 84600 (2020) 21200 (2003) 39000 21300 23900 25800 26800 34800 42000 45200 72700 84000
2021-01-18 19:30 9.99 37200 84600 (2020) 21200 (2003) 39000 21300 23900 25800 26800 34800 42000 45200 72700 84000
2021-01-18 18:30 9.99 37200 84600 (2020) 21200 (2003) 39000 21300 23900 25800 26800 34800 42000 45200 72700 84000
2021-01-18 17:30 9.99 37200 84600 (2020) 21200 (2003) 39000 21300 23900 25800 26800 34800 42000 45200 72700 84000
2021-01-18 16:30 9.98 37100 84600 (2020) 21200 (2003) 39000 21300 23900 25800 26800 34800 42000 45200 72700 84000
2021-01-18 15:30 9.97 37100 84600 (2020) 21200 (2003) 39000 21300 23900 25800 26800 34800 42000 45200 72700 84000
2021-01-18 14:30 9.96 37000 84600 (2020) 21200 (2003) 39000 21300 23900 25800 26800 34800 42000 45200 72700 84000
2021-01-18 13:30 9.97 37100 84600 (2020) 21200 (2003) 39000 21300 23900 25800 26800 34800 42000 45200 72700 84000
2021-01-18 12:30 9.96 37000 84600 (2020) 21200 (2003) 39000 21300 23900 25800 26800 34800 42000 45200 72700 84000
2021-01-18 11:30 9.96 37000 84600 (2020) 21200 (2003) 39000 21300 23900 25800 26800 34800 42000 45200 72700 84000
2021-01-18 10:30 9.96 37000 84600 (2020) 21200 (2003) 39000 21300 23900 25800 26800 34800 42000 45200 72700 84000
2021-01-18 09:30 9.96 37000 84600 (2020) 21200 (2003) 39000 21300 23900 25800 26800 34800 42000 45200 72700 84000
2021-01-18 08:30 9.95 37000 84600 (2020) 21200 (2003) 39000 21300 23900 25800 26800 34800 42000 45200 72700 84000
2021-01-18 07:30 9.94 37000 84600 (2020) 21200 (2003) 39000 21300 23900 25800 26800 34800 42000 45200 72700 84000
2021-01-18 06:30 9.94 37000 84600 (2020) 21200 (2003) 39000 21300 23900 25800 26800 34800 42000 45200 72700 84000
2021-01-18 05:30 9.95 37000 84600 (2020) 21200 (2003) 39000 21300 23900 25800 26800 34800 42000 45200 72700 84000
2021-01-18 04:30 9.96 37000 84600 (2020) 21200 (2003) 39000 21300 23900 25800 26800 34800 42000 45200 72700 84000
2021-01-18 03:30 9.98 37100 84600 (2020) 21200 (2003) 39000 21300 23900 25800 26800 34800 42000 45200 72700 84000
2021-01-18 02:30 9.99 37200 84600 (2020) 21200 (2003) 39000 21300 23900 25800 26800 34800 42000 45200 72700 84000
2021-01-18 01:30 9.99 37200 84600 (2020) 21200 (2003) 39000 21300 23900 25800 26800 34800 42000 45200 72700 84000
2021-01-18 00:30 9.99 37200 84600 (2020) 21200 (2003) 39000 21300 23900 25800 26800 34800 42000 45200 72700 84000
2021-01-17 23:30 1 37200 86400 (2020) 22100 (2003) 39400 22100 23300 26100 27300 35800 42400 45400 72900 85700
2021-01-17 22:30 1 37200 86400 (2020) 22100 (2003) 39400 22100 23300 26100 27300 35800 42400 45400 72900 85700
2021-01-17 21:30 1 37200 86400 (2020) 22100 (2003) 39400 22100 23300 26100 27300 35800 42400 45400 72900 85700
2021-01-17 20:30 9.99 37200 86400 (2020) 22100 (2003) 39400 22100 23300 26100 27300 35800 42400 45400 72900 85700
2021-01-17 19:30 9.99 37200 86400 (2020) 22100 (2003) 39400 22100 23300 26100 27300 35800 42400 45400 72900 85700
2021-01-17 18:30 9.98 37100 86400 (2020) 22100 (2003) 39400 22100 23300 26100 27300 35800 42400 45400 72900 85700
2021-01-17 17:30 9.98 37100 86400 (2020) 22100 (2003) 39400 22100 23300 26100 27300 35800 42400 45400 72900 85700
2021-01-17 16:30 9.98 37100 86400 (2020) 22100 (2003) 39400 22100 23300 26100 27300 35800 42400 45400 72900 85700
2021-01-17 15:30 9.98 37100 86400 (2020) 22100 (2003) 39400 22100 23300 26100 27300 35800 42400 45400 72900 85700
2021-01-17 14:30 9.97 37100 86400 (2020) 22100 (2003) 39400 22100 23300 26100 27300 35800 42400 45400 72900 85700
2021-01-17 13:30 9.97 37100 86400 (2020) 22100 (2003) 39400 22100 23300 26100 27300 35800 42400 45400 72900 85700
2021-01-17 12:30 9.97 37100 86400 (2020) 22100 (2003) 39400 22100 23300 26100 27300 35800 42400 45400 72900 85700
2021-01-17 11:30 9.98 37100 86400 (2020) 22100 (2003) 39400 22100 23300 26100 27300 35800 42400 45400 72900 85700
2021-01-17 10:30 9.99 37200 86400 (2020) 22100 (2003) 39400 22100 23300 26100 27300 35800 42400 45400 72900 85700
2021-01-17 09:30 9.98 37100 86400 (2020) 22100 (2003) 39400 22100 23300 26100 27300 35800 42400 45400 72900 85700
2021-01-17 08:30 9.98 37100 86400 (2020) 22100 (2003) 39400 22100 23300 26100 27300 35800 42400 45400 72900 85700
2021-01-17 07:30 9.97 37100 86400 (2020) 22100 (2003) 39400 22100 23300 26100 27300 35800 42400 45400 72900 85700
2021-01-17 06:30 9.98 37100 86400 (2020) 22100 (2003) 39400 22100 23300 26100 27300 35800 42400 45400 72900 85700
2021-01-17 05:30 9.99 37200 86400 (2020) 22100 (2003) 39400 22100 23300 26100 27300 35800 42400 45400 72900 85700
2021-01-17 04:30 1 37200 86400 (2020) 22100 (2003) 39400 22100 23300 26100 27300 35800 42400 45400 72900 85700
2021-01-17 03:30 1 37200 86400 (2020) 22100 (2003) 39400 22100 23300 26100 27300 35800 42400 45400 72900 85700
2021-01-17 02:30 1 37200 86400 (2020) 22100 (2003) 39400 22100 23300 26100 27300 35800 42400 45400 72900 85700
2021-01-17 01:30 9.96 37000 86400 (2020) 22100 (2003) 39400 22100 23300 26100 27300 35800 42400 45400 72900 85700
2021-01-16 22:30 1 37200 90500 (2020) 22300 (2004) 39900 22300 22800 26200 27500 35400 42600 44200 73700 89700
2021-01-16 21:30 9.99 37200 90500 (2020) 22300 (2004) 39900 22300 22800 26200 27500 35400 42600 44200 73700 89700
2021-01-16 20:30 9.97 37100 90500 (2020) 22300 (2004) 39900 22300 22800 26200 27500 35400 42600 44200 73700 89700
2021-01-16 19:30 9.97 37100 90500 (2020) 22300 (2004) 39900 22300 22800 26200 27500 35400 42600 44200 73700 89700
2021-01-16 18:30 9.96 37000 90500 (2020) 22300 (2004) 39900 22300 22800 26200 27500 35400 42600 44200 73700 89700
2021-01-16 17:30 9.96 37000 90500 (2020) 22300 (2004) 39900 22300 22800 26200 27500 35400 42600 44200 73700 89700
2021-01-16 16:30 9.95 37000 90500 (2020) 22300 (2004) 39900 22300 22800 26200 27500 35400 42600 44200 73700 89700
2021-01-16 15:30 9.94 37000 90500 (2020) 22300 (2004) 39900 22300 22800 26200 27500 35400 42600 44200 73700 89700
2021-01-16 14:30 9.95 37000 90500 (2020) 22300 (2004) 39900 22300 22800 26200 27500 35400 42600 44200 73700 89700
2021-01-16 13:30 9.96 37000 90500 (2020) 22300 (2004) 39900 22300 22800 26200 27500 35400 42600 44200 73700 89700
2021-01-16 12:30 9.94 37000 90500 (2020) 22300 (2004) 39900 22300 22800 26200 27500 35400 42600 44200 73700 89700
2021-01-16 11:30 9.95 37000 90500 (2020) 22300 (2004) 39900 22300 22800 26200 27500 35400 42600 44200 73700 89700
2021-01-16 10:30 9.96 37000 90500 (2020) 22300 (2004) 39900 22300 22800 26200 27500 35400 42600 44200 73700 89700
2021-01-16 09:30 9.94 37000 90500 (2020) 22300 (2004) 39900 22300 22800 26200 27500 35400 42600 44200 73700 89700
2021-01-16 08:30 9.93 36900 90500 (2020) 22300 (2004) 39900 22300 22800 26200 27500 35400 42600 44200 73700 89700
2021-01-16 07:30 9.93 36900 90500 (2020) 22300 (2004) 39900 22300 22800 26200 27500 35400 42600 44200 73700 89700
2021-01-16 06:30 9.90 36800 90500 (2020) 22300 (2004) 39900 22300 22800 26200 27500 35400 42600 44200 73700 89700
2021-01-16 05:30 9.90 36800 90500 (2020) 22300 (2004) 39900 22300 22800 26200 27500 35400 42600 44200 73700 89700
2021-01-16 04:30 9.90 36800 90500 (2020) 22300 (2004) 39900 22300 22800 26200 27500 35400 42600 44200 73700 89700
2021-01-16 03:30 9.92 36900 90500 (2020) 22300 (2004) 39900 22300 22800 26200 27500 35400 42600 44200 73700 89700
2021-01-16 02:30 9.90 36800 90500 (2020) 22300 (2004) 39900 22300 22800 26200 27500 35400 42600 44200 73700 89700
2021-01-16 01:30 9.90 36800 90500 (2020) 22300 (2004) 39900 22300 22800 26200 27500 35400 42600 44200 73700 89700
2021-01-16 00:30 9.92 36900 90500 (2020) 22300 (2004) 39900 22300 22800 26200 27500 35400 42600 44200 73700 89700
2021-01-15 23:30 9.92 36900 88300 (2020) 21400 (2004) 40300 21500 22800 26000 27200 35800 44900 45900 74900 87600
2021-01-15 22:30 9.92 36900 88300 (2020) 21400 (2004) 40300 21500 22800 26000 27200 35800 44900 45900 74900 87600
2021-01-15 21:30 9.91 36800 88300 (2020) 21400 (2004) 40300 21500 22800 26000 27200 35800 44900 45900 74900 87600
2021-01-15 20:30 9.91 36800 88300 (2020) 21400 (2004) 40300 21500 22800 26000 27200 35800 44900 45900 74900 87600
2021-01-15 19:30 9.90 36800 88300 (2020) 21400 (2004) 40300 21500 22800 26000 27200 35800 44900 45900 74900 87600
2021-01-15 18:30 9.90 36800 88300 (2020) 21400 (2004) 40300 21500 22800 26000 27200 35800 44900 45900 74900 87600
2021-01-15 17:30 9.84 36500 88300 (2020) 21400 (2004) 40300 21500 22800 26000 27200 35800 44900 45900 74900 87600
2021-01-15 16:30 9.86 36600 88300 (2020) 21400 (2004) 40300 21500 22800 26000 27200 35800 44900 45900 74900 87600
2021-01-15 15:30 9.85 36600 88300 (2020) 21400 (2004) 40300 21500 22800 26000 27200 35800 44900 45900 74900 87600
2021-01-15 14:30 9.88 36700 88300 (2020) 21400 (2004) 40300 21500 22800 26000 27200 35800 44900 45900 74900 87600
2021-01-15 13:30 9.88 36700 88300 (2020) 21400 (2004) 40300 21500 22800 26000 27200 35800 44900 45900 74900 87600
2021-01-15 12:30 9.88 36700 88300 (2020) 21400 (2004) 40300 21500 22800 26000 27200 35800 44900 45900 74900 87600
2021-01-15 11:30 9.88 36700 88300 (2020) 21400 (2004) 40300 21500 22800 26000 27200 35800 44900 45900 74900 87600
2021-01-15 10:30 9.86 36600 88300 (2020) 21400 (2004) 40300 21500 22800 26000 27200 35800 44900 45900 74900 87600
2021-01-15 09:30 9.87 36700 88300 (2020) 21400 (2004) 40300 21500 22800 26000 27200 35800 44900 45900 74900 87600
2021-01-15 08:30 9.87 36700 88300 (2020) 21400 (2004) 40300 21500 22800 26000 27200 35800 44900 45900 74900 87600
2021-01-15 07:30 9.83 36500 88300 (2020) 21400 (2004) 40300 21500 22800 26000 27200 35800 44900 45900 74900 87600
2021-01-15 06:30 9.83 36500 88300 (2020) 21400 (2004) 40300 21500 22800 26000 27200 35800 44900 45900 74900 87600
2021-01-15 05:30 9.83 36500 88300 (2020) 21400 (2004) 40300 21500 22800 26000 27200 35800 44900 45900 74900 87600
2021-01-15 04:30 9.84 36500 88300 (2020) 21400 (2004) 40300 21500 22800 26000 27200 35800 44900 45900 74900 87600
2021-01-15 03:30 9.85 36600 88300 (2020) 21400 (2004) 40300 21500 22800 26000 27200 35800 44900 45900 74900 87600
2021-01-15 02:30 9.85 36600 88300 (2020) 21400 (2004) 40300 21500 22800 26000 27200 35800 44900 45900 74900 87600
2021-01-15 01:30 9.87 36700 88300 (2020) 21400 (2004) 40300 21500 22800 26000 27200 35800 44900 45900 74900 87600
2021-01-15 00:30 9.84 36500 88300 (2020) 21400 (2004) 40300 21500 22800 26000 27200 35800 44900 45900 74900 87600
2021-01-14 23:30 9.86 36600 91700 (2020) 20900 (2004) 41300 21000 22900 26000 27100 37400 47900 53600 77300 91000
2021-01-14 22:30 9.88 36700 91700 (2020) 20900 (2004) 41300 21000 22900 26000 27100 37400 47900 53600 77300 91000
2021-01-14 21:30 9.87 36700 91700 (2020) 20900 (2004) 41300 21000 22900 26000 27100 37400 47900 53600 77300 91000
2021-01-14 20:30 9.90 36800 91700 (2020) 20900 (2004) 41300 21000 22900 26000 27100 37400 47900 53600 77300 91000
2021-01-14 19:30 9.86 36600 91700 (2020) 20900 (2004) 41300 21000 22900 26000 27100 37400 47900 53600 77300 91000
2021-01-14 18:30 9.90 36800 91700 (2020) 20900 (2004) 41300 21000 22900 26000 27100 37400 47900 53600 77300 91000
2021-01-14 17:30 9.86 36600 91700 (2020) 20900 (2004) 41300 21000 22900 26000 27100 37400 47900 53600 77300 91000
2021-01-14 16:30 9.82 36400 91700 (2020) 20900 (2004) 41300 21000 22900 26000 27100 37400 47900 53600 77300 91000
2021-01-14 15:30 9.83 36500 91700 (2020) 20900 (2004) 41300 21000 22900 26000 27100 37400 47900 53600 77300 91000
2021-01-14 14:30 9.84 36500 91700 (2020) 20900 (2004) 41300 21000 22900 26000 27100 37400 47900 53600 77300 91000
2021-01-14 13:30 9.81 36400 91700 (2020) 20900 (2004) 41300 21000 22900 26000 27100 37400 47900 53600 77300 91000
2021-01-14 12:30 9.82 36400 91700 (2020) 20900 (2004) 41300 21000 22900 26000 27100 37400 47900 53600 77300 91000
2021-01-14 11:30 9.83 36500 91700 (2020) 20900 (2004) 41300 21000 22900 26000 27100 37400 47900 53600 77300 91000
2021-01-14 10:30 9.85 36600 91700 (2020) 20900 (2004) 41300 21000 22900 26000 27100 37400 47900 53600 77300 91000
2021-01-14 09:30 9.83 36500 91700 (2020) 20900 (2004) 41300 21000 22900 26000 27100 37400 47900 53600 77300 91000
2021-01-14 08:30 9.81 36400 91700 (2020) 20900 (2004) 41300 21000 22900 26000 27100 37400 47900 53600 77300 91000
2021-01-14 07:30 9.82 36400 91700 (2020) 20900 (2004) 41300 21000 22900 26000 27100 37400 47900 53600 77300 91000
2021-01-14 06:30 9.76 36200 91700 (2020) 20900 (2004) 41300 21000 22900 26000 27100 37400 47900 53600 77300 91000
2021-01-14 05:30 9.78 36300 91700 (2020) 20900 (2004) 41300 21000 22900 26000 27100 37400 47900 53600 77300 91000
2021-01-14 04:30 9.78 36300 91700 (2020) 20900 (2004) 41300 21000 22900 26000 27100 37400 47900 53600 77300 91000
2021-01-14 03:30 9.79 36300 91700 (2020) 20900 (2004) 41300 21000 22900 26000 27100 37400 47900 53600 77300 91000
2021-01-14 02:30 9.74 36100 91700 (2020) 20900 (2004) 41300 21000 22900 26000 27100 37400 47900 53600 77300 91000
2021-01-14 01:30 9.76 36200 91700 (2020) 20900 (2004) 41300 21000 22900 26000 27100 37400 47900 53600 77300 91000
2021-01-14 00:30 9.78 36300 91700 (2020) 20900 (2004) 41300 21000 22900 26000 27100 37400 47900 53600 77300 91000
2021-01-13 23:30 9.78 36300 103000 (2020) 20900 (2004) 42100 21000 23200 25600 26300 37600 45400 52100 83600 102000
2021-01-13 22:30 9.76 36200 103000 (2020) 20900 (2004) 42100 21000 23200 25600 26300 37600 45400 52100 83600 102000
2021-01-13 21:30 9.77 36200 103000 (2020) 20900 (2004) 42100 21000 23200 25600 26300 37600 45400 52100 83600 102000
2021-01-13 20:30 9.74 36100 103000 (2020) 20900 (2004) 42100 21000 23200 25600 26300 37600 45400 52100 83600 102000
2021-01-13 19:30 9.77 36200 103000 (2020) 20900 (2004) 42100 21000 23200 25600 26300 37600 45400 52100 83600 102000
2021-01-13 18:30 9.76 36200 103000 (2020) 20900 (2004) 42100 21000 23200 25600 26300 37600 45400 52100 83600 102000
2021-01-13 17:30 9.75 36100 103000 (2020) 20900 (2004) 42100 21000 23200 25600 26300 37600 45400 52100 83600 102000
2021-01-13 16:30 9.70 35900 103000 (2020) 20900 (2004) 42100 21000 23200 25600 26300 37600 45400 52100 83600 102000
2021-01-13 15:30 9.71 36000 103000 (2020) 20900 (2004) 42100 21000 23200 25600 26300 37600 45400 52100 83600 102000
2021-01-13 14:30 9.71 36000 103000 (2020) 20900 (2004) 42100 21000 23200 25600 26300 37600 45400 52100 83600 102000
2021-01-13 13:30 9.72 36000 103000 (2020) 20900 (2004) 42100 21000 23200 25600 26300 37600 45400 52100 83600 102000
2021-01-13 12:30 9.72 36000 103000 (2020) 20900 (2004) 42100 21000 23200 25600 26300 37600 45400 52100 83600 102000
2021-01-13 11:30 9.73 36000 103000 (2020) 20900 (2004) 42100 21000 23200 25600 26300 37600 45400 52100 83600 102000
2021-01-13 10:30 9.72 36000 103000 (2020) 20900 (2004) 42100 21000 23200 25600 26300 37600 45400 52100 83600 102000
2021-01-13 09:30 9.73 36000 103000 (2020) 20900 (2004) 42100 21000 23200 25600 26300 37600 45400 52100 83600 102000
2021-01-13 08:30 9.70 35900 103000 (2020) 20900 (2004) 42100 21000 23200 25600 26300 37600 45400 52100 83600 102000
2021-01-13 07:30 9.70 35900 103000 (2020) 20900 (2004) 42100 21000 23200 25600 26300 37600 45400 52100 83600 102000
2021-01-13 06:30 9.69 35900 103000 (2020) 20900 (2004) 42100 21000 23200 25600 26300 37600 45400 52100 83600 102000
2021-01-13 05:30 9.69 35900 103000 (2020) 20900 (2004) 42100 21000 23200 25600 26300 37600 45400 52100 83600 102000
2021-01-13 04:30 9.70 35900 103000 (2020) 20900 (2004) 42100 21000 23200 25600 26300 37600 45400 52100 83600 102000
2021-01-13 03:30 9.68 35800 103000 (2020) 20900 (2004) 42100 21000 23200 25600 26300 37600 45400 52100 83600 102000
2021-01-13 02:30 9.67 35800 103000 (2020) 20900 (2004) 42100 21000 23200 25600 26300 37600 45400 52100 83600 102000
2021-01-13 01:30 9.69 35900 103000 (2020) 20900 (2004) 42100 21000 23200 25600 26300 37600 45400 52100 83600 102000
2021-01-13 00:30 9.70 35900 103000 (2020) 20900 (2004) 42100 21000 23200 25600 26300 37600 45400 52100 83600 102000
2021-01-12 23:30 9.67 35800 115000 (2020) 21200 (2004) 43300 21300 23200 25500 25900 35900 44700 55700 97000 114000
2021-01-12 22:30 9.66 35700 115000 (2020) 21200 (2004) 43300 21300 23200 25500 25900 35900 44700 55700 97000 114000
2021-01-12 21:30 9.66 35700 115000 (2020) 21200 (2004) 43300 21300 23200 25500 25900 35900 44700 55700 97000 114000
2021-01-12 20:30 9.66 35700 115000 (2020) 21200 (2004) 43300 21300 23200 25500 25900 35900 44700 55700 97000 114000
2021-01-12 19:30 9.68 35800 115000 (2020) 21200 (2004) 43300 21300 23200 25500 25900 35900 44700 55700 97000 114000
2021-01-12 18:30 9.68 35800 115000 (2020) 21200 (2004) 43300 21300 23200 25500 25900 35900 44700 55700 97000 114000
2021-01-12 17:30 9.66 35700 115000 (2020) 21200 (2004) 43300 21300 23200 25500 25900 35900 44700 55700 97000 114000
2021-01-12 16:30 9.64 35700 115000 (2020) 21200 (2004) 43300 21300 23200 25500 25900 35900 44700 55700 97000 114000
2021-01-12 15:30 9.63 35600 115000 (2020) 21200 (2004) 43300 21300 23200 25500 25900 35900 44700 55700 97000 114000
2021-01-12 14:30 9.63 35600 115000 (2020)